[[{"header":{"parameterUnit":"m.s-1","parameterCategory":1,"la1":31.0,"la2":29.5877,"lo1":-88.7671,"lo2":-86.6584,"dy":0.0162,"dx":0.0185,"nx":115,"ny":88,"refTime":"2023-04-27T12:00:00:Z","depth":0,"parameterNumber":2,"parameterNumberName":"U-component_of_WINDS"},"data":[0.0,0.0,0.0,0.0,0.0,0.0,0.0,0.0,0.0,0.0,0.0,0.0,0.0,0.0,0.0,0.0,0.0,0.0,0.0,0.0,0.0,0.0,0.0,0.0,0.0,0.0,0.0,0.0,0.0,0.0,0.0,0.0,0.0,0.0,0.0,0.0,0.0,0.0,0.0,0.0,0.0,0.0,0.0,0.0,0.0,0.0,0.0,0.0,0.0,0.0,0.0,0.0,0.0,0.0,0.0,0.0,0.0,0.0,0.0,0.0,0.0,0.0,0.0,0.0,0.0,0.0,0.0,0.0,0.0,0.0,0.0,0.0,0.0,0.0,0.0,0.0,0.0,0.0,0.0,0.0,0.0,0.0,0.0,0.0,0.0,0.0,0.0,0.0,0.0,0.0,0.0,0.0,0.0,0.0,0.0,0.0,0.0,0.0,0.0,0.0,0.0,0.0,0.0,0.0,0.0,0.0,0.0,0.0,0.0,0.0,0.0,0.0,0.0,0.0,0.0,0.0,0.0,0.0,0.0,0.0,0.0,0.0,0.0,0.0,0.0,0.0,0.0,0.0,0.0,0.0,0.0,0.0,0.0,0.0,0.0,0.0,0.0,0.0,0.0,0.0,0.0,0.0,0.0,0.0,0.0,0.0,0.0,0.0,0.0,0.0,0.0,0.0,0.0,0.0,0.0,0.0,0.0,0.0,0.0,0.0,0.0,0.0,0.0,0.0,0.0,0.0,0.0,0.0,0.0,0.0,0.0,0.0,0.0,0.0,0.0,0.0,0.0,0.0,0.0,0.0,0.0,0.0,0.0,0.0,0.0,0.0,0.0,0.0,0.0,0.0,0.0,0.0,0.0,0.0,0.0,0.0,0.0,0.0,0.0,0.0,0.0,0.0,0.0,0.0,0.0,0.0,0.0,0.0,0.0,0.0,0.0,0.0,0.0,0.0,0.0,0.0,0.0,0.0,0.0,0.0,0.0,0.0,0.0,0.0,0.0,0.0,0.0,0.0,0.0,0.0,0.0,0.0,0.0,0.0,0.0,0.0,0.0,0.0,0.0,0.0,0.0,0.0,0.0,0.0,0.0,0.0,0.0,0.0,0.0,0.0,0.0,0.0,0.0,0.0,0.0,0.0,0.0,0.0,0.0,0.0,0.0,0.0,0.0,0.0,0.0,0.0,0.0,0.0,0.0,0.0,0.0,0.0,0.0,0.0,0.0,0.0,0.0,0.0,0.0,0.0,0.0,0.0,0.0,0.0,0.0,0.0,0.0,0.0,0.0,0.0,0.0,0.0,0.0,0.0,0.0,0.0,0.0,0.0,0.0,0.0,0.0,0.0,0.0,0.0,0.0,0.0,0.0,0.0,0.0,0.0,0.0,0.0,0.0,0.0,0.0,0.0,0.0,0.0,0.0,0.0,0.0,0.0,0.0,0.0,0.0,0.0,0.0,0.0,0.0,0.0,0.0,0.0,0.0,0.0,0.0,0.0,0.0,0.0,0.0,0.0,0.0,0.0,0.0,0.0,0.0,0.0,0.0,0.0,0.0,0.0,0.0,0.0,0.0,0.0,0.0,0.0,0.0,0.0,0.0,0.0,0.0,0.0,0.0,0.0,0.0,0.0,0.0,0.0,0.0,0.0,0.0,0.0,0.0,0.0,0.0,0.0,0.0,0.0,0.0,0.0,0.0,0.0,0.0,0.0,0.0,0.0,0.0,0.0,0.0,0.0,0.0,0.0,0.0,0.0,0.0,0.0,0.0,0.0,0.0,0.0,0.0,0.0,0.0,0.0,0.0,0.0,0.0,0.0,0.0,0.0,0.0,0.0,0.0,0.0,0.0,0.0,0.0,0.0,0.0,0.0,0.0,0.0,0.0,0.0,0.0,0.0,0.0,0.0,0.0,0.0,0.0,0.0,0.0,0.0,0.0,0.0,0.0,0.0,0.0,0.0,0.0,0.0,0.0,0.0,0.0,0.0,0.0,0.0,0.0,0.0,0.0,0.0,0.0,0.0,0.0,0.0,0.0,0.0,0.0,0.0,0.0,0.0,0.0,0.0,0.0,0.0,0.0,0.0,0.0,0.0,0.0,0.0,0.0,0.0,0.0,0.0,0.0,0.0,0.0,0.0,0.0,0.0,0.0,0.0,0.0,0.0,0.0,0.0,0.0,0.0,0.0,0.0,0.0,0.0,0.0,0.0,0.0,0.0,0.0,0.0,0.0,0.0,0.0,0.0,0.0,0.0,0.0,0.0,0.0,0.0,0.0,0.0,0.0,0.0,0.0,0.0,0.0,0.0,0.0,0.0,0.0,0.0,0.0,0.0,0.0,0.0,0.0,0.0,0.0,0.0,0.0,0.0,0.0,0.0,0.0,0.0,0.0,0.0,0.0,0.0,0.0,0.0,0.0,0.0,0.0,0.0,0.0,0.0,0.0,0.0,0.0,0.0,0.0,0.0,0.0,0.0,0.0,0.0,0.0,0.0,0.0,0.0,0.0,0.0,0.0,0.0,0.0,0.0,0.0,0.0,0.0,0.0,0.0,0.0,0.0,0.0,0.0,0.0,0.0,0.0,0.0,0.0,0.0,0.0,0.0,0.0,0.0,0.0,0.0,0.0,0.0,0.0,0.0,0.0,0.0,0.0,0.0,0.0,0.0,0.0,0.0,0.0,0.0,0.0,0.0,0.0,0.0,0.0,0.0,0.0,0.0,0.0,0.0,0.0,0.0,0.0,0.0,0.0,0.0,0.0,0.0,0.0,0.0,0.0,0.0,0.0,0.0,0.0,0.0,0.0,0.0,0.0,0.0,0.0,0.0,0.0,0.0,0.0,0.0,0.0,0.0,0.0,0.0,0.0,0.0,0.0,0.0,0.0,0.0,0.0,0.0,0.0,0.0,0.0,0.0,0.0,0.0,0.0,0.0,0.0,0.0,0.0,0.0,0.0,0.0,0.0,0.0,0.0,0.0,0.0,0.0,0.0,0.0,0.0,0.0,0.0,0.0,0.0,0.0,0.0,0.0,0.0,0.0,0.0,0.0,0.0,0.0,0.0,0.0,0.0,0.0,0.0,0.0,0.0,0.0,0.0,0.0,0.0,0.0,0.0,0.0,0.0,0.0,0.0,0.0,0.0,0.0,0.0,0.0,0.0,0.0,0.0,0.0,0.0,0.0,0.0,0.0,0.0,0.0,0.0,0.0,0.0,0.0,0.0,0.0,0.0,0.0,0.0,0.0,0.0,0.0,0.0,0.0,0.0,0.0,0.0,0.0,0.0,0.0,0.0,0.0,0.0,0.0,0.0,0.0,0.0,0.0,0.0,0.0,0.0,0.0,0.0,0.0,0.0,0.0,0.0,0.0,0.0,0.0,0.0,0.0,0.0,0.0,0.0,0.0,0.0,0.0,0.0,0.0,0.0,0.0,0.0,0.0,0.0,0.0,0.0,0.0,0.0,0.0,0.0,0.0,0.0,0.0,0.0,0.0,0.0,0.0,0.0,0.0,0.0,0.0,0.0,0.0,0.0,0.0,0.0,0.0,0.0,0.0,0.0,0.0,0.0,0.0,0.0,0.0,0.0,0.0,0.0,0.0,0.0,0.0,0.0,0.0,0.0,0.0,0.0,0.0,0.0,0.0,0.0,0.0,0.0,0.0,0.0,0.0,0.0,0.0,0.0,0.0,0.0,0.0,0.0,0.0,0.0,0.0,0.0,0.0,0.0,0.0,0.0,0.0,0.0,0.0,0.0,0.0,0.0,0.0,0.0,0.0,0.0,0.0,0.0,0.0,0.0,0.0,0.0,0.0,0.0,0.0,0.0,0.0,0.0,0.0,0.0,0.0,0.0,0.0,0.0,0.0,0.0,0.0,0.0,0.0,0.0,0.0,0.0,0.0,0.0,0.0,0.0,0.0,0.0,0.0,0.0,0.0,0.0,0.0,0.0,0.0,0.0,0.0,0.0,0.0,0.0,0.0,0.0,0.0,0.0,0.0,0.0,0.0,0.0,0.0,0.0,0.0,0.0,0.0,0.0,0.0,0.0,0.0,0.0,0.0,0.0,0.0,0.0,0.0,0.0,0.0,0.0,0.0,0.0,0.0,0.0,0.0,0.0,0.0,0.0,0.0,0.0,0.0,0.0,0.0,0.0,0.0,0.0,0.0,0.0,0.0,0.0,0.0,0.0,0.0,0.0,0.0,0.0,0.0,0.0,0.0,0.0,0.0,0.0,0.0,0.0,0.0,0.0,0.0,0.0,0.0,0.0,0.0,0.0,0.0,0.0,0.0,0.0,0.887,0.0,0.0,0.0,0.0,0.0,0.0,0.0,0.0,0.0,0.0,0.0,0.0,0.0,0.0,0.0,0.0,0.0,0.0,0.0,0.0,0.0,0.0,0.0,0.0,0.0,0.0,0.0,0.0,0.0,0.0,0.0,0.0,0.0,0.0,0.0,0.0,0.0,0.0,0.0,0.0,0.0,0.0,0.0,0.0,0.0,0.0,0.0,0.0,0.0,0.0,0.0,0.0,0.0,0.0,0.0,0.0,0.0,0.0,0.0,0.0,0.0,0.0,0.0,0.0,0.0,0.0,0.0,0.0,0.0,0.0,0.0,0.0,0.0,0.0,0.0,0.0,0.0,0.0,0.0,0.0,0.0,0.0,0.0,0.0,0.0,0.0,0.0,0.0,0.0,0.0,0.0,0.0,0.0,0.0,0.0,0.0,0.0,0.0,0.0,0.0,0.0,0.0,0.0,0.0,0.0,0.0,0.0,0.0,0.0,0.0,0.8758,0.8296,0.809,0.7835,0.7638,0.0,0.0,0.0,0.0,0.0,0.0,0.0,0.0,0.0,0.0,0.0,0.0,0.0,0.0,0.0,0.0,0.0,0.0,0.0,0.0,0.0,0.0,0.0,0.0,0.0,0.0,0.0,0.0,0.0,0.0,0.0,0.0,0.0,0.0,0.0,0.0,0.0,0.0,0.0,0.0,0.0,0.0,0.0,0.0,0.0,0.0,0.0,0.0,0.0,0.0,0.0,0.0,0.0,0.0,0.0,0.0,0.0,0.0,0.0,0.0,0.0,0.0,0.0,0.0,0.0,0.0,0.0,0.0,0.0,0.0,0.0,0.0,0.0,0.0,0.0,0.0,0.0,0.0,0.0,0.0,0.0,0.0,0.0,0.0,0.0,0.0,0.0,0.0,0.0,0.0,0.0,0.0,0.0,0.0,0.0,0.0,0.0,0.0,0.0,0.0,0.0,0.0,0.0,0.0,0.0,0.0,0.0,0.0,0.0,0.0,0.0,0.0,0.6966,0.6748,0.6615,0.0,0.0,0.0,0.0,0.0,0.0,0.0,0.0,0.0,0.0,0.0,0.0,0.0,0.0,0.0,0.0,0.0,0.0,0.0,0.0,0.0,0.0,0.0,0.0,0.0,0.0,0.0,0.0,0.0,0.0,0.0,0.0,0.0,0.0,0.0,0.0,0.0,0.0,0.0,0.0,0.0,0.0,0.0,0.0,0.0,0.0,0.0,0.0,0.0,0.0,0.0,0.0,0.0,0.0,0.0,0.0,0.0,0.0,0.0,0.0,0.0,0.0,0.0,0.0,0.0,0.0,0.0,0.0,0.0,0.0,0.0,0.0,0.0,0.0,0.0,0.0,0.0,0.0,0.0,0.0,0.0,0.0,0.0,0.0,0.0,0.0,0.0,0.0,0.0,0.0,0.0,0.0,0.0,0.0,0.0,0.0,0.0,0.0,0.0,0.0,0.0,0.0,0.0,0.0,0.0,0.0,0.0,0.0,0.0,0.0,0.6534,0.6164,0.6109,0.0,0.5469,0.0,0.0,0.0,0.0,0.0,0.0,0.0,0.0,0.0,0.0,0.0,0.0,0.0,0.0,0.0,0.0,0.0,0.0,0.0,0.0,0.0,0.0,0.0,0.0,0.0,0.0,0.0,0.0,0.0,0.0,0.0,0.0,0.0,0.0,0.0,0.0,0.0,0.0,0.0,0.0,0.0,0.0,0.0,0.0,0.0,0.0,0.0,0.0,0.0,0.0,0.0,0.0,0.0,0.0,0.0,0.0,0.0,0.0,0.0,0.0,0.0,0.0,0.0,0.0,0.0,0.0,0.0,0.0,0.0,0.0,0.0,0.0,0.0,0.0,0.0,0.0,0.0,0.0,0.0,0.0,0.0,0.0,0.0,0.0,0.0,0.0,0.0,0.0,0.0,0.0,0.0,0.0,0.0,0.0,0.0,0.0,0.0,0.0,0.0,0.0,0.0,0.0,0.0,0.0,0.0,0.0,0.0,0.0,0.0,0.0,0.5664,0.5234,0.4959,0.4712,0.0,0.0,0.0,0.0,0.0,0.0,0.0,0.0,0.0,0.0,0.0,0.0,0.0,0.0,0.0,0.0,0.0,0.0,0.0,0.0,0.0,0.0,0.0,0.0,0.0,0.0,0.0,0.0,0.0,0.0,0.0,0.0,0.0,0.0,0.0,0.0,0.0,0.0,0.0,0.0,0.0,0.0,0.0,0.0,0.0,0.0,0.0,0.0,0.0,0.0,0.0,0.0,0.0,0.0,0.0,0.0,0.0,0.0,0.0,0.0,0.0,0.0,0.0,0.0,0.0,0.0,0.0,0.0,0.0,0.0,0.0,0.0,0.0,0.0,0.0,0.0,0.0,0.0,0.0,0.0,0.0,0.0,0.0,0.0,0.0,0.0,0.0,0.0,0.0,0.0,0.0,0.0,0.0,0.0,0.0,0.0,0.0,0.0,0.0,0.0,0.0,0.0,0.0,0.0,0.0,0.0,0.0,0.0,0.0,0.0,0.5062,0.4791,0.4411,0.4024,0.3799,0.3855,0.0,0.0,0.0,0.0,0.0,0.0,0.0,0.0,0.0,0.0,0.0,0.0,0.0,0.0,0.0,0.0,0.0,0.0,0.0,0.0,0.0,0.0,0.0,0.0,0.0,0.0,0.0,0.0,0.0,0.0,0.0,0.0,0.0,0.0,0.0,0.0,0.0,0.0,0.0,0.0,0.0,0.0,0.0,0.0,0.0,0.0,0.0,0.0,0.0,0.0,0.0,0.0,0.0,0.0,0.0,0.0,0.0,0.0,0.0,0.0,0.0,0.0,0.0,0.0,0.0,0.0,0.0,0.0,0.0,0.0,0.0,0.0,0.0,0.0,0.0,0.0,0.0,0.0,0.0,0.0,0.0,0.0,0.0,0.0,0.0,0.0,0.0,0.0,0.0,0.0,0.0,0.0,0.0,0.0,0.0,0.0,0.0,0.0,0.0,0.0,0.0,0.0,0.0,0.0,0.0,0.0,0.0,0.0,0.4284,0.4122,0.3907,0.3633,0.3524,0.3411,0.0,0.0,0.0,0.0,0.0,0.0,0.0,0.0,0.0,0.0,0.0,0.0,0.0,0.0,0.0,0.0,0.0,0.0,0.0,0.0,0.0,0.0,0.0,0.0,0.0,0.0,0.0,0.0,0.0,0.0,0.0,0.0,0.0,0.0,0.0,0.0,0.0,0.0,0.0,0.0,0.0,0.0,0.0,0.0,0.0,0.0,0.0,0.0,0.0,0.0,0.0,0.0,0.0,0.0,0.0,0.0,0.0,0.0,0.0,0.0,0.0,0.0,0.0,0.0,0.0,0.0,0.0,0.0,0.0,0.0,0.0,0.0,0.0,0.0,0.0,0.0,0.0,0.0,0.0,0.0,0.0,0.0,0.0,0.0,0.0,0.0,0.0,0.0,0.0,0.0,0.0,0.0,0.0,0.0,0.0,0.0,0.0,0.0,0.0,0.0,0.0,0.0,0.0,0.0,0.0,0.0,0.0,0.0,0.0,0.3458,0.3121,0.2878,0.2776,0.2675,0.2655,0.0,0.0,0.0,0.0,0.0,0.0,0.0,0.0,0.0,0.0,0.0,0.0,0.0,0.0,0.0,0.0,0.0,0.0,0.0,0.0,0.0,0.0,0.0,0.0,0.0,0.0,0.0,0.0,0.0,0.0,0.0,0.0,0.0,0.0,0.0,0.0,0.0,0.0,0.0,0.0,0.0,0.0,0.0,0.0,0.0,0.0,0.0,0.0,0.0,0.0,0.0,0.0,0.0,0.0,0.0,0.0,0.0,0.0,0.0,0.0,0.0,0.0,0.0,0.0,0.0,0.0,0.0,0.0,0.0,0.0,0.0,0.0,0.0,0.0,0.0,0.0,0.0,0.0,0.0,0.0,0.0,0.0,0.0,0.0,0.0,0.0,0.0,0.0,0.0,0.0,0.0,0.0,0.0,0.0,0.0,0.0,0.0,0.0,0.0,0.0,0.0,0.0,0.0,0.0,0.0,0.0,0.0,0.0,0.0,0.2817,0.0,0.2168,0.2118,0.2063,0.2104,0.0,0.0,0.0,0.0,0.0,0.0,0.0,0.0,0.0,0.0,0.0,0.0,0.0,0.0,0.0,0.0,0.0,0.0,0.0,0.0,0.0,0.0,0.0,0.0,0.0,0.0,0.0,0.0,0.0,0.0,0.0,0.0,0.0,0.0,0.0,0.0,0.0,0.0,0.0,0.0,0.0,0.0,0.0,0.0,0.0,0.0,0.0,0.0,0.0,0.0,0.0,0.0,0.0,0.0,0.0,0.0,0.0,0.0,0.0,0.0,0.0,0.0,0.0,0.0,0.0,0.0,0.0,0.0,0.0,0.0,0.0,0.0,0.0,0.0,0.0,0.0,0.0,0.0,0.0,0.0,0.0,0.0,0.0,0.0,0.0,0.0,0.0,0.0,0.0,0.0,0.0,0.0,0.0,0.0,0.0,0.0,0.0,0.0,0.0,0.0,0.0,0.0,0.0,0.0,0.0,0.0,0.0,0.0,0.2587,0.2395,0.206,0.1824,0.1668,0.1623,0.1806,0.0,0.0,0.0,0.0,0.0,0.0,0.0,0.0,0.0,0.0,0.0,0.0,0.0,0.0,0.0,0.0,0.0,0.0,0.0,0.0,0.0,0.0,0.0,0.0,0.0,0.0,0.0,0.0,0.0,0.0,0.0,0.0,0.0,0.0,0.0,0.0,0.0,0.0,0.0,0.0,0.0,0.0,0.0,0.0,0.0,0.0,0.0,0.0,0.0,0.0,0.0,0.0,0.0,0.0,0.0,0.0,0.0,0.0,0.0,0.0,0.0,0.0,0.0,0.0,0.0,0.0,0.0,0.0,0.0,0.0,0.0,0.0,0.0,0.0,0.0,0.0,0.0,0.0,0.0,0.0,0.0,0.0,0.0,0.0,0.0,0.0,0.0,0.0,0.0,0.0,0.0,0.0,0.0,0.0,0.0,0.0,0.0,0.0,0.0,0.0,0.0,0.0,0.0,0.0,0.0,0.0,0.0,0.0,0.0,0.128,0.079,0.0524,0.0367,0.0429,0.0497,0.0,0.0,0.0,0.0,0.0,0.0,0.0,0.0,0.0,0.0,0.0,0.0,0.0,0.0,0.0,0.0,0.0,0.0,0.0,0.0,0.0,0.0,0.0,0.0,0.0,0.0,0.0,0.0,0.0,0.0,0.0,0.0,0.0,0.0,0.0,0.0,0.0,0.0,0.0,0.0,0.0,0.0,0.0,0.0,0.0,0.0,0.0,0.0,0.0,0.0,0.0,0.0,0.0,0.0,0.0,0.0,0.0,0.0,0.0,0.0,0.0,0.0,0.0,0.0,0.0,0.0,0.0,0.0,0.0,0.0,0.0,0.0,0.0,0.0,0.0,0.0,0.0,0.0,0.0,0.0,0.0,0.0,0.0,0.0,0.0,0.0,0.0,0.0,0.0,0.0,0.0,0.0,0.0,0.0,0.0,0.0,0.0,0.0,0.0,0.0,0.0,0.0,0.0,0.0,0.0,0.0,0.0,0.0,0.0,-0.0508,-0.0612,-0.0829,-0.1051,-0.1004,-0.0854,-0.0647,0.0,0.0,0.0,0.0,0.0,0.0,0.0,0.0,0.0,0.0,0.0,0.0,0.0,0.0,0.0,0.0,0.0,0.0,0.0,0.0,0.0,0.0,0.0,0.0,0.0,0.0,0.0,0.0,0.0,0.0,0.0,0.0,0.0,0.0,0.0,0.0,0.0,0.0,0.0,0.0,0.0,0.0,0.0,0.0,0.0,0.0,0.0,0.0,0.0,0.0,0.0,0.0,0.0,0.0,0.0,0.0,0.0,0.0,0.0,0.0,0.0,0.0,0.0,0.0,0.0,0.0,0.0,0.0,0.0,0.0,0.0,0.0,0.0,0.0,0.0,0.0,0.0,0.0,0.0,0.0,0.0,0.0,0.0,0.0,0.0,0.0,0.0,0.0,0.0,0.0,0.0,0.0,0.0,0.0,0.0,0.0,0.0,0.0,0.0,0.0,0.0,0.0,0.0,0.0,0.0,0.0,0.0,0.0,-0.2675,-0.2119,-0.209,-0.25,-0.2422,-0.218,0.0,0.0,0.0,0.0,0.0,0.0,0.0,0.0,0.0,0.0,0.0,0.0,0.0,0.0,0.0,0.0,0.0,0.0,0.0,0.0,0.0,0.0,0.0,0.0,0.0,0.0,0.0,0.0,0.0,0.0,0.0,0.0,0.0,0.0,0.0,0.0,0.0,0.0,0.0,0.0,0.0,0.0,0.0,0.0,0.0,0.0,0.0,0.0,0.0,0.0,0.0,0.0,0.0,0.0,0.0,0.0,0.0,0.0,0.0,0.0,0.0,0.0,0.0,0.0,0.0,0.0,0.0,0.0,0.0,0.0,0.0,0.0,0.0,0.0,0.0,0.0,0.0,0.0,0.0,0.0,0.0,0.0,0.0,0.0,0.0,0.0,0.0,0.0,0.0,0.0,0.0,0.0,0.0,0.0,0.0,0.0,0.0,0.0,0.0,0.0,0.0,0.0,0.0,0.0,0.0,0.0,0.0,0.0,0.0,-0.3252,-0.3494,-0.342,-0.309,-0.2875,-0.2711,0.0,0.0,0.0,0.0,0.0,0.0,0.0,0.0,0.0,0.0,0.0,0.0,0.0,0.0,0.0,0.0,0.0,0.0,0.0,0.0,0.0,0.0,0.0,0.0,0.0,0.0,0.0,0.0,0.0,0.0,0.0,0.0,0.0,0.0,0.0,0.0,0.0,0.0,0.0,0.0,0.0,0.0,0.0,0.0,0.0,0.0,0.0,0.0,0.0,0.0,0.0,0.0,0.0,0.0,0.0,0.0,0.0,0.0,0.0,0.0,0.0,0.0,0.0,0.0,0.0,0.0,0.0,0.0,0.0,0.0,0.0,0.0,0.0,0.0,0.0,0.0,0.0,0.0,0.0,0.0,0.0,0.0,0.0,0.0,0.0,0.0,0.0,0.0,0.0,0.0,0.0,0.0,0.0,0.0,0.0,0.0,0.0,0.0,0.0,0.0,0.0,0.0,0.0,0.0,0.0,0.0,0.0,0.0,-0.3362,-0.3772,-0.4424,-0.4603,-0.4329,-0.3776,-0.3409,0.0,0.0,0.0,0.0,0.0,0.0,0.0,0.0,0.0,0.0,0.0,0.0,0.0,0.0,0.0,0.0,0.0,0.0,0.0,0.0,0.0,0.0,0.0,0.0,0.0,0.0,0.0,0.0,0.0,0.0,0.0,0.0,0.0,0.0,0.0,0.0,0.0,0.0,0.0,0.0,0.0,0.0,0.0,0.0,0.0,0.0,0.0,0.0,0.0,0.0,0.0,0.0,0.0,0.0,0.0,0.0,0.0,0.0,0.0,0.0,0.0,0.0,0.0,0.0,0.0,0.0,0.0,0.0,0.0,0.0,0.0,0.0,0.0,0.0,0.0,0.0,0.0,0.0,0.0,0.0,0.0,0.0,0.0,0.0,0.0,0.0,0.0,0.0,0.0,0.0,0.0,0.0,0.0,0.0,0.0,0.0,0.0,0.0,0.0,0.0,0.0,0.0,0.0,0.0,0.0,0.0,0.0,0.0,-0.4017,-0.4352,-0.5063,-0.5535,-0.5773,-0.4891,-0.425,0.0,0.0,0.0,0.0,0.0,0.0,0.0,0.0,0.0,0.0,0.0,0.0,0.0,0.0,0.0,0.0,0.0,0.0,0.0,0.0,0.0,0.0,0.0,0.0,0.0,0.0,0.0,0.0,0.0,0.0,0.0,0.0,0.0,0.0,0.0,0.0,0.0,0.0,0.0,0.0,0.0,0.0,0.0,0.0,0.0,0.0,0.0,0.0,0.0,0.0,0.0,0.0,0.0,0.0,0.0,0.0,0.0,0.0,0.0,0.0,0.0,0.0,0.0,0.0,0.0,0.0,0.0,0.0,0.0,0.0,0.0,0.0,0.0,0.0,0.0,0.0,0.0,0.0,0.0,0.0,0.0,0.0,0.0,0.0,0.0,0.0,0.0,0.0,0.0,0.0,0.0,0.0,0.0,0.0,0.0,0.0,0.0,0.0,0.0,0.0,0.0,0.0,0.0,0.0,0.0,0.0,0.0,0.0,-0.4792,-0.5308,-0.5761,-0.6034,-0.6194,-0.5588,-0.5137,0.0,0.0,0.0,0.0,0.0,0.0,0.0,0.0,0.0,0.0,0.0,0.0,0.0,0.0,0.0,0.0,0.0,0.0,0.0,0.0,0.0,0.0,0.0,0.0,0.0,0.0,0.0,0.0,0.0,0.0,0.0,0.0,0.0,0.0,0.0,0.0,0.0,0.0,0.0,0.0,0.0,0.0,0.0,0.0,0.0,0.0,0.0,0.0,0.1492,0.0,0.0,0.0,0.0,0.0,0.0,0.0,0.0,0.0,0.0,0.0,0.0,0.0,0.0,0.0,0.0,0.0,0.0,0.0,0.0,0.0,0.0,0.0,0.0,0.0,0.0,0.0,0.0,0.0,0.0,0.0,0.0,0.0,0.0,0.0,0.0,0.0,0.0,0.0,0.0,0.0,0.0,0.0,0.0,0.0,0.0,0.0,0.0,0.0,0.0,0.0,0.0,0.0,0.0,0.0,0.0,0.0,0.0,0.0,-0.5296,-0.5837,-0.612,-0.6392,-0.655,-0.6767,-0.6391,0.0,0.0,0.0,0.0,0.0,0.0,0.0,0.0,0.0,0.0,0.0,0.0,0.0,0.0,0.0,0.0,0.0,0.0,0.0,0.0,0.0,0.0,0.0,0.0,0.0,0.0,0.0,0.0,0.0,0.0,0.0,0.0,0.0,0.0,0.0,0.0,0.0,0.0,0.0,0.0,0.0,0.0,0.0,0.0,0.0,0.0,0.0,0.0,0.0,0.0,0.0,0.0,0.0,0.0,0.0,0.0,0.0,0.0,0.0,0.0,0.0,0.0,0.0,0.0,0.0,0.0,0.0,0.0,0.0,0.0,0.0,0.0,0.0,0.0,0.0,0.0,0.0,0.0,0.0,0.0,0.0,0.0,0.0,0.0,0.0,0.0,0.0,0.0,0.0,0.0,0.0,0.0,0.0,0.0,0.0,0.0,0.0,0.0,0.0,0.0,0.0,0.0,0.0,0.0,0.0,0.0,0.0,-0.5073,-0.5608,-0.6251,-0.6402,-0.6612,-0.6881,-0.7853,-0.7566,-0.6082,0.0,0.0,0.0,0.0,0.0,0.0,0.0,0.0,0.0,0.0,0.0,0.0,0.0,0.0,0.0,0.0,0.0,0.0,0.0,0.0,0.0,0.0,0.0,0.0,0.0,0.0,0.0,0.0,0.0,0.0,0.0,0.0,0.0,0.0,0.0,0.0,0.0,0.0,0.1075,0.1094,0.0,0.0,0.0,0.0,0.0,0.0,0.0,0.0,0.0412,0.0,0.0,0.0,0.0,0.0,0.0,0.0,0.0,0.0,0.0,0.0,0.0,0.0,0.0,0.0,0.0,0.0,0.0,0.0,0.0,0.0,0.0,0.0,0.0,0.0,0.0,0.0,0.0,0.0,0.0,0.0,0.0,0.0,0.0,0.0,0.0,0.0,0.0,0.0,0.0,0.0,0.0,0.0,0.0,0.0,0.0,0.0,0.0,0.0,0.0,0.0,0.0,0.0,0.0,0.0,0.0,-0.5329,-0.5619,-0.6125,-0.688,-0.6939,-0.7051,-0.7048,-0.8033,-0.7986,-0.6928,0.0,0.0,0.0,0.0,0.0,0.0,0.0,0.0,0.0,0.0,0.0,0.0,0.0,0.0,0.0,0.0,0.0,0.0,0.0,0.0,0.0,0.0,0.0,0.0,0.0,0.0,0.0,0.0,0.0,0.0,0.0,0.0,0.0,0.0,0.0,0.0,0.0,0.0,0.0,0.049,0.0408,0.0,0.0,0.0,0.0,0.0,0.0,0.0,0.0,0.0174,0.0,0.0,0.0,0.0,0.0,0.0,0.0,0.0,0.0,0.0,0.0,0.0,0.0,0.0,0.0,0.0,0.0,0.0,0.0,0.0,0.0,0.0,0.0,0.0,0.0,0.0,0.0,0.0,0.0,0.0,0.0,0.0,0.0,0.0,0.0,0.0,0.0,0.0,0.0,0.0,0.0,0.0,0.0,0.0,0.0,0.0,0.0,0.0,0.0,0.0,0.0,0.0,0.0,0.0,0.0,-0.5498,-0.6077,-0.6629,-0.7248,-0.7339,-0.738,-0.7373,-0.8208,-0.8247,0.0,0.0,0.0,0.0,0.0,0.0,0.0,0.0,0.0,0.0,0.0,0.0,0.0,0.0,0.0,0.0,0.0,0.0,0.0,0.0,0.0,0.0,0.0,0.0,0.0,0.0,0.0,0.0,0.0,0.0,0.0,0.0,0.0,0.0,0.0,0.0,0.0,0.0,0.0,0.0,-0.0419,-0.0673,-0.0615,0.0,0.0,0.0,0.0,0.0,0.0,-0.1354,-0.0736,0.0,0.0,0.0,0.0,0.0,0.0,0.0,0.0,0.0,0.0,0.0,0.0,0.0,0.0,0.0,0.0,0.0,0.0,0.0,0.0,0.0,0.0,0.0,0.0,0.0,0.0,0.0,0.0,0.0,0.0,0.0,0.0,0.0,0.0,0.0,0.0,0.0,0.0,0.0,0.0,0.0,0.0,0.0,0.0,0.0,0.0,0.0,0.0,0.0,0.0,0.0,0.0,0.0,0.0,0.0,-0.5708,-0.6389,-0.6966,-0.7411,-0.7536,-0.7691,-0.7962,-0.8337,-0.8255,0.0,0.0,0.0,0.0,0.0,0.0,0.0,0.0,0.0,0.0,0.0,0.0,0.0,0.0,0.0,0.0,0.0,0.0,0.0,0.0,0.0,0.0,0.0,0.0,0.0,0.0,0.0,0.0,0.0,0.0,0.0,0.0,0.0,0.0,0.0,0.0,0.0,0.0,0.0,0.0,0.0,-0.1654,-0.1292,-0.1267,0.0,0.0,0.0,0.0,-0.2601,-0.2211,0.0,0.0,0.0,0.0,0.0,0.0,0.0,0.0,0.0,0.0,0.0,0.0,0.0,0.0,0.0,0.0,0.0,0.0,0.0,0.0,0.0,0.0,0.0,0.0,0.0,0.0,0.0,0.0,0.0,0.0,0.0,0.0,0.0,0.0,0.0,0.0,0.0,0.0,0.0,0.0,0.0,0.0,0.0,0.0,0.0,0.0,0.0,0.0,0.0,0.0,0.0,0.0,0.0,0.0,0.0,0.0,-0.6283,-0.6812,-0.7211,-0.7567,-0.759,-0.8067,-0.8987,-0.8324,-0.8135,0.0,0.0,0.0,0.0,0.0,0.0,0.0,0.0,0.0,0.0,0.0,0.0,0.0,0.0,0.0,0.0,0.0,0.0,0.0,0.0,0.0,0.0,0.0,0.0,0.0,0.0,0.0,0.0,0.0,0.0,0.0,0.0,0.0,0.0,0.0,0.0,0.0,0.0,0.0,0.0,0.0,-0.2443,-0.2454,-0.2461,-0.2266,0.0,0.0,-0.3062,-0.3379,-0.3253,0.0,0.0,0.0,0.0,0.0,0.0,0.0,0.0,0.0,0.0,0.0,0.0,0.0,0.0,0.0,0.0,0.0,0.0,0.0,0.0,0.0,0.0,0.0,0.0,0.0,0.0,0.0,0.0,0.0,0.0,0.0,0.0,0.0,0.0,0.0,0.0,0.0,0.0,0.0,0.0,0.0,0.0,0.0,0.0,0.0,0.0,0.0,0.0,0.0,0.0,0.0,0.0,0.0,0.0,0.0,-0.625,-0.7435,-0.8102,-0.8769,-0.9411,-0.961,-0.9953,-1.0523,-0.9677,-0.9225,0.0,0.0,0.0,0.0,0.0,0.0,0.0,0.0,0.0,0.0,0.0,0.0,0.0,0.0,0.0,0.0,0.0,0.0,0.0,0.0,0.0,0.0,0.0,0.0,0.0,0.0,0.0,0.0,0.0,0.0,0.0,0.0,0.0,0.0,0.0,0.0,0.0,0.0,0.0,0.0,0.0,0.0,-0.3085,-0.3034,0.0,0.0,0.0,-0.3354,-0.338,0.0,0.0,0.0,0.0,0.0,0.0,0.0,0.0,0.0,0.0,0.0,0.0,0.0,0.0,0.0,0.0,0.0,0.0,0.0,0.0,0.0,0.0,0.0,0.0,0.0,0.0,0.0,0.0,0.0,0.0,0.0,0.0,0.0,0.0,0.0,0.0,0.0,0.0,0.0,0.0,0.0,0.0,0.0,0.0,0.0,0.0,0.0,0.0,0.0,0.0,0.0,0.0,0.0,0.0,0.0,0.0,0.0,-0.848,-0.9522,-1.0359,-1.1029,-1.1284,-1.156,-1.2042,-1.1179,0.0,0.0,0.0,0.0,0.0,0.0,0.0,0.0,0.0,0.0,0.0,0.0,0.0,0.0,0.0,0.0,0.0,0.0,0.0,0.0,0.0,0.0,0.0,0.0,0.0,0.0,0.0,-0.2508,0.0,0.0,0.0,0.0,0.0,0.0,0.0,0.0,0.0,0.0,0.0,0.0,0.0,0.0,-0.3428,-0.376,-0.374,-0.3688,0.0,0.0,-0.3745,-0.3604,-0.3634,-0.3679,0.0,0.0,0.0,0.0,0.0,0.0,0.0,0.0,0.0,0.0,0.0,0.0,0.0,0.0,0.0,0.0,0.0,0.0,0.0,0.0,0.0,0.0,0.0,0.0,0.0,0.0,0.0,0.0,0.0,0.0,0.0,0.0,0.0,0.0,0.0,0.0,0.0,0.0,0.0,0.0,0.0,0.0,0.0,0.0,0.0,0.0,0.0,0.0,0.0,0.0,0.0,0.0,0.0,0.0,0.0,-0.8952,-1.0815,-1.1628,-1.1541,-1.1745,-1.2339,-1.3307,-1.2445,-1.1854,0.0,0.0,0.0,0.0,0.0,0.0,0.0,0.0,0.0,0.0,0.0,0.0,0.0,0.0,0.0,0.0,0.0,0.0,0.0,0.0,0.0,0.0,0.0,0.0,0.0,0.0,0.0,0.0,0.0,0.0,0.0,0.0,0.0,0.0,0.0,0.0,0.0,0.0,0.0,0.0,0.0,-0.4356,-0.4517,-0.4611,-0.4583,0.0,0.0,-0.4583,-0.4629,-0.4954,-0.507,-0.4528,0.0,0.0,0.0,0.0,0.0,0.0,0.0,0.0,0.0,0.0,0.0,0.0,0.0,0.0,0.0,0.0,0.0,0.0,0.0,0.0,0.0,0.0,0.0,0.0,0.0,0.0,0.0,0.0,0.0,0.0,0.0,0.0,0.0,0.0,0.0,0.0,0.0,0.0,0.0,0.0,0.0,0.0,0.0,0.0,0.0,0.0,0.0,0.0,0.0,0.0,0.0,0.0,0.0,-0.8182,-0.9414,-1.1125,-1.2242,-1.2732,-1.3511,-1.4196,-1.4765,-1.393,-1.3182,0.0,0.0,0.0,0.0,0.0,0.0,0.0,0.0,0.0,0.0,0.0,0.0,0.0,0.0,0.0,0.0,0.0,0.0,0.0,0.0,0.0,0.0,0.0,0.0,0.0,0.0,0.0,0.0,-0.406,-0.3933,-0.3571,0.0,0.0,0.0,0.0,0.0,0.0,0.0,0.0,0.0,0.0,-0.4748,-0.5131,-0.5237,0.0,0.0,-0.5208,-0.539,-0.5574,-0.5387,-0.505,-0.4848,-0.4588,0.0,0.0,0.0,0.0,0.0,0.0,0.0,0.0,0.0,0.0,0.0,0.0,0.0,0.0,0.0,0.0,0.0,0.0,0.0,0.0,0.0,0.0,0.0,0.0,0.0,0.0,0.0,0.0,0.0,0.0,0.0,0.0,0.0,0.0,0.0,0.0,0.0,0.0,0.0,0.0,0.0,0.0,0.0,0.0,0.0,0.0,0.0,0.0,0.0,0.0,0.0,0.0,-0.8928,-1.0279,-1.2154,-1.3409,-1.4088,-1.4873,-1.5363,-1.554,-1.5074,-1.4425,0.0,0.0,0.0,0.0,0.0,0.0,0.0,0.0,0.0,0.0,0.0,0.0,0.0,0.0,0.0,0.0,0.0,0.0,0.0,0.0,0.0,0.0,0.0,0.0,0.0,0.0,0.0,0.0,-0.4521,-0.4416,-0.3974,0.0,0.0,0.0,0.0,0.0,0.0,0.0,0.0,0.0,0.0,-0.5373,-0.5824,-0.5908,-0.5845,-0.5845,-0.5819,-0.5915,-0.6148,-0.5809,-0.5422,-0.5379,0.0,0.0,0.0,0.0,0.0,0.0,0.0,0.0,0.0,0.0,0.0,0.0,0.0,0.0,0.0,0.0,0.0,0.0,0.0,0.0,0.0,0.0,0.0,0.0,0.0,0.0,0.0,0.0,0.0,0.0,-0.7654,0.0,0.0,0.0,0.0,0.0,0.0,0.0,0.0,0.0,0.0,0.0,0.0,0.0,0.0,0.0,0.0,0.0,0.0,0.0,0.0,0.0,0.0,-1.1002,-1.1585,-1.421,-1.554,-1.5445,-1.5635,-1.5825,-1.5825,-1.5818,-1.5358,-1.4424,0.0,0.0,0.0,0.0,0.0,0.0,0.0,0.0,0.0,0.0,0.0,0.0,0.0,0.0,0.0,0.0,0.0,0.0,0.0,0.0,0.0,0.0,0.0,0.0,0.0,0.0,-0.487,-0.4515,-0.4318,0.0,0.0,0.0,0.0,0.0,0.0,0.0,0.0,0.0,0.0,-0.6055,-0.6366,-0.6373,-0.6376,-0.6592,-0.7029,-0.661,-0.6223,-0.6411,-0.6456,-0.6487,0.0,0.0,0.0,0.0,0.0,0.0,0.0,0.0,0.0,0.0,0.0,0.0,0.0,0.0,0.0,0.0,0.0,0.0,0.0,0.0,0.0,0.0,0.0,0.0,0.0,0.0,0.0,-1.1277,-1.1383,0.0,0.0,0.0,0.0,0.0,0.0,0.0,0.0,0.0,0.0,0.0,-1.2785,-1.2595,0.0,0.0,0.0,0.0,0.0,0.0,0.0,0.0,0.0,0.0,0.0,0.0,-1.0176,-1.1089,-1.3466,-1.4777,-1.4682,-1.5445,-1.5825,-1.5825,-1.6028,-1.5651,-1.4694,0.0,0.0,0.0,0.0,0.0,0.0,0.0,0.0,0.0,0.0,0.0,0.0,0.0,0.0,0.0,0.0,0.0,0.0,0.0,0.0,0.0,0.0,0.0,0.0,0.0,-0.5579,0.0,0.0,0.0,0.0,0.0,0.0,0.0,0.0,0.0,0.0,0.0,-0.5654,-0.5974,-0.6197,-0.6399,-0.6685,-0.6626,-0.6631,0.0,0.0,0.0,0.0,0.0,0.0,0.0,0.0,0.0,0.0,0.0,0.0,0.0,0.0,-0.6409,-0.6284,-0.6332,-0.6482,-0.6482,0.0,0.0,0.0,0.0,0.0,0.0,0.0,0.0,0.0,0.0,0.0,0.0,0.0,0.0,-1.3476,0.0,-1.3302,0.0,0.0,0.0,0.0,0.0,0.0,0.0,0.0,-1.3293,-1.398,-1.4419,-1.4296,-1.4118,0.0,-1.3561,-1.2434,0.0,0.0,0.0,0.0,0.0,0.0,0.0,0.0,-1.0877,-1.1728,-1.389,-1.4975,-1.4968,-1.5642,-1.6021,-1.6116,-1.6211,-1.6026,-1.5447,-1.4774,-1.386,0.0,0.0,0.0,0.0,0.0,0.0,0.0,0.0,0.0,0.0,0.0,0.0,0.0,0.0,0.0,0.0,0.0,0.0,0.0,0.0,0.0,0.0,0.0,-0.6853,0.0,0.0,0.0,0.0,0.0,0.0,0.0,0.0,0.0,-0.5802,-0.5927,-0.6266,-0.6556,-0.6513,-0.654,-0.6738,0.0,0.0,0.0,0.0,0.0,0.0,0.0,-0.6515,-0.6544,-0.6648,-0.6721,-0.6962,-0.7211,-0.7375,-0.7375,0.0,0.0,-0.7,-0.7016,-0.7093,-0.7143,-0.7249,-0.7265,-0.7309,-0.7425,-0.7652,0.0,0.0,0.0,0.0,0.0,0.0,0.0,0.0,-1.5303,-1.523,0.0,-1.5794,0.0,0.0,0.0,0.0,0.0,-1.2505,0.0,0.0,-1.5436,-1.5966,-1.5789,-1.5768,-1.5775,-1.5658,-1.474,-1.4291,-1.4159,-1.3114,0.0,0.0,0.0,0.0,0.0,0.0,-1.2999,-1.3655,-1.5305,-1.6218,-1.6224,-1.6224,-1.6312,-1.6588,-1.6581,-1.6581,-1.656,-1.5917,-1.5232,-1.4821,-1.3009,0.0,0.0,0.0,0.0,0.0,0.0,0.0,0.0,0.0,0.0,0.0,0.0,0.0,0.0,0.0,0.0,0.0,0.0,0.0,0.0,-0.8438,0.0,0.0,0.0,0.0,0.0,0.0,0.0,0.0,0.0,0.0,-0.6751,-0.698,-0.7082,-0.7194,0.0,0.0,0.0,0.0,-0.6706,-0.6287,-0.6339,-0.6465,-0.6745,-0.6804,-0.7041,-0.7401,0.0,0.0,-0.7696,-0.7657,-0.7685,-0.7878,-0.822,-0.8175,-0.7563,-0.7406,-0.7443,-0.7667,-0.7704,-0.7729,-0.7852,-0.8207,-0.8422,-1.759,0.0,0.0,0.0,0.0,-1.5744,-1.6624,-1.8021,-1.8278,-1.8441,-1.8359,-1.7665,0.0,0.0,0.0,0.0,0.0,0.0,-1.4615,-1.5561,-1.6138,-1.6571,-1.687,-1.687,-1.687,-1.6863,-1.6591,-1.633,-1.6239,-1.5958,-1.4429,-1.156,0.0,0.0,0.0,0.0,-1.3703,-1.4639,-1.5862,-1.6494,-1.6494,-1.6494,-1.6588,-1.6878,-1.6878,-1.6972,-1.7138,-1.6872,-1.6387,-1.5507,-1.481,0.0,0.0,0.0,0.0,0.0,0.0,0.0,0.0,0.0,0.0,0.0,0.0,0.0,0.0,0.0,0.0,0.0,0.0,0.0,-0.8419,-0.9626,-0.9872,0.0,0.0,0.0,0.0,0.0,0.0,0.0,0.0,0.0,-0.7905,-0.7496,-0.7355,0.0,0.0,-0.7079,-0.7006,-0.7131,-0.7193,-0.72,-0.7062,0.0,0.0,-0.7406,-0.7404,-0.7528,-0.7801,-0.8097,-0.8129,-0.8458,-0.8786,-0.8783,-0.8947,-0.903,-0.8811,-0.8775,-0.8782,-0.8831,-0.8838,-0.8848,-0.8894,-0.9134,-0.9231,-2.145,-1.9847,-1.8504,-1.8004,-1.8233,-1.8395,-1.9261,-2.0605,-2.0771,-2.083,-2.0755,-1.9843,-1.8504,-1.679,-1.5124,0.0,0.0,0.0,-1.5893,-1.6784,-1.6784,-1.6965,-1.7326,-1.7426,-1.7426,-1.7333,-1.7333,-1.7239,-1.716,-1.703,-1.6021,-1.4071,0.0,0.0,-1.3302,-1.3999,-1.4724,-1.5479,-1.6337,-1.6777,-1.6777,-1.6864,-1.6958,-1.7059,-1.7153,-1.7153,-1.7333,-1.7333,-1.7065,-1.6414,-1.5894,-1.4984,0.0,0.0,0.0,0.0,0.0,0.0,0.0,0.0,0.0,0.0,0.0,-0.9149,0.0,0.0,0.0,0.0,-0.9846,-0.9931,-1.0801,-1.1211,0.0,0.0,0.0,0.0,0.0,0.0,0.0,-0.8648,-0.8897,-0.8858,-0.835,-0.8004,-0.7852,-0.7805,-0.7635,-0.7458,-0.7409,0.0,-0.7519,-0.7635,-0.751,-0.7567,-0.7849,-0.7842,-0.7812,-0.7984,-0.8355,-0.8669,-0.8676,-0.8974,-0.9235,-0.9259,-0.9367,-0.9473,-0.9473,-0.9517,-0.9534,-0.9483,-0.9473,-0.949,-0.954,-0.9632,-0.9693,-2.4454,-2.3995,-2.0404,-1.9615,-2.0677,-2.0697,-2.1419,-2.2716,-2.2654,-2.2551,-2.2294,-2.2005,-2.0798,-1.8915,-1.7032,0.0,-1.6883,-1.6714,-1.7048,-1.7714,-1.752,-1.7326,-1.7333,-1.7628,-1.7621,-1.7333,-1.7326,-1.7326,-1.7318,-1.6856,-1.6726,-1.697,-1.6332,-1.5669,-1.5186,-1.5532,-1.5915,-1.6211,-1.6693,-1.7044,-1.7073,-1.7246,-1.7326,-1.7333,-1.7333,-1.7333,-1.7326,-1.7326,-1.7326,-1.7311,-1.6505,-1.5899,-1.58,0.0,0.0,0.0,0.0,0.0,0.0,0.0,0.0,0.0,0.0,0.0,0.0,0.0,0.0,0.0,-1.2571,0.0,-1.4157,-1.3073,0.0,0.0,0.0,-1.1165,-1.1472,-1.0551,-0.9959,-0.9937,0.0,0.0,-0.8409,-0.8418,-0.8451,-0.8389,-0.8167,-0.7889,-0.7771,-0.7852,-0.7908,-0.7796,-0.7784,-0.7896,-0.8146,-0.8252,-0.8494,-0.8836,-0.9076,-0.9157,-0.9171,-0.9289,-0.9388,-0.9398,-0.9523,-0.9625,-0.9625,-0.972,-0.9781,-0.9768,-0.9625,-0.9666,-0.9771,-0.9805,-0.9808,-2.5031,-2.4882,-2.3916,-2.333,-2.2962,-2.2962,-2.3153,-2.3529,-2.3529,-2.3443,-2.3358,-2.2563,-2.1165,-1.9312,-1.8881,-1.8316,-1.7751,-1.7758,-1.7834,-1.7986,-1.79,-1.7893,-1.79,-1.7986,-1.7994,-1.7893,-1.79,-1.79,-1.7893,-1.7817,-1.778,-1.7772,-1.7612,-1.71,-1.6103,-1.5991,-1.6178,-1.6668,-1.7029,-1.7375,-1.78,-1.7714,-1.7721,-1.79,-1.7714,-1.7714,-1.7893,-1.79,-1.79,-1.7893,-1.7657,-1.6887,-1.5589,-1.4819,0.0,0.0,0.0,0.0,0.0,0.0,0.0,0.0,0.0,-1.0853,-1.0622,0.0,-1.2464,0.0,-1.4213,-1.443,-1.3378,-1.3609,0.0,0.0,-1.2754,-1.248,-1.2718,-1.2993,-1.2718,-1.115,-1.1214,-1.0699,-0.9129,-0.8742,-0.8716,-0.8749,-0.8575,-0.8309,-0.8282,-0.8401,-0.8484,-0.8461,-0.8534,-0.8613,-0.8732,-0.8828,-0.9067,-0.9113,-0.9225,-0.9327,-0.9327,-0.9452,-0.9554,-0.9564,-0.9673,-0.9878,-1.0127,-1.0165,-1.0293,-1.0382,-1.0134,-0.9781,-0.9815,-0.9819,-0.9819,-2.52,-2.52,-2.52,-2.4861,-2.4433,-2.4433,-2.4433,-2.4433,-2.4433,-2.4433,-2.4348,-2.3454,-2.2199,-2.0863,-2.0683,-2.015,-1.9247,-1.8988,-1.8635,-1.828,-1.8179,-1.8087,-1.8087,-1.8187,-1.8264,-1.8308,-1.8402,-1.8479,-1.8537,-1.8537,-1.8632,-1.8727,-1.8632,-1.8176,-1.7576,-1.7152,-1.7076,-1.7437,-1.768,-1.8014,-1.8522,-1.8346,-1.8278,-1.8315,-1.8077,-1.7925,-1.7865,-1.7804,-1.7727,-1.7652,-1.7774,-1.7409,-1.6414,-1.5832,-1.4871,0.0,0.0,0.0,0.0,0.0,0.0,0.0,0.0,0.0,0.0,0.0,-1.359,-1.409,-1.4932,-1.507,-1.4002,-1.4419,-1.4779,-1.4648,-1.4412,-1.4424,-1.4783,-1.4734,-1.419,-1.2926,-1.2699,-1.2024,-1.0205,-0.9992,-0.981,-0.9364,-0.9226,-0.9004,-0.8689,-0.876,-0.8811,-0.8815,-0.8882,-0.8937,-0.8937,-0.9067,-0.9208,-0.9205,-0.9337,-0.9483,-0.9486,-0.9605,-0.9703,-0.9827,-1.0009,-1.0061,-1.0429,-1.0547,-1.0547,-1.0668,-1.0547,-1.0304,-1.0183,-1.0183,-1.0304,-2.5456,-2.5466,-2.5466,-2.5466,-2.5466,-2.5466,-2.5391,-2.52,-2.52,-2.52,-2.5105,-2.4317,-2.3424,-2.2532,-2.2375,-2.1756,-2.0863,-2.0331,-1.9654,-1.8899,-1.8613,-1.845,-1.8582,-1.8792,-1.895,-1.8938,-1.9225,-1.9374,-1.938,-1.9396,-1.9486,-1.9681,-1.9396,-1.9241,-1.9129,-1.8636,-1.8256,-1.8187,-1.8563,-1.8893,-1.9282,-1.9251,-1.909,-1.8789,-1.845,-1.8126,-1.7841,-1.7718,-1.757,-1.7313,-1.7566,-1.7742,-1.7788,-1.6764,-1.6197,0.0,-1.4649,0.0,0.0,0.0,0.0,0.0,0.0,0.0,0.0,-1.414,-1.4548,-1.4844,-1.5285,-1.5505,-1.5327,-1.533,-1.5589,-1.6025,-1.6062,-1.626,-1.6592,-1.5873,-1.512,-1.4685,-1.403,-1.2945,-1.1638,-1.1647,-1.1324,-1.0574,-1.0123,-0.9892,-0.9364,-0.9144,-0.893,-0.8937,-0.8937,-0.9058,-0.9106,-0.9201,-0.934,-0.9384,-0.9683,-0.9748,-0.9755,-0.9854,-1.0061,-1.0301,-1.0422,-1.0425,-1.0789,-1.091,-1.091,-1.0914,-1.0914,-1.091,-1.0789,-1.0789,-1.0793,-2.6955,-2.6856,-2.6867,-2.6944,-2.6867,-2.6867,-2.6249,-2.52,-2.52,-2.52,-2.52,-2.5031,-2.4413,-2.3521,-2.3444,-2.2989,-2.1994,-2.132,-2.1148,-2.1257,-2.0627,-2.0533,-2.0819,-2.0923,-2.0965,-2.0929,-2.1033,-2.1066,-2.1046,-2.1046,-2.0845,-2.0467,-2.0467,-2.0136,-1.9765,0.0,0.0,0.0,-1.9256,-1.9812,-2.0071,-1.9798,-1.9708,-1.9808,-1.9281,0.0,-1.9206,-1.9232,-1.9092,-1.8803,-1.8867,0.0,0.0,0.0,0.0,0.0,0.0,0.0,0.0,0.0,0.0,0.0,-1.4543,-1.4394,-1.3951,-1.4722,-1.5355,-1.567,-1.5975,-1.6251,-1.6411,-1.6392,-1.6491,-1.6542,-1.6542,-1.6567,-1.673,-1.6511,-1.598,-1.5007,-1.4793,-1.4245,-1.3161,-1.2945,-1.2837,-1.2512,-1.1755,-1.1219,-1.1,-1.0029,-0.9265,-0.894,-0.9172,-0.9325,-0.943,-0.9838,-1.0131,-1.0329,-1.0491,-1.0488,-1.0499,-1.0517,-1.0547,-1.0668,-1.0668,-1.0789,-1.1152,-1.1148,-1.1273,-1.1526,-1.1651,-1.1405,-1.091,-1.0789,-1.0793,-2.7315,0.0,-2.7315,-2.7315,0.0,-2.7315,-2.6867,-2.6239,-2.6239,-2.6228,-2.6239,-2.6239,-2.5968,-2.5522,-2.5434,-2.4886,-2.3969,-2.3442,-2.2831,-2.2204,-2.1942,-2.169,-2.1518,-2.1518,-2.1612,-2.1784,-2.1793,-2.179,-2.1961,-2.197,-2.188,-2.1576,-2.1584,-2.1477,-2.1164,-2.1172,-2.0598,-1.9502,-1.994,-2.0408,-2.0974,-2.081,-2.0825,-2.1013,0.0,0.0,0.0,0.0,0.0,0.0,0.0,0.0,0.0,0.0,0.0,-1.9338,-1.9313,-1.8645,-1.7348,-1.7095,-1.6737,-1.5859,-1.5821,-1.5682,-1.5208,-1.5713,-1.611,-1.6298,-1.6612,-1.6768,-1.6929,-1.7054,-1.716,-1.7153,-1.7153,-1.716,-1.716,-1.716,-1.6842,-1.6305,-1.6193,-1.5755,-1.4572,-1.4454,-1.4024,-1.3058,-1.2304,-1.1869,-1.1651,-1.0574,-0.9507,-0.9468,-0.9658,-0.982,-0.9916,-1.0266,-1.0517,-1.0576,-1.0685,-1.0778,-1.0793,-1.0793,-1.0785,-1.1031,-1.1031,-1.1156,-1.1522,-1.1522,-1.1643,-1.1772,-1.1776,-1.1772,-1.1405,-1.1281,-1.1281,-2.7655,-2.7655,-2.7645,-2.7733,-2.7833,-2.7833,-2.7833,-2.7822,0.0,0.0,0.0,-2.7492,-2.7492,-2.7403,-2.7227,-2.6761,-2.6024,-2.5552,-2.468,-2.3373,-2.3091,-2.2673,-2.2188,-2.2014,-2.217,-2.2351,-2.236,-2.2516,-2.282,-2.2837,-2.2728,-2.2627,-2.2627,-2.2619,-2.2526,-2.2526,-2.1971,-2.0797,-2.0788,-2.1219,-2.1912,-2.187,-2.1979,-2.2158,-2.1812,-2.1466,-2.1249,-2.1129,-2.0954,-2.0672,-2.0957,-2.1062,-2.1028,-2.1033,-2.1004,-2.0992,-2.1029,-2.0411,-1.8835,-1.878,-1.8224,-1.6922,-1.6836,-1.674,-1.6406,-1.6622,-1.6762,-1.6842,-1.7067,-1.7272,-1.7285,-1.7483,-1.7589,-1.7589,-1.7589,-1.7589,-1.7589,-1.7589,-1.7477,-1.7384,-1.7371,-1.7153,-1.598,-1.5974,-1.5535,-1.3814,-1.3383,-1.2871,-1.2351,-1.1181,-1.0369,-1.0502,-1.0366,-1.028,-1.042,-1.0684,-1.0707,-1.0875,-1.0955,-1.1027,-1.1031,-1.1035,-1.1035,-1.1398,-1.1394,-1.1518,-1.1772,-1.1772,-1.1776,-1.1776,-1.1776,-1.1776,-1.1776,-1.1805,-1.1829,-2.8815,-2.9192,-2.9192,-2.9466,-2.9817,-2.9817,-2.9829,-2.9659,-2.8476,-2.7766,-2.7315,-2.8192,-2.8377,-2.8029,-2.7942,-2.7854,-2.7668,-2.6662,-2.6152,-2.6259,-2.4951,-2.4574,-2.4723,-2.4165,-2.3808,-2.3863,-2.3854,-2.389,-2.3945,-2.3954,-2.3737,-2.3229,-2.3229,-2.2929,-2.2526,-2.2526,-2.24,-2.2257,-2.2441,-2.2567,-2.2719,-2.2624,-2.2637,-2.2664,-2.2302,-2.2064,-2.1993,-2.2043,-2.1922,-2.1742,-2.1691,-2.1961,-2.2452,-2.2523,-2.2886,-2.3573,-2.3646,-2.2763,-2.0726,-2.0578,-1.9701,-1.7674,-1.7477,-1.7246,-1.6679,-1.6948,-1.7093,-1.7179,-1.7378,-1.7582,-1.7582,-1.7582,-1.7589,-1.7589,-1.7589,-1.7589,-1.7589,-1.7589,-1.7589,-1.7589,-1.7582,-1.7582,-1.7265,-1.7259,-1.7147,-1.6717,-1.5565,-1.5087,-1.4192,-1.2677,-1.1768,-1.1697,-1.1175,-1.091,-1.1196,-1.1264,-1.1491,-1.1623,-1.1631,-1.153,-1.1526,-1.1526,-1.1651,-1.1772,-1.1768,-1.1889,-1.1893,-1.1776,-1.1893,-1.1893,-1.1901,-1.1792,-1.1801,-1.1902,-1.2,-2.9669,-2.9852,-2.9852,-3.0034,-3.0216,-3.0216,-3.0216,-3.0181,-2.9823,-2.9361,-2.8981,-2.9349,-2.945,-2.9272,-2.9272,-2.9272,-2.9183,-2.8611,-2.7995,-2.7274,-2.6617,-2.5882,-2.5099,-2.4726,-2.4538,-2.435,-2.4341,-2.4341,-2.4341,-2.435,-2.4242,-2.4134,-2.4026,-2.3737,-2.3447,-2.3438,-2.3438,-2.3438,-2.2929,-2.2828,-2.312,-2.307,-2.318,-2.3583,-2.3392,-2.3293,-2.3302,-2.3293,-2.3205,-2.3116,-2.3107,-2.3295,-2.3546,-2.3564,-2.3754,-2.4143,-2.4161,-2.3229,-2.1089,-1.9753,-1.8722,-1.7687,-1.7589,-1.7477,-1.7265,-1.7279,-1.7391,-1.7378,-1.7589,-1.7589,-1.7589,-1.7589,-1.7589,-1.7589,-1.7589,-1.7589,-1.7589,-1.7589,-1.7589,-1.7589,-1.7589,-1.7589,-1.7589,-1.7589,-1.7259,-1.6836,-1.6291,-1.5999,-1.5939,-1.5219,-1.4458,-1.3984,-1.3538,-1.3403,-1.349,-1.3053,-1.2755,-1.2848,-1.2251,-1.1897,-1.1776,-1.1776,-1.1897,-1.1897,-1.2371,-1.2724,-1.284,-1.284,-1.284,-1.2733,-1.2222,-1.202,-1.1939,-1.2121,-1.2272,-3.0306,-3.0385,-3.0397,-3.0397,-3.0578,-3.0578,-3.0487,-3.0578,-3.0937,-3.0847,-3.0578,-3.0578,-3.0487,-3.0397,-3.0397,-3.0397,-3.0318,-3.0216,-2.9463,-2.8247,-2.8049,-2.7115,-2.5596,-2.5304,-2.502,-2.4627,-2.4637,-2.4627,-2.4627,-2.4627,-2.4637,-2.4833,-2.4726,-2.4538,-2.435,-2.4341,-2.435,-2.435,-2.3538,-2.3229,-2.3529,-2.3538,-2.3746,-2.4152,-2.4152,-2.4161,-2.4161,-2.4161,-2.4161,-2.4161,-2.4161,-2.4161,-2.4152,-2.4251,-2.4251,-2.4251,-2.4341,-2.3529,-2.1591,-1.9406,-1.8067,-1.8087,-1.785,-1.7745,-1.7786,-1.7793,-1.7694,-1.7589,-1.7589,-1.7589,-1.7589,-1.7589,-1.7589,-1.7589,-1.7589,-1.7589,-1.7589,-1.7589,-1.7589,-1.7589,-1.7589,-1.7589,-1.7589,-1.7589,-1.7298,-1.6744,-1.6665,-1.7067,-1.7446,-1.7563,-1.7147,-1.6443,-1.5831,-1.5305,-1.5537,-1.4421,-1.3842,-1.4028,-1.308,-1.2724,-1.2728,-1.2728,-1.2728,-1.2964,-1.3555,-1.4023,-1.4143,-1.4143,-1.4143,-1.4038,-1.3574,-1.3141,-1.3265,-1.3469,-1.314,-3.0499,-3.0769,-3.0847,-3.1128,-3.1484,-3.156,-3.1484,-3.1572,-3.1572,-3.1572,-3.1484,-3.1572,-3.1306,-3.0859,-3.0859,-3.0859,-3.0769,-3.0397,-3.0114,-2.9829,-2.9279,-2.833,-2.7305,-2.6628,-2.5771,-2.502,-2.4932,-2.4843,-2.4843,-2.4833,-2.4833,-2.4941,-2.4843,-2.4833,-2.4833,-2.4833,-2.4833,-2.4843,-2.4735,-2.4538,-2.4152,-2.4152,-2.4143,-2.4152,-2.4152,-2.4161,-2.4251,-2.4161,-2.4152,-2.4161,-2.4251,-2.426,-2.4251,-2.4332,-2.444,-2.4538,-2.4637,-2.4322,-2.3085,-2.0921,-1.9596,-1.9693,-1.8661,-1.8137,-1.8297,-1.8338,-1.8128,-1.7799,-1.7589,-1.7589,-1.7589,-1.7589,-1.7589,-1.7589,-1.7589,-1.7589,-1.7589,-1.7589,-1.7589,-1.7589,-1.7687,-1.7589,-1.7687,-1.7714,-1.7722,-1.78,-1.8092,-1.8552,-1.8717,-1.8902,-1.9034,-1.8571,-1.7241,-1.5937,-1.5671,-1.4594,-1.4495,-1.509,-1.4381,-1.4028,-1.4505,-1.4862,-1.5219,-1.4505,-1.5213,-1.5332,-1.5451,-1.5451,-1.5456,-1.5536,-1.5461,-1.5575,-1.6039,-1.6092,-1.5223,-3.1205,-3.1395,-3.1395,-3.1484,-3.1661,-3.1661,-3.1661,-3.1661,-3.1661,-3.1661,-3.1661,-3.1661,-3.1572,-3.1395,-3.1395,-3.1395,-3.1395,-3.1217,-3.0746,-3.0193,-2.9897,-2.9257,-2.8226,-2.7284,-2.6522,-2.5974,-2.5411,-2.5137,-2.5137,-2.5333,-2.5333,-2.5137,-2.5137,-2.5039,-2.4941,-2.4941,-2.4941,-2.4941,-2.4941,-2.4833,-2.4646,-2.4637,-2.4637,-2.4637,-2.4646,-2.4637,-2.4646,-2.4637,-2.4646,-2.4646,-2.4637,-2.4646,-2.4646,-2.4735,-2.4735,-2.4726,-2.4214,-2.38,-2.3294,-2.1301,-2.0069,-2.0025,-1.9074,-1.8455,-1.8401,-1.8429,-1.8325,-1.8108,-1.7891,-1.7786,-1.7799,-1.7687,-1.7589,-1.7589,-1.7589,-1.7589,-1.7589,-1.7589,-1.7687,-1.7799,-1.7813,-1.7911,-1.803,-1.8266,-1.8576,-1.8982,-1.9241,-1.9419,-1.9711,-1.9862,-1.9917,-1.9809,-1.8951,-1.8364,-1.7812,-1.6762,-1.6402,-1.6295,-1.5698,-1.5213,-1.5451,-1.5569,-1.5569,-1.5688,-1.6273,-1.6744,-1.6744,-1.6762,-1.6779,-1.6833,-1.6597,-1.6561,-1.6892,-1.6824,-1.6188,-3.2101,-3.1925,-3.1749,-3.1661,-3.1661,-3.1661,-3.1661,-3.1661,-3.1661,-3.1661,-3.1661,-3.1661,-3.1661,-3.1661,-3.1661,-3.1661,-3.1661,-3.1661,-3.1282,-3.0644,-3.0633,-3.0079,-2.9143,-2.8402,-2.7746,-2.7295,-2.6638,-2.6071,-2.5897,-2.5732,-2.5635,-2.544,-2.543,-2.5333,-2.5137,-2.5128,-2.5128,-2.5128,-2.5137,-2.5128,-2.5137,-2.5128,-2.5039,-2.4932,-2.4941,-2.4941,-2.4941,-2.4941,-2.4941,-2.4941,-2.4941,-2.4941,-2.4941,-2.4932,-2.5039,-2.503,-2.4313,-2.3908,-2.3899,-2.2447,-2.141,-2.1009,-1.9755,-1.892,-1.8991,-1.884,-1.8632,-1.8632,-1.8415,-1.8213,-1.8115,-1.7905,-1.7793,-1.7793,-1.7793,-1.7793,-1.7786,-1.7793,-1.7898,-1.801,-1.8128,-1.8204,-1.8547,-1.8833,-1.9332,-1.9682,-1.9871,-1.999,-2.0207,-2.027,-2.027,-2.027,-2.027,-2.0046,-1.9591,-1.8415,-1.7966,-1.7966,-1.7232,-1.6626,-1.675,-1.6868,-1.6979,-1.7917,-1.804,-1.8169,-1.8415,-1.8434,-1.8414,-1.8626,-1.8489,-1.8069,-1.8806,-1.8495,-1.8506,-3.3215,-3.2537,-3.1937,-3.1661,-3.1661,-3.1661,-3.1661,-3.1661,-3.1761,-3.1661,-3.1749,-3.1749,-3.1661,-3.1749,-3.1761,-3.1661,-3.1661,-3.1661,-3.1661,-3.1572,-3.1572,-3.1104,-3.017,-3.0068,-2.9521,-2.868,-2.8402,-2.7934,-2.7094,-2.6187,-2.5732,-2.5732,-2.5732,-2.5723,-2.5723,-2.5635,-2.5635,-2.5635,-2.5645,-2.5635,-2.5635,-2.5645,-2.544,-2.5039,-2.4941,-2.4941,-2.4941,-2.4941,-2.4941,-2.4941,-2.4941,-2.4941,-2.4932,-2.5137,-2.544,-2.5538,-2.5342,-2.5235,-2.543,-2.4865,-2.4248,-2.3529,-2.107,-1.9704,-2.0436,-1.9672,-1.9168,-1.9272,-1.8966,-1.875,-1.8429,-1.8318,-1.8318,-1.8318,-1.8318,-1.8311,-1.8192,-1.8206,-1.8311,-1.8331,-1.8387,-1.873,-1.8898,-1.9403,-1.9696,-1.9984,-2.0067,-2.0357,-2.0364,-2.0385,-2.0385,-2.0385,-2.0392,-2.0284,-2.0176,-1.9352,-1.9113,-1.9223,-1.8861,-1.8506,-1.9455,-2.0155,-1.9917,-1.9802,-1.9679,-1.9815,-2.0095,-2.033,-2.0585,-2.078,-2.089,-2.0953,-2.053,-2.1454,-2.1335,-3.2711,-3.2013,-3.1837,-3.1661,-3.1661,-3.1661,-3.1661,-3.1661,-3.1849,-3.1849,-3.1937,-3.2025,-3.2125,-3.2125,-3.2125,-3.1937,-3.1749,-3.1661,-3.1661,-3.1661,-3.1661,-3.1572,-3.1294,-3.0722,-3.0272,-2.9795,-2.9223,-2.868,-2.8215,-2.7757,-2.7579,-2.7484,-2.6924,-2.6638,-2.6552,-2.6004,-2.5732,-2.5732,-2.5732,-2.5732,-2.5732,-2.5732,-2.5635,-2.544,-2.544,-2.544,-2.544,-2.544,-2.543,-2.544,-2.544,-2.543,-2.544,-2.5538,-2.5635,-2.5635,-2.5635,-2.5635,-2.5635,-2.5518,-2.5001,-2.407,-2.2455,-2.1107,-2.0751,-1.9983,-1.9272,-1.9272,-1.9279,-1.9063,-1.8952,-1.8639,-1.8422,-1.8422,-1.8422,-1.8415,-1.8304,-1.8311,-1.8499,-1.8915,-1.932,-1.9671,-1.9975,-2.0286,-2.0456,-2.0658,-2.0795,-2.0845,-2.0859,-2.0859,-2.0859,-2.0859,-2.0852,-2.0859,-2.0874,-2.0162,-1.9802,-2.0012,-1.9883,-1.9679,-2.0277,-2.0392,-2.0148,-2.0148,-2.0385,-2.0449,-2.0519,-2.0864,-2.1279,-2.1645,-2.1885,-2.2032,-2.209,-2.223,-2.223,-3.2945,-3.2587,-3.2089,-3.1937,-3.1937,-3.1937,-3.1925,-3.1937,-3.2038,-3.2125,-3.2125,-3.2313,-3.24,-3.24,-3.24,-3.2213,-3.1937,-3.1937,-3.1937,-3.1925,-3.1937,-3.2025,-3.2025,-3.1472,-3.1092,-3.1003,-3.0068,-2.9521,-2.9326,-2.905,-2.8947,-2.8866,-2.7934,-2.7463,-2.7284,-2.6466,-2.5927,-2.5927,-2.5927,-2.5927,-2.5927,-2.5917,-2.5917,-2.583,-2.583,-2.583,-2.5732,-2.5732,-2.5732,-2.5732,-2.5732,-2.5732,-2.5732,-2.5732,-2.5732,-2.5732,-2.5732,-2.5732,-2.5732,-2.5732,-2.5421,-2.4707,-2.3574,-2.2558,-2.1887,-2.0987,-2.0388,-2.0285,-2.0285,-2.0285,-1.9776,-1.9457,-1.9042,-1.884,-1.8743,-1.8632,-1.8632,-1.8724,-1.9155,-1.9564,-2.0077,-2.0366,-2.0658,-2.0841,-2.0892,-2.1196,-2.1211,-2.1211,-2.1211,-2.1211,-2.1211,-2.1211,-2.1203,-2.1203,-2.1096,-2.0622,-2.0385,-2.0601,-2.0594,-2.05,-2.0507,-2.0507,-2.05,-2.05,-2.0658,-2.0743,-2.0957,-2.1299,-2.1669,-2.206,-2.2267,-2.2541,-2.248,-2.2487,-2.2487,-3.4327,-3.4384,-3.3043,-3.2475,-3.2475,-3.2388,-3.2388,-3.2388,-3.2388,-3.2388,-3.2388,-3.2388,-3.2487,-3.2487,-3.2487,-3.24,-3.2388,-3.2388,-3.24,-3.23,-3.2313,-3.2388,-3.2388,-3.23,-3.2201,-3.2201,-3.1371,-3.0902,-3.08,-3.0068,-2.959,-2.9326,-2.8659,-2.8204,-2.8017,-2.7125,-2.6592,-2.6496,-2.6496,-2.6496,-2.6496,-2.64,-2.6304,-2.61,-2.611,-2.6014,-2.5732,-2.5732,-2.5732,-2.5732,-2.5732,-2.5732,-2.5732,-2.5732,-2.5732,-2.5732,-2.5732,-2.5732,-2.5732,-2.5732,-2.5635,-2.543,-2.4356,-2.3755,-2.3583,-2.2785,-2.219,-2.2089,-2.2089,-2.1887,-2.0987,-2.068,-2.0277,-1.9472,-1.9168,-1.9168,-1.9248,-1.9594,-1.9886,-2.0186,-2.0501,-2.071,-2.0829,-2.0909,-2.1174,-2.1189,-2.1211,-2.1211,-2.1211,-2.1211,-2.1211,-2.1211,-2.1211,-2.1211,-2.1211,-2.1211,-2.1211,-2.1203,-2.1081,-2.0974,-2.0974,-2.0974,-2.0974,-2.0974,-2.0974,-2.1068,-2.156,-2.19,-2.219,-2.2537,-2.2842,-2.2981,-2.2863,-2.2863,-2.2863,-3.5841,-3.5332,-3.3913,-3.3275,-3.3202,-3.2624,-3.24,-3.24,-3.255,-3.2636,-3.2636,-3.2822,-3.2909,-3.2909,-3.2909,-3.2909,-3.2909,-3.2909,-3.2736,-3.2487,-3.24,-3.2475,-3.255,-3.2636,-3.2649,-3.255,-3.2201,-3.1925,-3.1837,-3.1548,-3.146,-3.127,-3.0429,-2.9966,-2.9772,-2.8402,-2.7474,-2.7389,-2.686,-2.6496,-2.6496,-2.6496,-2.6496,-2.639,-2.64,-2.6314,-2.6217,-2.5936,-2.5732,-2.5732,-2.5732,-2.5732,-2.5732,-2.5732,-2.5732,-2.5732,-2.5732,-2.5732,-2.5732,-2.5732,-2.5732,-2.5655,-2.5223,-2.4712,-2.4106,-2.3185,-2.2593,-2.2593,-2.2492,-2.2089,-2.1183,-2.0885,-2.0483,-1.9376,-1.9279,-1.9277,-1.9517,-2.02,-2.0574,-2.0582,-2.0847,-2.1072,-2.1045,-2.1203,-2.1211,-2.1211,-2.1211,-2.1211,-2.1211,-2.1211,-2.1211,-2.1211,-2.1211,-2.1211,-2.1211,-2.1211,-2.1211,-2.1211,-2.1211,-2.1211,-2.1211,-2.1211,-2.1211,-2.1211,-2.1211,-2.143,-2.1935,-2.2286,-2.252,-2.282,-2.3025,-2.3091,-2.3106,-2.3106,-2.3106,-3.7263,-3.6851,-3.505,-3.4309,-3.4113,-3.3156,-3.2649,-3.2649,-3.2822,-3.281,-3.2896,-3.2982,-3.3081,-3.3081,-3.3081,-3.3081,-3.3081,-3.3081,-3.2896,-3.2649,-3.2649,-3.2736,-3.281,-3.2896,-3.281,-3.281,-3.2736,-3.2649,-3.2649,-3.2649,-3.2649,-3.2463,-3.1637,-3.1169,-3.0991,-2.9235,-2.8226,-2.8038,-2.7336,-2.6784,-2.6784,-2.6784,-2.6784,-2.6688,-2.6602,-2.6602,-2.6506,-2.6217,-2.6024,-2.6024,-2.6024,-2.5927,-2.5917,-2.582,-2.582,-2.5732,-2.5732,-2.5732,-2.5732,-2.5732,-2.5732,-2.5664,-2.5664,-2.5467,-2.4735,-2.4007,-2.371,-2.3701,-2.371,-2.3103,-2.1895,-2.1489,-2.0885,-1.9376,-1.9396,-1.9524,-1.9809,-2.0597,-2.1085,-2.0966,-2.1097,-2.1167,-2.1211,-2.1211,-2.1211,-2.1211,-2.1211,-2.1211,-2.1211,-2.1211,-2.1211,-2.1211,-2.1211,-2.1211,-2.1211,-2.1211,-2.1211,-2.1211,-2.1211,-2.1211,-2.1211,-2.1211,-2.1211,-2.1211,-2.1211,-2.1372,-2.1811,-2.2089,-2.2352,-2.2689,-2.3018,-2.3091,-2.3106,-2.3106,-2.3106,-3.8587,-3.8695,-3.6502,-3.5463,-3.5188,-3.3935,-3.3217,-3.3068,-3.3081,-3.3068,-3.3081,-3.3081,-3.3081,-3.3081,-3.3081,-3.3081,-3.3081,-3.3081,-3.3081,-3.3081,-3.3081,-3.3081,-3.3081,-3.3081,-3.3081,-3.3081,-3.3081,-3.3081,-3.2995,-3.3007,-3.3068,-3.2909,-3.2164,-3.1713,-3.1448,-2.9806,-2.898,-2.8991,-2.8081,-2.762,-2.7441,-2.7452,-2.7262,-2.6996,-2.69,-2.6794,-2.6688,-2.6592,-2.6496,-2.6506,-2.64,-2.6304,-2.6197,-2.61,-2.6014,-2.583,-2.5732,-2.583,-2.5732,-2.582,-2.582,-2.5839,-2.5849,-2.5742,-2.5635,-2.5528,-2.543,-2.5421,-2.543,-2.4716,-2.3094,-2.2593,-2.1607,-1.9993,-1.9736,-2.0033,-2.0596,-2.0988,-2.1136,-2.1215,-2.1203,-2.1211,-2.1211,-2.1211,-2.1211,-2.1211,-2.1211,-2.1211,-2.1211,-2.1211,-2.1211,-2.1211,-2.1211,-2.1211,-2.1211,-2.1211,-2.1211,-2.1211,-2.1211,-2.1211,-2.1211,-2.1211,-2.1211,-2.1211,-2.1233,-2.1408,-2.165,-2.1964,-2.2271,-2.2608,-2.2857,-2.3025,-2.3106,-2.3106,-2.3106,-4.0412,-4.0354,-3.8641,-3.729,-3.6233,-3.5123,-3.4097,-3.3192,-3.3179,-3.3192,-3.3167,-3.3081,-3.3081,-3.3081,-3.3081,-3.3081,-3.3081,-3.3081,-3.3081,-3.3081,-3.3081,-3.3081,-3.3081,-3.3081,-3.3081,-3.3081,-3.3081,-3.3081,-3.3081,-3.3081,-3.3081,-3.3068,-3.281,-3.2624,-3.2438,-3.1347,-3.0902,-3.0711,-2.9897,-2.8991,-2.8445,-2.8351,-2.7904,-2.7262,-2.7262,-2.7167,-2.7071,-2.7071,-2.688,-2.6496,-2.6496,-2.6486,-2.64,-2.64,-2.6304,-2.6304,-2.6207,-2.6314,-2.6207,-2.6177,-2.6167,-2.6304,-2.6324,-2.643,-2.6304,-2.6304,-2.6217,-2.611,-2.6004,-2.5401,-2.3998,-2.3592,-2.2808,-2.1462,-2.0527,-2.0237,-2.0662,-2.0947,-2.1252,-2.1203,-2.1211,-2.1211,-2.1211,-2.1211,-2.1211,-2.1211,-2.1211,-2.1211,-2.1211,-2.1211,-2.1211,-2.1211,-2.1211,-2.1211,-2.1211,-2.1211,-2.1211,-2.1211,-2.1211,-2.1211,-2.1211,-2.1211,-2.1211,-2.1211,-2.1211,-2.1335,-2.1635,-2.195,-2.2257,-2.2491,-2.2791,-2.3003,-2.3076,-2.3106,-2.3106,-4.1512,-4.1386,-3.9893,-3.874,-3.7869,-3.6761,-3.5574,-3.4634,-3.4144,-3.3845,-3.362,-3.324,-3.3081,-3.3081,-3.3081,-3.3081,-3.3081,-3.3081,-3.3081,-3.3081,-3.3081,-3.3081,-3.3081,-3.3081,-3.3081,-3.3081,-3.3081,-3.3081,-3.3081,-3.3081,-3.3081,-3.3081,-3.3081,-3.3081,-3.2982,-3.2164,-3.1625,-3.1436,-3.0711,-2.9897,-2.936,-2.936,-2.9084,-2.8445,-2.8175,-2.7809,-2.7357,-2.7262,-2.7167,-2.688,-2.688,-2.6784,-2.6699,-2.6699,-2.6602,-2.6496,-2.6496,-2.6496,-2.6486,-2.635,-2.6254,-2.6486,-2.6623,-2.6623,-2.6506,-2.6496,-2.64,-2.6294,-2.6197,-2.5499,-2.4492,-2.389,-2.3454,-2.2753,-2.1286,-2.053,-2.0845,-2.1094,-2.1196,-2.1211,-2.1211,-2.1211,-2.1211,-2.1211,-2.1211,-2.1211,-2.1211,-2.1211,-2.1211,-2.1211,-2.1211,-2.1318,-2.1325,-2.1325,-2.1325,-2.1325,-2.1325,-2.1325,-2.1318,-2.1318,-2.1325,-2.1325,-2.1211,-2.1211,-2.1211,-2.1276,-2.1533,-2.1796,-2.2045,-2.2323,-2.2689,-2.2952,-2.3032,-2.3106,-2.3106,-4.2175,-4.2034,-4.0656,-3.9956,-3.9592,-3.8421,-3.7343,-3.6617,-3.588,-3.522,-3.4569,-3.3773,-3.3655,-3.3244,-3.3458,-3.3282,-3.3206,-3.3244,-3.3131,-3.3106,-3.3081,-3.3081,-3.3081,-3.3081,-3.3081,-3.3081,-3.3081,-3.3081,-3.3081,-3.3081,-3.3081,-3.3081,-3.3081,-3.3081,-3.2982,-3.2264,-3.1813,-3.1713,-3.1258,-3.0711,-3.0441,-3.0351,-3.017,-2.9806,-2.9165,-2.8445,-2.7809,-2.7536,-2.7441,-2.7272,-2.7272,-2.7177,-2.6996,-2.69,-2.6805,-2.6699,-2.6688,-2.6688,-2.6582,-2.6552,-2.6446,-2.6688,-2.6719,-2.6729,-2.6699,-2.6688,-2.6592,-2.6506,-2.6294,-2.58,-2.5011,-2.4026,-2.4014,-2.4165,-2.2461,-2.1705,-2.1504,-2.1425,-2.1325,-2.1325,-2.1325,-2.1325,-2.1318,-2.1325,-2.1325,-2.1546,-2.1546,-2.1546,-2.1546,-2.1546,-2.1546,-2.1432,-2.1432,-2.1325,-2.1325,-2.1325,-2.1439,-2.1432,-2.1546,-2.1546,-2.1432,-2.1439,-2.1325,-2.1211,-2.1325,-2.1325,-2.1276,-2.154,-2.1825,-2.2281,-2.2664,-2.2929,-2.3127,-2.3076,-2.3106,-4.2541,-4.2526,-4.2202,-4.1252,-4.0148,-3.9702,-3.8714,-3.7424,-3.7411,-3.6797,-3.595,-3.5665,-3.5144,-3.4336,-3.4248,-3.4148,-3.3746,-3.3658,-3.3508,-3.3093,-3.3081,-3.3081,-3.3081,-3.3068,-3.3081,-3.3081,-3.3081,-3.3081,-3.3081,-3.3081,-3.3081,-3.3081,-3.3081,-3.3081,-3.3081,-3.2884,-3.2797,-3.2711,-3.2537,-3.1989,-3.1359,-3.1258,-3.0991,-3.0351,-2.9988,-2.936,-2.8631,-2.8351,-2.8081,-2.7536,-2.7272,-2.7262,-2.7177,-2.7177,-2.7177,-2.7071,-2.7071,-2.7071,-2.7071,-2.7061,-2.7061,-2.7071,-2.7081,-2.7177,-2.7177,-2.7081,-2.6976,-2.689,-2.6709,-2.64,-2.6014,-2.6094,-2.5929,-2.5647,-2.6276,-2.6041,-2.4743,-2.2966,-2.1995,-2.1904,-2.1896,-2.1881,-2.1858,-2.1881,-2.1888,-2.1888,-2.1888,-2.1881,-2.1888,-2.1774,-2.1774,-2.166,-2.166,-2.166,-2.166,-2.166,-2.1645,-2.1653,-2.166,-2.1774,-2.166,-2.1668,-2.1668,-2.1554,-2.1439,-2.1439,-2.1439,-2.1531,-2.1965,-2.2305,-2.2623,-2.3018,-2.3249,-2.3237,-2.323,-4.2688,-4.2688,-4.2688,-4.2143,-4.143,-4.1305,-4.0617,-3.9612,-3.9198,-3.8352,-3.712,-3.6724,-3.5895,-3.4906,-3.4906,-3.4627,-3.4274,-3.4073,-3.3921,-3.3619,-3.3417,-3.3227,-3.324,-3.3227,-3.324,-3.3167,-3.3081,-3.3081,-3.3081,-3.3081,-3.3081,-3.3081,-3.3081,-3.3081,-3.3081,-3.3167,-3.3081,-3.3081,-3.3081,-3.2797,-3.2351,-3.2264,-3.1801,-3.108,-3.0812,-3.0453,-2.9543,-2.891,-2.8445,-2.7998,-2.7547,-2.7357,-2.7357,-2.7272,-2.7272,-2.7272,-2.7272,-2.7272,-2.7272,-2.7272,-2.7262,-2.7272,-2.7272,-2.7272,-2.7272,-2.7272,-2.7272,-2.7081,-2.6986,-2.6805,-2.6709,-2.684,-2.6843,-2.7192,-2.8206,-2.8252,-2.6519,-2.4251,-2.262,-2.2659,-2.2449,-2.2214,-2.2101,-2.2222,-2.2108,-2.1995,-2.2002,-2.1995,-2.1995,-2.2002,-2.2002,-2.1995,-2.1995,-2.1995,-2.1995,-2.1987,-2.1957,-2.1972,-2.1995,-2.1995,-2.2002,-2.2002,-2.201,-2.1888,-2.1774,-2.1774,-2.1812,-2.1907,-2.2057,-2.2436,-2.2744,-2.321,-2.3497,-2.354,-2.366,-4.2769,-4.2769,-4.2784,-4.2769,-4.2769,-4.2659,-4.2269,-4.1748,-4.1178,-4.0075,-3.863,-3.7506,-3.6841,-3.5814,-3.5531,-3.5249,-3.4893,-3.4553,-3.445,-3.4208,-3.3878,-3.3623,-3.3534,-3.3398,-3.3386,-3.324,-3.324,-3.324,-3.324,-3.3154,-3.3227,-3.324,-3.324,-3.324,-3.324,-3.324,-3.3227,-3.3227,-3.3227,-3.3227,-3.3142,-3.3056,-3.2612,-3.2001,-3.1813,-3.1347,-3.0531,-2.9818,-2.9187,-2.8899,-2.7998,-2.762,-2.7441,-2.7357,-2.7272,-2.7272,-2.7272,-2.7272,-2.7272,-2.7272,-2.7272,-2.7272,-2.7272,-2.7272,-2.7272,-2.7272,-2.7272,-2.7262,-2.7071,-2.6986,-2.6996,-2.7037,-2.7338,-2.7739,-2.8487,-2.8472,-2.7598,-2.5352,-2.4183,-2.3751,-2.3448,-2.2998,-2.2554,-2.2335,-2.2335,-2.2222,-2.2222,-2.223,-2.2222,-2.2222,-2.2335,-2.2335,-2.2449,-2.2449,-2.2449,-2.2449,-2.2418,-2.2305,-2.2335,-2.2335,-2.2335,-2.2335,-2.2456,-2.223,-2.2108,-2.2116,-2.2116,-2.1971,-2.2253,-2.2574,-2.2833,-2.3169,-2.3497,-2.3825,-2.3955,-4.317,-4.317,-4.317,-4.309,-4.2996,-4.29,-4.2776,-4.2621,-4.2438,-4.1922,-4.0688,-3.9897,-3.8863,-3.797,-3.709,-3.6491,-3.607,-3.5558,-3.5084,-3.4763,-3.4369,-3.4126,-3.3781,-3.3666,-3.3641,-3.3628,-3.3641,-3.3641,-3.3543,-3.3628,-3.3556,-3.3556,-3.3556,-3.3556,-3.3556,-3.3556,-3.3543,-3.3556,-3.3543,-3.3543,-3.3471,-3.3398,-3.3142,-3.2711,-3.2711,-3.2251,-3.1625,-3.1169,-3.08,-2.9988,-2.8991,-2.8538,-2.8269,-2.7715,-2.7452,-2.7272,-2.7272,-2.7272,-2.7272,-2.7272,-2.7272,-2.7272,-2.7272,-2.7272,-2.7272,-2.7272,-2.7272,-2.7272,-2.7262,-2.7272,-2.7262,-2.7177,-2.7383,-2.7713,-2.7852,-2.8123,-2.8299,-2.7294,-2.5649,-2.5125,-2.4531,-2.4111,-2.3664,-2.3328,-2.3223,-2.3223,-2.3119,-2.2901,-2.2675,-2.2675,-2.2788,-2.2788,-2.2901,-2.2901,-2.2901,-2.2901,-2.278,-2.2772,-2.2675,-2.2675,-2.2788,-2.2901,-2.2788,-2.2449,-2.2343,-2.2343,-2.2343,-2.2222,-2.2466,-2.2805,-2.2914,-2.3129,-2.3596,-2.3937,-2.4208,-4.3344,-4.3344,-4.3344,-4.325,-4.3155,-4.3155,-4.309,-4.301,-4.3076,-4.2563,-4.1713,-4.1085,-4.0376,-3.936,-3.8432,-3.7743,-3.7079,-3.6393,-3.5903,-3.5594,-3.5066,-3.4654,-3.4268,-3.4062,-3.3992,-3.405,-3.4063,-3.3894,-3.3725,-3.3713,-3.3713,-3.3713,-3.3713,-3.3713,-3.3713,-3.3713,-3.3713,-3.3713,-3.3713,-3.3713,-3.3713,-3.3484,-3.3313,-3.3227,-3.3154,-3.281,-3.2438,-3.1813,-3.1436,-3.08,-3.0,-2.9257,-2.8713,-2.8258,-2.782,-2.7452,-2.7357,-2.7272,-2.7272,-2.7272,-2.7272,-2.7272,-2.7272,-2.7272,-2.7272,-2.7272,-2.7272,-2.7272,-2.7272,-2.7272,-2.7272,-2.7272,-2.7376,-2.7552,-2.7523,-2.8074,-2.8531,-2.8319,-2.7524,-2.6488,-2.6036,-2.5626,-2.5186,-2.4855,-2.4539,-2.4223,-2.4008,-2.368,-2.3344,-2.3344,-2.3448,-2.3127,-2.3119,-2.3014,-2.3014,-2.3014,-2.3014,-2.3014,-2.3014,-2.3014,-2.3014,-2.3014,-2.2901,-2.2796,-2.2683,-2.2683,-2.2683,-2.2683,-2.2808,-2.3032,-2.3113,-2.3333,-2.374,-2.4031,-2.417,-4.3344,-4.3344,-4.3344,-4.3344,-4.3344,-4.3344,-4.3329,-4.3344,-4.3265,-4.2915,-4.2237,-4.1782,-4.1253,-4.0476,-3.9637,-3.8868,-3.8187,-3.7389,-3.7077,-3.6482,-3.5872,-3.5327,-3.4899,-3.4614,-3.4386,-3.4314,-3.4314,-3.423,-3.3979,-3.3882,-3.3894,-3.3894,-3.3882,-3.3882,-3.3882,-3.3882,-3.3882,-3.3894,-3.3797,-3.3797,-3.3725,-3.3641,-3.3471,-3.3484,-3.3227,-3.3167,-3.2982,-3.2438,-3.2077,-3.1713,-3.0991,-3.017,-2.936,-2.8899,-2.8351,-2.7726,-2.7441,-2.7357,-2.7272,-2.7272,-2.7272,-2.7272,-2.7272,-2.7272,-2.7272,-2.7272,-2.7272,-2.7272,-2.7272,-2.7272,-2.7272,-2.7272,-2.7272,-2.7334,-2.7603,-2.7966,-2.8411,-2.8502,-2.8716,-2.7976,-2.7456,-2.6915,-2.6372,-2.5945,-2.5516,-2.5415,-2.5093,-2.4974,-2.4642,-2.4428,-2.4326,-2.3672,-2.3344,-2.3127,-2.3014,-2.3014,-2.3014,-2.3014,-2.3014,-2.3014,-2.3014,-2.3014,-2.2901,-2.2909,-2.2909,-2.2909,-2.3014,-2.3014,-2.2964,-2.3067,-2.3202,-2.3506,-2.3652,-2.385,-2.4063,-4.3344,-4.3344,-4.3344,-4.3344,-4.3344,-4.3344,-4.3344,-4.3344,-4.3344,-4.325,-4.2996,-4.2319,-4.1893,-4.1463,-4.0774,-3.9913,-3.9258,-3.8822,-3.8287,-3.7421,-3.6914,-3.621,-3.543,-3.526,-3.4692,-3.4489,-3.4397,-3.4397,-3.423,-3.423,-3.4314,-3.423,-3.423,-3.4314,-3.423,-3.4217,-3.4301,-3.4314,-3.4314,-3.423,-3.4063,-3.3992,-3.3823,-3.3641,-3.3471,-3.3411,-3.3313,-3.297,-3.2884,-3.2698,-3.1989,-3.1448,-3.0991,-2.9543,-2.8817,-2.8362,-2.7904,-2.7272,-2.7357,-2.7272,-2.7272,-2.7272,-2.7272,-2.7272,-2.7272,-2.7272,-2.7272,-2.7272,-2.7272,-2.7272,-2.7272,-2.7272,-2.7272,-2.7282,-2.7376,-2.7655,-2.8017,-2.8421,-2.8563,-2.9065,-2.8476,-2.7699,-2.714,-2.6698,-2.6372,-2.6381,-2.6273,-2.6164,-2.5827,-2.5507,-2.5296,-2.465,-2.3833,-2.3521,-2.3336,-2.3223,-2.3022,-2.3014,-2.3014,-2.3014,-2.3014,-2.3014,-2.3014,-2.3014,-2.3014,-2.3014,-2.3014,-2.3014,-2.3014,-2.307,-2.3173,-2.334,-2.353,-2.3713,-2.3888,-4.3157,-4.3344,-4.3344,-4.3344,-4.3344,-4.3344,-4.3344,-4.3344,-4.3344,-4.3344,-4.325,-4.2915,-4.2496,-4.199,-4.1561,-4.0859,-4.0159,-3.9986,-3.9715,-3.8863,-3.8142,-3.7417,-3.6524,-3.566,-3.4972,-3.4651,-3.4397,-3.4397,-3.4397,-3.4397,-3.4397,-3.4397,-3.4397,-3.4397,-3.4397,-3.4397,-3.4397,-3.4397,-3.4397,-3.4397,-3.4243,-3.416,-3.4076,-3.3907,-3.3725,-3.3641,-3.3556,-3.3471,-3.3484,-3.3386,-3.2945,-3.25,-3.2052,-3.1146,-3.0429,-2.9061,-2.8795,-2.8164,-2.7441,-2.7357,-2.7357,-2.7272,-2.7272,-2.7272,-2.7272,-2.7272,-2.7272,-2.7272,-2.7272,-2.7272,-2.7272,-2.7272,-2.7272,-2.7272,-2.7272,-2.751,-2.7779,-2.8007,-2.8342,-2.898,-2.9374,-2.859,-2.8135,-2.8223,-2.7892,-2.7473,-2.7365,-2.714,-2.6698,-2.6164,-2.5945,-2.5845,-2.4949,-2.4157,-2.3817,-2.364,-2.3127,-2.3022,-2.3014,-2.3014,-2.3014,-2.3014,-2.3014,-2.3014,-2.3014,-2.3014,-2.3014,-2.3014,-2.3014,-2.3014,-2.3022,-2.3173,-2.3332,-2.3514,-2.3721,-4.2954,-4.3262,-4.3427,-4.3488,-4.3503,-4.3503,-4.3503,-4.3503,-4.3423,-4.3423,-4.3344,-4.325,-4.2915,-4.2496,-4.2252,-4.1811,-4.0944,-4.0944,-4.0774,-4.025,-3.9529,-3.8677,-3.7918,-3.6855,-3.5871,-3.4914,-3.4934,-3.4647,-3.4481,-3.4397,-3.4397,-3.4397,-3.4397,-3.4397,-3.4397,-3.4397,-3.4397,-3.4397,-3.4397,-3.4397,-3.4397,-3.4243,-3.423,-3.4063,-3.3966,-3.3797,-3.381,-3.3713,-3.3713,-3.3628,-3.3628,-3.3189,-3.2747,-3.2215,-3.15,-3.0316,-2.9772,-2.8877,-2.806,-2.7704,-2.7441,-2.7357,-2.7272,-2.7272,-2.7272,-2.7272,-2.7272,-2.7272,-2.7272,-2.7272,-2.7272,-2.7272,-2.7272,-2.7272,-2.7272,-2.75,-2.7707,-2.7893,-2.81,-2.8504,-2.9011,-2.9477,-2.9248,-2.9671,-2.9418,-2.8774,-2.8455,-2.8126,-2.7688,-2.714,-2.6924,-2.6924,-2.5972,-2.5086,-2.447,-2.4069,-2.356,-2.3143,-2.3143,-2.3014,-2.3014,-2.3014,-2.3014,-2.3014,-2.3014,-2.3014,-2.3014,-2.3014,-2.3014,-2.3014,-2.3014,-2.3014,-2.3133,-2.3316,-2.3514,-4.2424,-4.3107,-4.3714,-4.3895,-4.391,-4.3988,-4.391,-4.391,-4.3754,-4.3675,-4.3596,-4.3423,-4.3265,-4.317,-4.2996,-4.2659,-4.1893,-4.1908,-4.1463,-4.093,-4.0391,-3.9985,-3.9313,-3.8532,-3.7662,-3.6511,-3.5873,-3.5196,-3.4634,-3.4634,-3.4481,-3.4397,-3.4397,-3.4397,-3.4397,-3.4397,-3.4397,-3.4397,-3.4397,-3.4397,-3.4397,-3.4397,-3.4314,-3.4314,-3.4147,-3.4063,-3.4076,-3.3894,-3.3797,-3.3797,-3.3797,-3.3797,-3.3445,-3.292,-3.2289,-3.1665,-3.0676,-2.9772,-2.905,-2.8038,-2.74,-2.7347,-2.7357,-2.7357,-2.7452,-2.7367,-2.7367,-2.7367,-2.7452,-2.7452,-2.7357,-2.7367,-2.7452,-2.7357,-2.7357,-2.7419,-2.751,-2.7696,-2.7914,-2.8152,-2.8576,-2.9125,-2.957,-2.9902,-2.9963,-2.9333,-2.9333,-2.9112,-2.8996,-2.8562,-2.8232,-2.7892,-2.7004,-2.6155,-2.5168,-2.4744,-2.4513,-2.397,-2.3625,-2.3263,-2.3022,-2.3022,-2.3014,-2.3014,-2.3014,-2.3014,-2.3014,-2.3014,-2.3014,-2.3014,-2.3014,-2.3014,-2.3014,-2.3141,-2.3308,-4.2138,-4.2812,-4.3455,-4.3838,-4.4003,-4.4003,-4.4003,-4.3988,-4.391,-4.3769,-4.369,-4.3596,-4.3423,-4.3329,-4.3344,-4.317,-4.282,-4.282,-4.2496,-4.2155,-4.1738,-4.1159,-4.0406,-3.9453,-3.8263,-3.7435,-3.6758,-3.6042,-3.5345,-3.5182,-3.4799,-3.4551,-3.4564,-3.4397,-3.4397,-3.4397,-3.4397,-3.4397,-3.4397,-3.4397,-3.4397,-3.4397,-3.4397,-3.4397,-3.4314,-3.4314,-3.4243,-3.4147,-3.4147,-3.4147,-3.4147,-3.4063,-3.4063,-3.3615,-3.3262,-3.2821,-3.1741,-3.0932,-2.9692,-2.8598,-2.7788,-2.7704,-2.7704,-2.76,-2.7631,-2.7694,-2.7694,-2.7768,-2.7715,-2.7704,-2.7715,-2.7715,-2.7715,-2.7536,-2.7452,-2.7452,-2.7525,-2.7617,-2.7772,-2.799,-2.8479,-2.9029,-2.9445,-2.9829,-2.9985,-2.9889,-2.9994,-2.9994,-2.9879,-2.9764,-2.9428,-2.9061,-2.827,-2.7777,-2.6901,-2.6182,-2.5573,-2.4778,-2.4194,-2.3721,-2.3464,-2.3022,-2.3014,-2.3014,-2.3014,-2.3014,-2.3014,-2.3014,-2.3014,-2.3014,-2.3014,-2.3014,-2.3014,-2.3014,-2.3133,-4.1678,-4.234,-4.2786,-4.3346,-4.3869,-4.4128,-4.422,-4.4127,-4.4127,-4.3972,-4.3754,-4.3769,-4.3675,-4.3581,-4.3503,-4.3503,-4.3488,-4.3488,-4.3503,-4.325,-4.2761,-4.2166,-4.1324,-4.035,-3.9319,-3.8375,-3.7572,-3.683,-3.6042,-3.6042,-3.5803,-3.5332,-3.4881,-3.4716,-3.4397,-3.4397,-3.4397,-3.4397,-3.4397,-3.4397,-3.4397,-3.4397,-3.4397,-3.4397,-3.4397,-3.4397,-3.4397,-3.4314,-3.4314,-3.4314,-3.4314,-3.4397,-3.4397,-3.4314,-3.405,-3.3602,-3.298,-3.219,-3.0855,-2.8969,-2.807,-2.7893,-2.7998,-2.7987,-2.8019,-2.7999,-2.7967,-2.7914,-2.7955,-2.8028,-2.7966,-2.7893,-2.7893,-2.7715,-2.7726,-2.7726,-2.7631,-2.7757,-2.7766,-2.7934,-2.8509,-2.9105,-2.9541,-2.9961,-3.0193,-3.0308,-3.0308,-3.0412,-3.0308,-3.0297,-3.0297,-2.9922,-2.9536,-2.9235,-2.885,-2.8027,-2.6999,-2.5836,-2.516,-2.4462,-2.4008,-2.3568,-2.3127,-2.3014,-2.3014,-2.3014,-2.3014,-2.3014,-2.3014,-2.3014,-2.3014,-2.3014,-2.3014,-2.3014,-2.3014,-4.0986,-4.1586,-4.1678,-4.2432,-4.3556,-4.4279,-4.4526,-4.4419,-4.4343,-4.4205,-4.3988,-4.3988,-4.3988,-4.391,-4.391,-4.391,-4.391,-4.391,-4.391,-4.3754,-4.3416,-4.3178,-4.2513,-4.1517,-4.0227,-3.9364,-3.8583,-3.7843,-3.6958,-3.6958,-3.688,-3.6489,-3.5963,-3.5264,-3.4481,-3.4397,-3.4397,-3.4397,-3.4397,-3.4397,-3.4397,-3.4397,-3.4397,-3.4397,-3.4397,-3.4397,-3.4397,-3.4397,-3.4397,-3.4397,-3.4397,-3.4397,-3.4397,-3.4397,-3.4314,-3.4217,-3.3518,-3.2993,-3.2636,-2.9659,-2.8609,-2.8341,-2.8423,-2.8236,-2.8081,-2.8008,-2.8113,-2.8175,-2.8089,-2.8079,-2.8028,-2.803,-2.8156,-2.8125,-2.8157,-2.8158,-2.8095,-2.8148,-2.8348,-2.841,-2.8877,-2.9409,-2.9817,-3.0066,-3.0419,-3.0609,-3.0713,-3.0724,-3.0724,-3.063,-3.062,-3.0588,-3.0307,-3.0151,-2.9818,-2.9353,-2.8495,-2.7178,-2.6263,-2.57,-2.488,-2.4223,-2.3784,-2.3352,-2.3352,-2.3568,-2.3352,-2.3014,-2.3127,-2.3239,-2.3014,-2.3014,-2.3014,-2.3014,-2.3014,-4.0678,-4.0924,-4.1401,-4.1863,-4.2402,-4.3448,-4.391,-4.3987,-4.4281,-4.4358,-4.4205,-4.4205,-4.4143,-4.4065,-4.3988,-4.4065,-4.3988,-4.4003,-4.4003,-4.3927,-4.3486,-4.3182,-4.2622,-4.1745,-4.0843,-4.0394,-3.9666,-3.8855,-3.8115,-3.804,-3.7663,-3.7281,-3.688,-3.5869,-3.4786,-3.4397,-3.4397,-3.4397,-3.4397,-3.4397,-3.4397,-3.4397,-3.4397,-3.4397,-3.4397,-3.4397,-3.4397,-3.4397,-3.4397,-3.4397,-3.4397,-3.4397,-3.4397,-3.4397,-3.4397,-3.4397,-3.3953,-3.3602,-3.3043,-3.1472,-3.0534,-2.9806,-2.8962,-2.8707,-2.8516,-2.856,-2.8571,-2.8466,-2.8412,-2.8516,-2.8549,-2.8896,-2.8942,-2.8881,-2.8882,-2.8773,-2.876,-2.8921,-2.9136,-2.9165,-2.9441,-2.9976,-3.0429,-3.0552,-3.0884,-3.092,-3.092,-3.0931,-3.0827,-3.0838,-3.0838,-3.0931,-3.0785,-3.0845,-3.0625,-3.0229,-2.9797,-2.874,-2.7961,-2.7337,-2.6499,-2.5313,-2.4667,-2.4342,-2.4231,-2.4231,-2.4016,-2.3792,-2.3576,-2.3585,-2.3464,-2.3127,-2.3014,-2.3014,-2.3014,-4.0715,-4.057,-4.1032,-4.1232,-4.1447,-4.2663,-4.334,-4.3664,-4.4264,-4.4511,-4.4419,-4.4435,-4.4358,-4.4205,-4.4205,-4.4205,-4.4189,-4.3945,-4.3854,-4.3762,-4.3092,-4.265,-4.2132,-4.1556,-4.0937,-4.069,-4.0299,-3.961,-3.9133,-3.9133,-3.8679,-3.8115,-3.7724,-3.6958,-3.5883,-3.5345,-3.495,-3.4881,-3.4716,-3.4397,-3.4397,-3.4397,-3.4397,-3.4397,-3.4397,-3.4397,-3.4397,-3.4397,-3.4397,-3.4397,-3.4397,-3.4397,-3.4397,-3.4397,-3.4397,-3.4397,-3.4314,-3.4037,-3.3556,-3.3351,-3.2276,-3.1311,-3.0143,-2.9477,-2.9257,-2.8921,-2.885,-2.8757,-2.885,-2.8757,-2.8822,-2.9226,-2.9415,-2.9342,-2.9494,-2.9471,-2.9426,-2.9567,-2.985,-2.9803,-3.0038,-3.0531,-3.0916,-3.1133,-3.1403,-3.1322,-3.123,-3.1127,-3.1034,-3.1034,-3.1034,-3.1137,-3.123,-3.1197,-3.1165,-3.11,-3.071,-3.012,-2.9459,-2.8754,-2.7688,-2.6509,-2.5972,-2.5331,-2.4889,-2.4676,-2.4676,-2.4462,-2.4239,-2.4128,-2.4016,-2.368,-2.3127,-2.3127,-2.3127,-4.1158,-4.0593,-4.0539,-4.057,-4.0786,-4.2017,-4.291,-4.3556,-4.4187,-4.4433,-4.4449,-4.4341,-4.4188,-4.4402,-4.4433,-4.4356,-4.4173,-4.3681,-4.3543,-4.3282,-4.2643,-4.218,-4.1694,-4.1199,-4.0787,-4.042,-4.0137,-4.0051,-3.9996,-3.9895,-3.9436,-3.8972,-3.8811,-3.819,-3.742,-3.666,-3.6042,-3.5588,-3.5114,-3.4799,-3.4647,-3.4481,-3.4564,-3.4564,-3.4481,-3.4494,-3.4494,-3.441,-3.4397,-3.4397,-3.4397,-3.4397,-3.4397,-3.4397,-3.4397,-3.4397,-3.4397,-3.4301,-3.4217,-3.4102,-3.3823,-3.2735,-3.1548,-3.0859,-3.0114,-2.9555,-2.929,-2.9024,-2.9024,-2.885,-2.8916,-2.9216,-2.9598,-2.9752,-3.0057,-3.0068,-3.0002,-3.0166,-3.0461,-3.0624,-3.0754,-3.1102,-3.1316,-3.1516,-3.1527,-3.1527,-3.1424,-3.1424,-3.1322,-3.1424,-3.1424,-3.1424,-3.1527,-3.1527,-3.1505,-3.1483,-3.1289,-3.0734,-3.0287,-2.9608,-2.8648,-2.7697,-2.7051,-2.63,-2.5441,-2.5119,-2.5348,-2.5128,-2.4898,-2.4676,-2.4565,-2.4231,-2.3784,-2.3568,-2.3456,-4.1755,-4.1509,-4.1138,-4.0882,-4.1038,-4.1759,-4.2391,-4.2879,-4.311,-4.3187,-4.3171,-4.3187,-4.331,-4.3187,-4.3187,-4.3217,-4.314,-4.3002,-4.2925,-4.2617,-4.2114,-4.1776,-4.1423,-4.0968,-4.0616,-4.0477,-4.0401,-4.0331,-4.0331,-4.0331,-4.0316,-4.0005,-3.9722,-3.9493,-3.903,-3.8339,-3.7357,-3.6439,-3.5896,-3.544,-3.5059,-3.4895,-3.4908,-3.4825,-3.4743,-3.466,-3.466,-3.4494,-3.4481,-3.4397,-3.4397,-3.4397,-3.4397,-3.4397,-3.4397,-3.4397,-3.4397,-3.4397,-3.4397,-3.4397,-3.4217,-3.3784,-3.2859,-3.2052,-3.1235,-3.0508,-2.9897,-2.9543,-2.9176,-2.9095,-2.9014,-2.9292,-2.962,-2.9904,-3.0319,-3.0734,-3.0689,-3.0787,-3.1074,-3.114,-3.1258,-3.1302,-3.1597,-3.1618,-3.1629,-3.1618,-3.1618,-3.1618,-3.1618,-3.1618,-3.1618,-3.1618,-3.1618,-3.1618,-3.1618,-3.1505,-3.1516,-3.1424,-3.0877,-3.0359,-2.9628,-2.8774,-2.8019,-2.7168,-2.6209,-2.6017,-2.6136,-2.5907,-2.5459,-2.5238,-2.5119,-2.4676,-2.4334,-2.4231,-2.4008,-4.2613,-4.2316,-4.1754,-4.1339,-4.118,-4.1386,-4.1697,-4.2061,-4.2443,-4.2602,-4.2602,-4.2648,-4.2602,-4.2663,-4.2679,-4.2679,-4.2648,-4.2355,-4.2202,-4.2032,-4.1524,-4.1247,-4.094,-4.0786,-4.0547,-4.0524,-4.0524,-4.047,-4.0524,-4.0524,-4.0455,-4.0455,-4.0401,-4.0401,-4.0091,-3.9565,-3.8723,-3.7814,-3.6986,-3.6387,-3.5924,-3.5548,-3.5386,-3.5154,-3.499,-3.4921,-3.4921,-3.466,-3.4577,-3.4494,-3.4494,-3.4397,-3.4397,-3.4397,-3.4397,-3.4397,-3.4397,-3.4397,-3.4397,-3.4397,-3.4397,-3.423,-3.3869,-3.342,-3.2488,-3.1656,-3.0819,-3.0135,-2.9692,-2.9301,-2.9344,-2.9368,-2.9631,-2.9904,-3.057,-3.1359,-3.14,-3.1509,-3.1542,-3.1564,-3.1586,-3.1575,-3.1618,-3.1618,-3.1618,-3.1618,-3.1618,-3.1618,-3.1618,-3.1618,-3.1618,-3.1618,-3.1618,-3.1618,-3.1597,-3.1531,-3.1509,-3.1316,-3.0899,-3.0484,-3.0266,-2.9292,-2.7873,-2.7267,-2.6781,-2.6682,-2.6455,-2.6354,-2.6026,-2.5798,-2.5688,-2.5569,-2.5229,-2.4787,-2.4787,-4.3614,-4.2937,-4.2236,-4.1607,-4.1153,-4.1133,-4.118,-4.119,-4.2045,-4.2474,-4.2428,-4.2458,-4.2366,-4.2283,-4.2196,-4.2243,-4.2073,-4.1694,-4.1509,-4.1494,-4.1001,-4.0709,-4.0678,-4.0524,-4.0524,-4.0524,-4.0524,-4.0524,-4.0524,-4.0524,-4.0524,-4.0524,-4.047,-4.0455,-4.0385,-4.0316,-3.9692,-3.916,-3.8339,-3.7587,-3.6752,-3.6294,-3.599,-3.5453,-3.5236,-3.5086,-3.5086,-3.5003,-3.4839,-3.4756,-3.466,-3.4481,-3.4481,-3.4494,-3.4494,-3.4481,-3.4494,-3.4494,-3.4481,-3.4397,-3.4397,-3.4397,-3.4397,-3.4134,-3.3369,-3.2524,-3.1592,-3.0932,-3.0496,-2.9784,-2.9665,-2.947,-2.9587,-2.9838,-3.0308,-3.1031,-3.1495,-3.1583,-3.1589,-3.1542,-3.1618,-3.1618,-3.1618,-3.1618,-3.1618,-3.1618,-3.1618,-3.1618,-3.1542,-3.1542,-3.152,-3.152,-3.1433,-3.1378,-3.1356,-3.1302,-3.1313,-3.1175,-3.0777,-3.0416,-2.9887,-2.876,-2.7504,-2.6929,-2.6461,-2.6608,-2.6545,-2.6445,-2.6345,-2.6364,-2.6364,-2.6473,-2.6136,-2.5569,-2.5459,-4.3512,-4.3257,-4.2173,-4.1507,-4.1256,-4.1272,-4.1221,-4.1133,-4.1345,-4.1526,-4.1479,-4.151,-4.1541,-4.1581,-4.1496,-4.1426,-4.1287,-4.1249,-4.0832,-4.0847,-4.0586,-4.0608,-4.0539,-4.0608,-4.0539,-4.0524,-4.0524,-4.0524,-4.0524,-4.0524,-4.0524,-4.0524,-4.0524,-4.0524,-4.0524,-4.0524,-4.0301,-3.999,-3.9692,-3.8796,-3.7875,-3.7063,-3.6545,-3.6163,-3.5951,-3.5399,-3.5236,-3.5154,-3.5072,-3.499,-3.5003,-3.4908,-3.4921,-3.4921,-3.4908,-3.4908,-3.4743,-3.4756,-3.466,-3.4564,-3.4481,-3.4481,-3.4397,-3.4397,-3.4024,-3.3186,-3.2475,-3.1904,-3.1211,-3.0418,-2.9806,-2.9631,-2.9478,-2.9718,-2.998,-3.0743,-3.1415,-3.1517,-3.1504,-3.1476,-3.1472,-3.1597,-3.1586,-3.1618,-3.1618,-3.1618,-3.1618,-3.1575,-3.1389,-3.1323,-3.1258,-3.1225,-3.1105,-3.105,-3.1029,-3.0919,-3.0943,-3.0723,-3.0359,-2.9917,-2.9505,-2.8194,-2.6989,-2.6477,-2.6105,-2.6197,-2.6334,-2.6527,-2.6545,-2.6499,-2.6509,-2.6472,-2.6554,-2.6136,-2.6136,-4.4339,-4.4226,-4.329,-4.2506,-4.1948,-4.1884,-4.1638,-4.1355,-4.1355,-4.1288,-4.1288,-4.1169,-4.1117,-4.1117,-4.0966,-4.095,-4.0882,-4.083,-4.0892,-4.0777,-4.0746,-4.083,-4.0746,-4.0746,-4.083,-4.0761,-4.0677,-4.0593,-4.0539,-4.0524,-4.0524,-4.0539,-4.0539,-4.0524,-4.0524,-4.0524,-4.0524,-4.0455,-4.0524,-3.992,-3.8928,-3.8115,-3.7232,-3.6858,-3.6177,-3.5629,-3.548,-3.5318,-3.5236,-3.5154,-3.5154,-3.5072,-3.5072,-3.5086,-3.5072,-3.5072,-3.5003,-3.4934,-3.4921,-3.4825,-3.466,-3.4647,-3.4647,-3.4743,-3.4729,-3.3985,-3.3382,-3.2796,-3.1753,-3.0866,-2.9988,-2.9639,-2.9239,-2.9216,-2.9587,-3.0174,-3.0579,-3.0767,-3.0852,-3.0804,-3.096,-3.1233,-3.1287,-3.1494,-3.1483,-3.1531,-3.1542,-3.1302,-3.1149,-3.0919,-3.0908,-3.0832,-3.0635,-3.0592,-3.0581,-3.0515,-3.0438,-3.0198,-2.9872,-2.9271,-2.861,-2.7449,-2.6464,-2.6324,-2.6027,-2.5766,-2.5931,-2.6249,-2.6252,-2.6188,-2.6252,-2.6334,-2.6426,-2.649,-2.6481,-4.5177,-4.5069,-4.4541,-4.3722,-4.2818,-4.2694,-4.2396,-4.1884,-4.1769,-4.1704,-4.172,-4.1355,-4.1169,-4.1185,-4.1117,-4.1117,-4.1117,-4.1034,-4.1034,-4.1049,-4.1049,-4.0982,-4.1049,-4.1049,-4.1049,-4.0982,-4.0898,-4.0746,-4.0677,-4.0677,-4.0677,-4.0539,-4.0524,-4.0524,-4.0524,-4.0524,-4.0524,-4.0524,-4.0524,-4.0524,-3.9849,-3.9073,-3.8115,-3.7218,-3.6387,-3.5951,-3.579,-3.5629,-3.548,-3.5399,-3.5318,-3.5236,-3.5236,-3.5236,-3.5236,-3.5236,-3.5154,-3.5168,-3.5086,-3.5072,-3.5072,-3.5072,-3.5072,-3.5072,-3.5072,-3.4799,-3.4204,-3.359,-3.2451,-3.1577,-3.0699,-2.9829,-2.9405,-2.9009,-2.9415,-2.9598,-2.9871,-3.0111,-3.0109,-3.0147,-3.0503,-3.0773,-3.1004,-3.1233,-3.1277,-3.1345,-3.1214,-3.0985,-3.0723,-3.0428,-3.0253,-3.0133,-2.9969,-2.998,-3.0078,-2.9989,-2.9855,-2.9639,-2.9371,-2.8596,-2.7862,-2.7063,-2.6572,-2.6521,-2.6218,-2.5872,-2.5653,-2.582,-2.5816,-2.5945,-2.5885,-2.5949,-2.605,-2.6123,-2.6252,-4.4373,-4.3864,-4.3764,-4.3588,-4.335,-4.335,-4.3273,-4.3092,-4.2569,-4.2396,-4.2269,-4.1785,-4.1538,-4.1538,-4.1323,-4.1256,-4.1272,-4.1221,-4.1117,-4.1117,-4.1185,-4.1117,-4.1117,-4.1236,-4.1117,-4.1117,-4.1102,-4.1034,-4.0898,-4.0898,-4.0882,-4.073,-4.0746,-4.0662,-4.0539,-4.0524,-4.0524,-4.0524,-4.0524,-4.0524,-4.0301,-3.9677,-3.9233,-3.8339,-3.7448,-3.6922,-3.648,-3.6031,-3.571,-3.5629,-3.5548,-3.5548,-3.5562,-3.548,-3.548,-3.548,-3.5399,-3.5318,-3.5318,-3.5236,-3.5236,-3.5168,-3.5168,-3.5154,-3.5154,-3.5154,-3.4799,-3.462,-3.3746,-3.3139,-3.2253,-3.0944,-3.0249,-2.9646,-2.9721,-2.9509,-2.9489,-2.9491,-2.9386,-2.9742,-3.0187,-3.0351,-3.0351,-3.0537,-3.0657,-3.0603,-3.0548,-3.0351,-3.0297,-2.9969,-2.9631,-2.951,-2.9368,-2.9412,-2.9521,-2.9303,-2.9179,-2.9069,-2.8975,-2.8561,-2.7931,-2.7018,-2.6701,-2.6656,-2.6313,-2.5987,-2.5777,-2.5405,-2.5515,-2.554,-2.5463,-2.5518,-2.5637,-2.5748,-2.5867]},{"header":{"parameterUnit":"m.s-1","parameterCategory":1,"la1":31.0,"la2":29.5877,"lo1":-88.7671,"lo2":-86.6584,"dy":0.0162,"dx":0.0185,"nx":115,"ny":88,"refTime":"2023-04-27T12:00:00:Z","depth":0,"parameterNumber":3,"parameterNumberName":"V-component_of_WINDS"},"data":[0.0,0.0,0.0,0.0,0.0,0.0,0.0,0.0,0.0,0.0,0.0,0.0,0.0,0.0,0.0,0.0,0.0,0.0,0.0,0.0,0.0,0.0,0.0,0.0,0.0,0.0,0.0,0.0,0.0,0.0,0.0,0.0,0.0,0.0,0.0,0.0,0.0,0.0,0.0,0.0,0.0,0.0,0.0,0.0,0.0,0.0,0.0,0.0,0.0,0.0,0.0,0.0,0.0,0.0,0.0,0.0,0.0,0.0,0.0,0.0,0.0,0.0,0.0,0.0,0.0,0.0,0.0,0.0,0.0,0.0,0.0,0.0,0.0,0.0,0.0,0.0,0.0,0.0,0.0,0.0,0.0,0.0,0.0,0.0,0.0,0.0,0.0,0.0,0.0,0.0,0.0,0.0,0.0,0.0,0.0,0.0,0.0,0.0,0.0,0.0,0.0,0.0,0.0,0.0,0.0,0.0,0.0,0.0,0.0,0.0,0.0,0.0,0.0,0.0,0.0,0.0,0.0,0.0,0.0,0.0,0.0,0.0,0.0,0.0,0.0,0.0,0.0,0.0,0.0,0.0,0.0,0.0,0.0,0.0,0.0,0.0,0.0,0.0,0.0,0.0,0.0,0.0,0.0,0.0,0.0,0.0,0.0,0.0,0.0,0.0,0.0,0.0,0.0,0.0,0.0,0.0,0.0,0.0,0.0,0.0,0.0,0.0,0.0,0.0,0.0,0.0,0.0,0.0,0.0,0.0,0.0,0.0,0.0,0.0,0.0,0.0,0.0,0.0,0.0,0.0,0.0,0.0,0.0,0.0,0.0,0.0,0.0,0.0,0.0,0.0,0.0,0.0,0.0,0.0,0.0,0.0,0.0,0.0,0.0,0.0,0.0,0.0,0.0,0.0,0.0,0.0,0.0,0.0,0.0,0.0,0.0,0.0,0.0,0.0,0.0,0.0,0.0,0.0,0.0,0.0,0.0,0.0,0.0,0.0,0.0,0.0,0.0,0.0,0.0,0.0,0.0,0.0,0.0,0.0,0.0,0.0,0.0,0.0,0.0,0.0,0.0,0.0,0.0,0.0,0.0,0.0,0.0,0.0,0.0,0.0,0.0,0.0,0.0,0.0,0.0,0.0,0.0,0.0,0.0,0.0,0.0,0.0,0.0,0.0,0.0,0.0,0.0,0.0,0.0,0.0,0.0,0.0,0.0,0.0,0.0,0.0,0.0,0.0,0.0,0.0,0.0,0.0,0.0,0.0,0.0,0.0,0.0,0.0,0.0,0.0,0.0,0.0,0.0,0.0,0.0,0.0,0.0,0.0,0.0,0.0,0.0,0.0,0.0,0.0,0.0,0.0,0.0,0.0,0.0,0.0,0.0,0.0,0.0,0.0,0.0,0.0,0.0,0.0,0.0,0.0,0.0,0.0,0.0,0.0,0.0,0.0,0.0,0.0,0.0,0.0,0.0,0.0,0.0,0.0,0.0,0.0,0.0,0.0,0.0,0.0,0.0,0.0,0.0,0.0,0.0,0.0,0.0,0.0,0.0,0.0,0.0,0.0,0.0,0.0,0.0,0.0,0.0,0.0,0.0,0.0,0.0,0.0,0.0,0.0,0.0,0.0,0.0,0.0,0.0,0.0,0.0,0.0,0.0,0.0,0.0,0.0,0.0,0.0,0.0,0.0,0.0,0.0,0.0,0.0,0.0,0.0,0.0,0.0,0.0,0.0,0.0,0.0,0.0,0.0,0.0,0.0,0.0,0.0,0.0,0.0,0.0,0.0,0.0,0.0,0.0,0.0,0.0,0.0,0.0,0.0,0.0,0.0,0.0,0.0,0.0,0.0,0.0,0.0,0.0,0.0,0.0,0.0,0.0,0.0,0.0,0.0,0.0,0.0,0.0,0.0,0.0,0.0,0.0,0.0,0.0,0.0,0.0,0.0,0.0,0.0,0.0,0.0,0.0,0.0,0.0,0.0,0.0,0.0,0.0,0.0,0.0,0.0,0.0,0.0,0.0,0.0,0.0,0.0,0.0,0.0,0.0,0.0,0.0,0.0,0.0,0.0,0.0,0.0,0.0,0.0,0.0,0.0,0.0,0.0,0.0,0.0,0.0,0.0,0.0,0.0,0.0,0.0,0.0,0.0,0.0,0.0,0.0,0.0,0.0,0.0,0.0,0.0,0.0,0.0,0.0,0.0,0.0,0.0,0.0,0.0,0.0,0.0,0.0,0.0,0.0,0.0,0.0,0.0,0.0,0.0,0.0,0.0,0.0,0.0,0.0,0.0,0.0,0.0,0.0,0.0,0.0,0.0,0.0,0.0,0.0,0.0,0.0,0.0,0.0,0.0,0.0,0.0,0.0,0.0,0.0,0.0,0.0,0.0,0.0,0.0,0.0,0.0,0.0,0.0,0.0,0.0,0.0,0.0,0.0,0.0,0.0,0.0,0.0,0.0,0.0,0.0,0.0,0.0,0.0,0.0,0.0,0.0,0.0,0.0,0.0,0.0,0.0,0.0,0.0,0.0,0.0,0.0,0.0,0.0,0.0,0.0,0.0,0.0,0.0,0.0,0.0,0.0,0.0,0.0,0.0,0.0,0.0,0.0,0.0,0.0,0.0,0.0,0.0,0.0,0.0,0.0,0.0,0.0,0.0,0.0,0.0,0.0,0.0,0.0,0.0,0.0,0.0,0.0,0.0,0.0,0.0,0.0,0.0,0.0,0.0,0.0,0.0,0.0,0.0,0.0,0.0,0.0,0.0,0.0,0.0,0.0,0.0,0.0,0.0,0.0,0.0,0.0,0.0,0.0,0.0,0.0,0.0,0.0,0.0,0.0,0.0,0.0,0.0,0.0,0.0,0.0,0.0,0.0,0.0,0.0,0.0,0.0,0.0,0.0,0.0,0.0,0.0,0.0,0.0,0.0,0.0,0.0,0.0,0.0,0.0,0.0,0.0,0.0,0.0,0.0,0.0,0.0,0.0,0.0,0.0,0.0,0.0,0.0,0.0,0.0,0.0,0.0,0.0,0.0,0.0,0.0,0.0,0.0,0.0,0.0,0.0,0.0,0.0,0.0,0.0,0.0,0.0,0.0,0.0,0.0,0.0,0.0,0.0,0.0,0.0,0.0,0.0,0.0,0.0,0.0,0.0,0.0,0.0,0.0,0.0,0.0,0.0,0.0,0.0,0.0,0.0,0.0,0.0,0.0,0.0,0.0,0.0,0.0,0.0,0.0,0.0,0.0,0.0,0.0,0.0,0.0,0.0,0.0,0.0,0.0,0.0,0.0,0.0,0.0,0.0,0.0,0.0,0.0,0.0,0.0,0.0,0.0,0.0,0.0,0.0,0.0,0.0,0.0,0.0,0.0,0.0,0.0,0.0,0.0,0.0,0.0,0.0,0.0,0.0,0.0,0.0,0.0,0.0,0.0,0.0,0.0,0.0,0.0,0.0,0.0,0.0,0.0,0.0,0.0,0.0,0.0,0.0,0.0,0.0,0.0,0.0,0.0,0.0,0.0,0.0,0.0,0.0,0.0,0.0,0.0,0.0,0.0,0.0,0.0,0.0,0.0,0.0,0.0,0.0,0.0,0.0,0.0,0.0,0.0,0.0,0.0,0.0,0.0,0.0,0.0,0.0,0.0,0.0,0.0,0.0,0.0,0.0,0.0,0.0,0.0,0.0,0.0,0.0,0.0,0.0,0.0,0.0,0.0,0.0,0.0,0.0,0.0,0.0,0.0,0.0,0.0,0.0,0.0,0.0,0.0,0.0,0.0,0.0,0.0,0.0,0.0,0.0,0.0,0.0,0.0,0.0,0.0,0.0,0.0,0.0,0.0,0.0,0.0,0.0,0.0,0.0,0.0,0.0,0.0,0.0,0.0,0.0,0.0,0.0,0.0,0.0,0.0,0.0,0.0,0.0,0.0,0.0,0.0,0.0,0.0,0.0,0.0,0.0,0.0,0.0,0.0,0.0,0.0,0.0,0.0,0.0,0.0,0.0,0.0,0.0,0.0,0.0,0.0,0.0,0.0,0.0,0.0,0.0,0.0,0.0,0.0,0.0,0.0,0.0,0.0,0.0,0.0,0.0,0.0,0.0,0.0,0.0,0.0,0.0,0.0,0.0,0.0,0.0,0.0,0.0,0.0,0.0,0.0,0.0,0.0,0.0,0.0,0.0,0.0,0.0,0.0,0.0,0.0,0.0,0.0,0.0,0.0,0.0,0.0,0.0,0.0,0.0,0.0,0.0,0.0,0.0,0.0,0.0,0.0,0.0,0.0,-2.5762,0.0,0.0,0.0,0.0,0.0,0.0,0.0,0.0,0.0,0.0,0.0,0.0,0.0,0.0,0.0,0.0,0.0,0.0,0.0,0.0,0.0,0.0,0.0,0.0,0.0,0.0,0.0,0.0,0.0,0.0,0.0,0.0,0.0,0.0,0.0,0.0,0.0,0.0,0.0,0.0,0.0,0.0,0.0,0.0,0.0,0.0,0.0,0.0,0.0,0.0,0.0,0.0,0.0,0.0,0.0,0.0,0.0,0.0,0.0,0.0,0.0,0.0,0.0,0.0,0.0,0.0,0.0,0.0,0.0,0.0,0.0,0.0,0.0,0.0,0.0,0.0,0.0,0.0,0.0,0.0,0.0,0.0,0.0,0.0,0.0,0.0,0.0,0.0,0.0,0.0,0.0,0.0,0.0,0.0,0.0,0.0,0.0,0.0,0.0,0.0,0.0,0.0,0.0,0.0,0.0,0.0,0.0,0.0,0.0,0.0,-2.4061,-2.4265,-2.4355,-2.4849,-2.5787,0.0,0.0,0.0,0.0,0.0,0.0,0.0,0.0,0.0,0.0,0.0,0.0,0.0,0.0,0.0,0.0,0.0,0.0,0.0,0.0,0.0,0.0,0.0,0.0,0.0,0.0,0.0,0.0,0.0,0.0,0.0,0.0,0.0,0.0,0.0,0.0,0.0,0.0,0.0,0.0,0.0,0.0,0.0,0.0,0.0,0.0,0.0,0.0,0.0,0.0,0.0,0.0,0.0,0.0,0.0,0.0,0.0,0.0,0.0,0.0,0.0,0.0,0.0,0.0,0.0,0.0,0.0,0.0,0.0,0.0,0.0,0.0,0.0,0.0,0.0,0.0,0.0,0.0,0.0,0.0,0.0,0.0,0.0,0.0,0.0,0.0,0.0,0.0,0.0,0.0,0.0,0.0,0.0,0.0,0.0,0.0,0.0,0.0,0.0,0.0,0.0,0.0,0.0,0.0,0.0,0.0,0.0,0.0,0.0,0.0,0.0,0.0,-2.47,-2.5186,-2.6048,0.0,0.0,0.0,0.0,0.0,0.0,0.0,0.0,0.0,0.0,0.0,0.0,0.0,0.0,0.0,0.0,0.0,0.0,0.0,0.0,0.0,0.0,0.0,0.0,0.0,0.0,0.0,0.0,0.0,0.0,0.0,0.0,0.0,0.0,0.0,0.0,0.0,0.0,0.0,0.0,0.0,0.0,0.0,0.0,0.0,0.0,0.0,0.0,0.0,0.0,0.0,0.0,0.0,0.0,0.0,0.0,0.0,0.0,0.0,0.0,0.0,0.0,0.0,0.0,0.0,0.0,0.0,0.0,0.0,0.0,0.0,0.0,0.0,0.0,0.0,0.0,0.0,0.0,0.0,0.0,0.0,0.0,0.0,0.0,0.0,0.0,0.0,0.0,0.0,0.0,0.0,0.0,0.0,0.0,0.0,0.0,0.0,0.0,0.0,0.0,0.0,0.0,0.0,0.0,0.0,0.0,0.0,0.0,0.0,0.0,-2.4818,-2.4953,-2.4966,0.0,-2.6293,0.0,0.0,0.0,0.0,0.0,0.0,0.0,0.0,0.0,0.0,0.0,0.0,0.0,0.0,0.0,0.0,0.0,0.0,0.0,0.0,0.0,0.0,0.0,0.0,0.0,0.0,0.0,0.0,0.0,0.0,0.0,0.0,0.0,0.0,0.0,0.0,0.0,0.0,0.0,0.0,0.0,0.0,0.0,0.0,0.0,0.0,0.0,0.0,0.0,0.0,0.0,0.0,0.0,0.0,0.0,0.0,0.0,0.0,0.0,0.0,0.0,0.0,0.0,0.0,0.0,0.0,0.0,0.0,0.0,0.0,0.0,0.0,0.0,0.0,0.0,0.0,0.0,0.0,0.0,0.0,0.0,0.0,0.0,0.0,0.0,0.0,0.0,0.0,0.0,0.0,0.0,0.0,0.0,0.0,0.0,0.0,0.0,0.0,0.0,0.0,0.0,0.0,0.0,0.0,0.0,0.0,0.0,0.0,0.0,0.0,-2.5031,-2.5164,-2.522,-2.5426,0.0,0.0,0.0,0.0,0.0,0.0,0.0,0.0,0.0,0.0,0.0,0.0,0.0,0.0,0.0,0.0,0.0,0.0,0.0,0.0,0.0,0.0,0.0,0.0,0.0,0.0,0.0,0.0,0.0,0.0,0.0,0.0,0.0,0.0,0.0,0.0,0.0,0.0,0.0,0.0,0.0,0.0,0.0,0.0,0.0,0.0,0.0,0.0,0.0,0.0,0.0,0.0,0.0,0.0,0.0,0.0,0.0,0.0,0.0,0.0,0.0,0.0,0.0,0.0,0.0,0.0,0.0,0.0,0.0,0.0,0.0,0.0,0.0,0.0,0.0,0.0,0.0,0.0,0.0,0.0,0.0,0.0,0.0,0.0,0.0,0.0,0.0,0.0,0.0,0.0,0.0,0.0,0.0,0.0,0.0,0.0,0.0,0.0,0.0,0.0,0.0,0.0,0.0,0.0,0.0,0.0,0.0,0.0,0.0,0.0,-2.516,-2.5233,-2.5341,-2.5406,-2.5421,-2.5412,0.0,0.0,0.0,0.0,0.0,0.0,0.0,0.0,0.0,0.0,0.0,0.0,0.0,0.0,0.0,0.0,0.0,0.0,0.0,0.0,0.0,0.0,0.0,0.0,0.0,0.0,0.0,0.0,0.0,0.0,0.0,0.0,0.0,0.0,0.0,0.0,0.0,0.0,0.0,0.0,0.0,0.0,0.0,0.0,0.0,0.0,0.0,0.0,0.0,0.0,0.0,0.0,0.0,0.0,0.0,0.0,0.0,0.0,0.0,0.0,0.0,0.0,0.0,0.0,0.0,0.0,0.0,0.0,0.0,0.0,0.0,0.0,0.0,0.0,0.0,0.0,0.0,0.0,0.0,0.0,0.0,0.0,0.0,0.0,0.0,0.0,0.0,0.0,0.0,0.0,0.0,0.0,0.0,0.0,0.0,0.0,0.0,0.0,0.0,0.0,0.0,0.0,0.0,0.0,0.0,0.0,0.0,0.0,-2.5264,-2.5311,-2.5385,-2.5445,-2.548,-2.5476,0.0,0.0,0.0,0.0,0.0,0.0,0.0,0.0,0.0,0.0,0.0,0.0,0.0,0.0,0.0,0.0,0.0,0.0,0.0,0.0,0.0,0.0,0.0,0.0,0.0,0.0,0.0,0.0,0.0,0.0,0.0,0.0,0.0,0.0,0.0,0.0,0.0,0.0,0.0,0.0,0.0,0.0,0.0,0.0,0.0,0.0,0.0,0.0,0.0,0.0,0.0,0.0,0.0,0.0,0.0,0.0,0.0,0.0,0.0,0.0,0.0,0.0,0.0,0.0,0.0,0.0,0.0,0.0,0.0,0.0,0.0,0.0,0.0,0.0,0.0,0.0,0.0,0.0,0.0,0.0,0.0,0.0,0.0,0.0,0.0,0.0,0.0,0.0,0.0,0.0,0.0,0.0,0.0,0.0,0.0,0.0,0.0,0.0,0.0,0.0,0.0,0.0,0.0,0.0,0.0,0.0,0.0,0.0,0.0,-2.4602,-2.4115,-2.387,-2.3902,-2.4424,-2.4741,0.0,0.0,0.0,0.0,0.0,0.0,0.0,0.0,0.0,0.0,0.0,0.0,0.0,0.0,0.0,0.0,0.0,0.0,0.0,0.0,0.0,0.0,0.0,0.0,0.0,0.0,0.0,0.0,0.0,0.0,0.0,0.0,0.0,0.0,0.0,0.0,0.0,0.0,0.0,0.0,0.0,0.0,0.0,0.0,0.0,0.0,0.0,0.0,0.0,0.0,0.0,0.0,0.0,0.0,0.0,0.0,0.0,0.0,0.0,0.0,0.0,0.0,0.0,0.0,0.0,0.0,0.0,0.0,0.0,0.0,0.0,0.0,0.0,0.0,0.0,0.0,0.0,0.0,0.0,0.0,0.0,0.0,0.0,0.0,0.0,0.0,0.0,0.0,0.0,0.0,0.0,0.0,0.0,0.0,0.0,0.0,0.0,0.0,0.0,0.0,0.0,0.0,0.0,0.0,0.0,0.0,0.0,0.0,0.0,-2.4251,0.0,-2.3043,-2.3047,-2.3582,-2.4049,0.0,0.0,0.0,0.0,0.0,0.0,0.0,0.0,0.0,0.0,0.0,0.0,0.0,0.0,0.0,0.0,0.0,0.0,0.0,0.0,0.0,0.0,0.0,0.0,0.0,0.0,0.0,0.0,0.0,0.0,0.0,0.0,0.0,0.0,0.0,0.0,0.0,0.0,0.0,0.0,0.0,0.0,0.0,0.0,0.0,0.0,0.0,0.0,0.0,0.0,0.0,0.0,0.0,0.0,0.0,0.0,0.0,0.0,0.0,0.0,0.0,0.0,0.0,0.0,0.0,0.0,0.0,0.0,0.0,0.0,0.0,0.0,0.0,0.0,0.0,0.0,0.0,0.0,0.0,0.0,0.0,0.0,0.0,0.0,0.0,0.0,0.0,0.0,0.0,0.0,0.0,0.0,0.0,0.0,0.0,0.0,0.0,0.0,0.0,0.0,0.0,0.0,0.0,0.0,0.0,0.0,0.0,0.0,-2.5141,-2.4316,-2.3543,-2.317,-2.3123,-2.3205,-2.3603,0.0,0.0,0.0,0.0,0.0,0.0,0.0,0.0,0.0,0.0,0.0,0.0,0.0,0.0,0.0,0.0,0.0,0.0,0.0,0.0,0.0,0.0,0.0,0.0,0.0,0.0,0.0,0.0,0.0,0.0,0.0,0.0,0.0,0.0,0.0,0.0,0.0,0.0,0.0,0.0,0.0,0.0,0.0,0.0,0.0,0.0,0.0,0.0,0.0,0.0,0.0,0.0,0.0,0.0,0.0,0.0,0.0,0.0,0.0,0.0,0.0,0.0,0.0,0.0,0.0,0.0,0.0,0.0,0.0,0.0,0.0,0.0,0.0,0.0,0.0,0.0,0.0,0.0,0.0,0.0,0.0,0.0,0.0,0.0,0.0,0.0,0.0,0.0,0.0,0.0,0.0,0.0,0.0,0.0,0.0,0.0,0.0,0.0,0.0,0.0,0.0,0.0,0.0,0.0,0.0,0.0,0.0,0.0,0.0,-2.442,-2.4128,-2.3998,-2.4021,-2.4586,-2.5308,0.0,0.0,0.0,0.0,0.0,0.0,0.0,0.0,0.0,0.0,0.0,0.0,0.0,0.0,0.0,0.0,0.0,0.0,0.0,0.0,0.0,0.0,0.0,0.0,0.0,0.0,0.0,0.0,0.0,0.0,0.0,0.0,0.0,0.0,0.0,0.0,0.0,0.0,0.0,0.0,0.0,0.0,0.0,0.0,0.0,0.0,0.0,0.0,0.0,0.0,0.0,0.0,0.0,0.0,0.0,0.0,0.0,0.0,0.0,0.0,0.0,0.0,0.0,0.0,0.0,0.0,0.0,0.0,0.0,0.0,0.0,0.0,0.0,0.0,0.0,0.0,0.0,0.0,0.0,0.0,0.0,0.0,0.0,0.0,0.0,0.0,0.0,0.0,0.0,0.0,0.0,0.0,0.0,0.0,0.0,0.0,0.0,0.0,0.0,0.0,0.0,0.0,0.0,0.0,0.0,0.0,0.0,0.0,0.0,-2.5893,-2.55,-2.5338,-2.533,-2.5547,-2.608,-2.6945,0.0,0.0,0.0,0.0,0.0,0.0,0.0,0.0,0.0,0.0,0.0,0.0,0.0,0.0,0.0,0.0,0.0,0.0,0.0,0.0,0.0,0.0,0.0,0.0,0.0,0.0,0.0,0.0,0.0,0.0,0.0,0.0,0.0,0.0,0.0,0.0,0.0,0.0,0.0,0.0,0.0,0.0,0.0,0.0,0.0,0.0,0.0,0.0,0.0,0.0,0.0,0.0,0.0,0.0,0.0,0.0,0.0,0.0,0.0,0.0,0.0,0.0,0.0,0.0,0.0,0.0,0.0,0.0,0.0,0.0,0.0,0.0,0.0,0.0,0.0,0.0,0.0,0.0,0.0,0.0,0.0,0.0,0.0,0.0,0.0,0.0,0.0,0.0,0.0,0.0,0.0,0.0,0.0,0.0,0.0,0.0,0.0,0.0,0.0,0.0,0.0,0.0,0.0,0.0,0.0,0.0,0.0,0.0,-2.8429,-2.7692,-2.7322,-2.721,-2.6354,-2.6238,0.0,0.0,0.0,0.0,0.0,0.0,0.0,0.0,0.0,0.0,0.0,0.0,0.0,0.0,0.0,0.0,0.0,0.0,0.0,0.0,0.0,0.0,0.0,0.0,0.0,0.0,0.0,0.0,0.0,0.0,0.0,0.0,0.0,0.0,0.0,0.0,0.0,0.0,0.0,0.0,0.0,0.0,0.0,0.0,0.0,0.0,0.0,0.0,0.0,0.0,0.0,0.0,0.0,0.0,0.0,0.0,0.0,0.0,0.0,0.0,0.0,0.0,0.0,0.0,0.0,0.0,0.0,0.0,0.0,0.0,0.0,0.0,0.0,0.0,0.0,0.0,0.0,0.0,0.0,0.0,0.0,0.0,0.0,0.0,0.0,0.0,0.0,0.0,0.0,0.0,0.0,0.0,0.0,0.0,0.0,0.0,0.0,0.0,0.0,0.0,0.0,0.0,0.0,0.0,0.0,0.0,0.0,0.0,0.0,-3.0943,-3.1899,-3.1868,-3.0685,-2.9195,-2.8818,0.0,0.0,0.0,0.0,0.0,0.0,0.0,0.0,0.0,0.0,0.0,0.0,0.0,0.0,0.0,0.0,0.0,0.0,0.0,0.0,0.0,0.0,0.0,0.0,0.0,0.0,0.0,0.0,0.0,0.0,0.0,0.0,0.0,0.0,0.0,0.0,0.0,0.0,0.0,0.0,0.0,0.0,0.0,0.0,0.0,0.0,0.0,0.0,0.0,0.0,0.0,0.0,0.0,0.0,0.0,0.0,0.0,0.0,0.0,0.0,0.0,0.0,0.0,0.0,0.0,0.0,0.0,0.0,0.0,0.0,0.0,0.0,0.0,0.0,0.0,0.0,0.0,0.0,0.0,0.0,0.0,0.0,0.0,0.0,0.0,0.0,0.0,0.0,0.0,0.0,0.0,0.0,0.0,0.0,0.0,0.0,0.0,0.0,0.0,0.0,0.0,0.0,0.0,0.0,0.0,0.0,0.0,0.0,-3.1992,-3.2477,-3.4778,-3.5563,-3.4633,-3.1906,-3.0513,0.0,0.0,0.0,0.0,0.0,0.0,0.0,0.0,0.0,0.0,0.0,0.0,0.0,0.0,0.0,0.0,0.0,0.0,0.0,0.0,0.0,0.0,0.0,0.0,0.0,0.0,0.0,0.0,0.0,0.0,0.0,0.0,0.0,0.0,0.0,0.0,0.0,0.0,0.0,0.0,0.0,0.0,0.0,0.0,0.0,0.0,0.0,0.0,0.0,0.0,0.0,0.0,0.0,0.0,0.0,0.0,0.0,0.0,0.0,0.0,0.0,0.0,0.0,0.0,0.0,0.0,0.0,0.0,0.0,0.0,0.0,0.0,0.0,0.0,0.0,0.0,0.0,0.0,0.0,0.0,0.0,0.0,0.0,0.0,0.0,0.0,0.0,0.0,0.0,0.0,0.0,0.0,0.0,0.0,0.0,0.0,0.0,0.0,0.0,0.0,0.0,0.0,0.0,0.0,0.0,0.0,0.0,0.0,-3.3313,-3.3626,-3.6605,-3.8175,-3.8061,-3.4262,-3.1748,0.0,0.0,0.0,0.0,0.0,0.0,0.0,0.0,0.0,0.0,0.0,0.0,0.0,0.0,0.0,0.0,0.0,0.0,0.0,0.0,0.0,0.0,0.0,0.0,0.0,0.0,0.0,0.0,0.0,0.0,0.0,0.0,0.0,0.0,0.0,0.0,0.0,0.0,0.0,0.0,0.0,0.0,0.0,0.0,0.0,0.0,0.0,0.0,0.0,0.0,0.0,0.0,0.0,0.0,0.0,0.0,0.0,0.0,0.0,0.0,0.0,0.0,0.0,0.0,0.0,0.0,0.0,0.0,0.0,0.0,0.0,0.0,0.0,0.0,0.0,0.0,0.0,0.0,0.0,0.0,0.0,0.0,0.0,0.0,0.0,0.0,0.0,0.0,0.0,0.0,0.0,0.0,0.0,0.0,0.0,0.0,0.0,0.0,0.0,0.0,0.0,0.0,0.0,0.0,0.0,0.0,0.0,0.0,-3.4098,-3.6057,-3.743,-3.8099,-3.8034,-3.5283,-3.3376,0.0,0.0,0.0,0.0,0.0,0.0,0.0,0.0,0.0,0.0,0.0,0.0,0.0,0.0,0.0,0.0,0.0,0.0,0.0,0.0,0.0,0.0,0.0,0.0,0.0,0.0,0.0,0.0,0.0,0.0,0.0,0.0,0.0,0.0,0.0,0.0,0.0,0.0,0.0,0.0,0.0,0.0,0.0,0.0,0.0,0.0,0.0,0.0,-3.5985,0.0,0.0,0.0,0.0,0.0,0.0,0.0,0.0,0.0,0.0,0.0,0.0,0.0,0.0,0.0,0.0,0.0,0.0,0.0,0.0,0.0,0.0,0.0,0.0,0.0,0.0,0.0,0.0,0.0,0.0,0.0,0.0,0.0,0.0,0.0,0.0,0.0,0.0,0.0,0.0,0.0,0.0,0.0,0.0,0.0,0.0,0.0,0.0,0.0,0.0,0.0,0.0,0.0,0.0,0.0,0.0,0.0,0.0,0.0,-3.4913,-3.7379,-3.8639,-3.9248,-3.9143,-3.742,-3.5345,0.0,0.0,0.0,0.0,0.0,0.0,0.0,0.0,0.0,0.0,0.0,0.0,0.0,0.0,0.0,0.0,0.0,0.0,0.0,0.0,0.0,0.0,0.0,0.0,0.0,0.0,0.0,0.0,0.0,0.0,0.0,0.0,0.0,0.0,0.0,0.0,0.0,0.0,0.0,0.0,0.0,0.0,0.0,0.0,0.0,0.0,0.0,0.0,0.0,0.0,0.0,0.0,0.0,0.0,0.0,0.0,0.0,0.0,0.0,0.0,0.0,0.0,0.0,0.0,0.0,0.0,0.0,0.0,0.0,0.0,0.0,0.0,0.0,0.0,0.0,0.0,0.0,0.0,0.0,0.0,0.0,0.0,0.0,0.0,0.0,0.0,0.0,0.0,0.0,0.0,0.0,0.0,0.0,0.0,0.0,0.0,0.0,0.0,0.0,0.0,0.0,0.0,0.0,0.0,0.0,0.0,0.0,-3.3445,-3.5912,-3.8381,-3.986,-4.0598,-4.0573,-3.948,-3.7187,-3.3634,0.0,0.0,0.0,0.0,0.0,0.0,0.0,0.0,0.0,0.0,0.0,0.0,0.0,0.0,0.0,0.0,0.0,0.0,0.0,0.0,0.0,0.0,0.0,0.0,0.0,0.0,0.0,0.0,0.0,0.0,0.0,0.0,0.0,0.0,0.0,0.0,0.0,0.0,-3.5198,-3.5823,0.0,0.0,0.0,0.0,0.0,0.0,0.0,0.0,-3.7752,0.0,0.0,0.0,0.0,0.0,0.0,0.0,0.0,0.0,0.0,0.0,0.0,0.0,0.0,0.0,0.0,0.0,0.0,0.0,0.0,0.0,0.0,0.0,0.0,0.0,0.0,0.0,0.0,0.0,0.0,0.0,0.0,0.0,0.0,0.0,0.0,0.0,0.0,0.0,0.0,0.0,0.0,0.0,0.0,0.0,0.0,0.0,0.0,0.0,0.0,0.0,0.0,0.0,0.0,0.0,0.0,-3.3643,-3.5476,-3.761,-4.0038,-4.0385,-4.0504,-4.0485,-3.9484,-3.7978,-3.6059,0.0,0.0,0.0,0.0,0.0,0.0,0.0,0.0,0.0,0.0,0.0,0.0,0.0,0.0,0.0,0.0,0.0,0.0,0.0,0.0,0.0,0.0,0.0,0.0,0.0,0.0,0.0,0.0,0.0,0.0,0.0,0.0,0.0,0.0,0.0,0.0,0.0,0.0,0.0,-3.7419,-3.7439,0.0,0.0,0.0,0.0,0.0,0.0,0.0,0.0,-3.9765,0.0,0.0,0.0,0.0,0.0,0.0,0.0,0.0,0.0,0.0,0.0,0.0,0.0,0.0,0.0,0.0,0.0,0.0,0.0,0.0,0.0,0.0,0.0,0.0,0.0,0.0,0.0,0.0,0.0,0.0,0.0,0.0,0.0,0.0,0.0,0.0,0.0,0.0,0.0,0.0,0.0,0.0,0.0,0.0,0.0,0.0,0.0,0.0,0.0,0.0,0.0,0.0,0.0,0.0,0.0,-3.4229,-3.6806,-3.909,-4.1104,-4.1623,-4.1854,-4.1816,-4.0345,-3.8801,0.0,0.0,0.0,0.0,0.0,0.0,0.0,0.0,0.0,0.0,0.0,0.0,0.0,0.0,0.0,0.0,0.0,0.0,0.0,0.0,0.0,0.0,0.0,0.0,0.0,0.0,0.0,0.0,0.0,0.0,0.0,0.0,0.0,0.0,0.0,0.0,0.0,0.0,0.0,0.0,-3.8435,-3.8549,-4.0288,0.0,0.0,0.0,0.0,0.0,0.0,-4.1364,-4.2181,0.0,0.0,0.0,0.0,0.0,0.0,0.0,0.0,0.0,0.0,0.0,0.0,0.0,0.0,0.0,0.0,0.0,0.0,0.0,0.0,0.0,0.0,0.0,0.0,0.0,0.0,0.0,0.0,0.0,0.0,0.0,0.0,0.0,0.0,0.0,0.0,0.0,0.0,0.0,0.0,0.0,0.0,0.0,0.0,0.0,0.0,0.0,0.0,0.0,0.0,0.0,0.0,0.0,0.0,0.0,-3.5046,-3.818,-4.0539,-4.2027,-4.2739,-4.3069,-4.296,-4.0977,-3.9259,0.0,0.0,0.0,0.0,0.0,0.0,0.0,0.0,0.0,0.0,0.0,0.0,0.0,0.0,0.0,0.0,0.0,0.0,0.0,0.0,0.0,0.0,0.0,0.0,0.0,0.0,0.0,0.0,0.0,0.0,0.0,0.0,0.0,0.0,0.0,0.0,0.0,0.0,0.0,0.0,0.0,-3.9887,-4.2285,-4.1465,0.0,0.0,0.0,0.0,-4.2518,-4.4026,0.0,0.0,0.0,0.0,0.0,0.0,0.0,0.0,0.0,0.0,0.0,0.0,0.0,0.0,0.0,0.0,0.0,0.0,0.0,0.0,0.0,0.0,0.0,0.0,0.0,0.0,0.0,0.0,0.0,0.0,0.0,0.0,0.0,0.0,0.0,0.0,0.0,0.0,0.0,0.0,0.0,0.0,0.0,0.0,0.0,0.0,0.0,0.0,0.0,0.0,0.0,0.0,0.0,0.0,0.0,0.0,-3.7544,-4.0169,-4.1963,-4.2912,-4.3047,-4.3,-4.2737,-4.0461,-3.8685,0.0,0.0,0.0,0.0,0.0,0.0,0.0,0.0,0.0,0.0,0.0,0.0,0.0,0.0,0.0,0.0,0.0,0.0,0.0,0.0,0.0,0.0,0.0,0.0,0.0,0.0,0.0,0.0,0.0,0.0,0.0,0.0,0.0,0.0,0.0,0.0,0.0,0.0,0.0,0.0,0.0,-4.1432,-4.3212,-4.3348,-4.3241,0.0,0.0,-4.5209,-4.6851,-4.6527,0.0,0.0,0.0,0.0,0.0,0.0,0.0,0.0,0.0,0.0,0.0,0.0,0.0,0.0,0.0,0.0,0.0,0.0,0.0,0.0,0.0,0.0,0.0,0.0,0.0,0.0,0.0,0.0,0.0,0.0,0.0,0.0,0.0,0.0,0.0,0.0,0.0,0.0,0.0,0.0,0.0,0.0,0.0,0.0,0.0,0.0,0.0,0.0,0.0,0.0,0.0,0.0,0.0,0.0,0.0,-3.5905,-3.7811,-4.1203,-4.3101,-4.3345,-4.3802,-4.3986,-4.3833,-4.1504,-3.9564,0.0,0.0,0.0,0.0,0.0,0.0,0.0,0.0,0.0,0.0,0.0,0.0,0.0,0.0,0.0,0.0,0.0,0.0,0.0,0.0,0.0,0.0,0.0,0.0,0.0,0.0,0.0,0.0,0.0,0.0,0.0,0.0,0.0,0.0,0.0,0.0,0.0,0.0,0.0,0.0,0.0,0.0,-4.4111,-4.48,0.0,0.0,0.0,-4.65,-4.687,0.0,0.0,0.0,0.0,0.0,0.0,0.0,0.0,0.0,0.0,0.0,0.0,0.0,0.0,0.0,0.0,0.0,0.0,0.0,0.0,0.0,0.0,0.0,0.0,0.0,0.0,0.0,0.0,0.0,0.0,0.0,0.0,0.0,0.0,0.0,0.0,0.0,0.0,0.0,0.0,0.0,0.0,0.0,0.0,0.0,0.0,0.0,0.0,0.0,0.0,0.0,0.0,0.0,0.0,0.0,0.0,0.0,-3.8251,-4.2081,-4.3992,-4.3829,-4.4429,-4.4701,-4.4553,-4.2459,0.0,0.0,0.0,0.0,0.0,0.0,0.0,0.0,0.0,0.0,0.0,0.0,0.0,0.0,0.0,0.0,0.0,0.0,0.0,0.0,0.0,0.0,0.0,0.0,0.0,0.0,0.0,-3.3755,0.0,0.0,0.0,0.0,0.0,0.0,0.0,0.0,0.0,0.0,0.0,0.0,0.0,0.0,-4.3557,-4.5254,-4.6236,-4.6867,0.0,0.0,-4.7587,-4.7108,-4.8908,-4.9512,0.0,0.0,0.0,0.0,0.0,0.0,0.0,0.0,0.0,0.0,0.0,0.0,0.0,0.0,0.0,0.0,0.0,0.0,0.0,0.0,0.0,0.0,0.0,0.0,0.0,0.0,0.0,0.0,0.0,0.0,0.0,0.0,0.0,0.0,0.0,0.0,0.0,0.0,0.0,0.0,0.0,0.0,0.0,0.0,0.0,0.0,0.0,0.0,0.0,0.0,0.0,0.0,0.0,0.0,0.0,-3.9967,-4.2976,-4.4562,-4.4625,-4.4612,-4.4493,-4.4213,-4.2696,-4.0671,0.0,0.0,0.0,0.0,0.0,0.0,0.0,0.0,0.0,0.0,0.0,0.0,0.0,0.0,0.0,0.0,0.0,0.0,0.0,0.0,0.0,0.0,0.0,0.0,0.0,0.0,0.0,0.0,0.0,0.0,0.0,0.0,0.0,0.0,0.0,0.0,0.0,0.0,0.0,0.0,0.0,-4.524,-4.6912,-4.7884,-4.8711,0.0,0.0,-4.8711,-4.9197,-5.0303,-5.0351,-4.8127,0.0,0.0,0.0,0.0,0.0,0.0,0.0,0.0,0.0,0.0,0.0,0.0,0.0,0.0,0.0,0.0,0.0,0.0,0.0,0.0,0.0,0.0,0.0,0.0,0.0,0.0,0.0,0.0,0.0,0.0,0.0,0.0,0.0,0.0,0.0,0.0,0.0,0.0,0.0,0.0,0.0,0.0,0.0,0.0,0.0,0.0,0.0,0.0,0.0,0.0,0.0,0.0,0.0,-3.8495,-3.9981,-4.3018,-4.4519,-4.4402,-4.4192,-4.4017,-4.3809,-4.2872,-4.1491,0.0,0.0,0.0,0.0,0.0,0.0,0.0,0.0,0.0,0.0,0.0,0.0,0.0,0.0,0.0,0.0,0.0,0.0,0.0,0.0,0.0,0.0,0.0,0.0,0.0,0.0,0.0,0.0,-4.0323,-4.0846,-3.9821,0.0,0.0,0.0,0.0,0.0,0.0,0.0,0.0,0.0,0.0,-4.6143,-4.7811,-4.8802,0.0,0.0,-4.9551,-4.9217,-4.8922,-5.02,-5.0156,-4.7114,-4.4589,0.0,0.0,0.0,0.0,0.0,0.0,0.0,0.0,0.0,0.0,0.0,0.0,0.0,0.0,0.0,0.0,0.0,0.0,0.0,0.0,0.0,0.0,0.0,0.0,0.0,0.0,0.0,0.0,0.0,0.0,0.0,0.0,0.0,0.0,0.0,0.0,0.0,0.0,0.0,0.0,0.0,0.0,0.0,0.0,0.0,0.0,0.0,0.0,0.0,0.0,0.0,0.0,-3.8289,-3.9747,-4.2739,-4.4202,-4.4011,-4.3814,-4.3686,-4.3582,-4.3166,-4.2192,0.0,0.0,0.0,0.0,0.0,0.0,0.0,0.0,0.0,0.0,0.0,0.0,0.0,0.0,0.0,0.0,0.0,0.0,0.0,0.0,0.0,0.0,0.0,0.0,0.0,0.0,0.0,0.0,-4.1277,-4.115,-3.9468,0.0,0.0,0.0,0.0,0.0,0.0,0.0,0.0,0.0,0.0,-4.7156,-4.8302,-4.9,-4.9382,-4.9382,-4.9168,-4.9059,-4.9187,-5.0015,-4.9509,-4.631,0.0,0.0,0.0,0.0,0.0,0.0,0.0,0.0,0.0,0.0,0.0,0.0,0.0,0.0,0.0,0.0,0.0,0.0,0.0,0.0,0.0,0.0,0.0,0.0,0.0,0.0,0.0,0.0,0.0,0.0,-2.6047,0.0,0.0,0.0,0.0,0.0,0.0,0.0,0.0,0.0,0.0,0.0,0.0,0.0,0.0,0.0,0.0,0.0,0.0,0.0,0.0,0.0,0.0,-3.7746,-3.9427,-4.2162,-4.3582,-4.3615,-4.3548,-4.3479,-4.3479,-4.3461,-4.2776,-4.1304,0.0,0.0,0.0,0.0,0.0,0.0,0.0,0.0,0.0,0.0,0.0,0.0,0.0,0.0,0.0,0.0,0.0,0.0,0.0,0.0,0.0,0.0,0.0,0.0,0.0,0.0,-3.9663,-4.0413,-4.0238,0.0,0.0,0.0,0.0,0.0,0.0,0.0,0.0,0.0,0.0,-4.6778,-4.8352,-4.841,-4.843,-4.844,-4.8477,-4.7787,-4.8075,-5.0395,-4.9877,-4.8454,0.0,0.0,0.0,0.0,0.0,0.0,0.0,0.0,0.0,0.0,0.0,0.0,0.0,0.0,0.0,0.0,0.0,0.0,0.0,0.0,0.0,0.0,0.0,0.0,0.0,0.0,0.0,-2.7737,-2.9271,0.0,0.0,0.0,0.0,0.0,0.0,0.0,0.0,0.0,0.0,0.0,-3.5855,-3.5322,0.0,0.0,0.0,0.0,0.0,0.0,0.0,0.0,0.0,0.0,0.0,0.0,-3.7977,-3.965,-4.2385,-4.3846,-4.3878,-4.3615,-4.3479,-4.3479,-4.3446,-4.2711,-4.1209,0.0,0.0,0.0,0.0,0.0,0.0,0.0,0.0,0.0,0.0,0.0,0.0,0.0,0.0,0.0,0.0,0.0,0.0,0.0,0.0,0.0,0.0,0.0,0.0,0.0,-4.0339,0.0,0.0,0.0,0.0,0.0,0.0,0.0,0.0,0.0,0.0,0.0,-4.4446,-4.6158,-4.7074,-4.7796,-4.8329,-4.7903,-4.7942,0.0,0.0,0.0,0.0,0.0,0.0,0.0,0.0,0.0,0.0,0.0,0.0,0.0,0.0,-4.1638,-4.0828,-4.1137,-4.1509,-4.1509,0.0,0.0,0.0,0.0,0.0,0.0,0.0,0.0,0.0,0.0,0.0,0.0,0.0,0.0,-2.8735,0.0,-3.023,0.0,0.0,0.0,0.0,0.0,0.0,0.0,0.0,-3.6523,-3.7894,-3.8564,-3.7985,-3.776,0.0,-3.6758,-3.5606,0.0,0.0,0.0,0.0,0.0,0.0,0.0,0.0,-3.8249,-3.9914,-4.2433,-4.38,-4.3781,-4.3566,-4.3428,-4.3393,-4.3358,-4.2864,-4.187,-4.0868,-3.9411,0.0,0.0,0.0,0.0,0.0,0.0,0.0,0.0,0.0,0.0,0.0,0.0,0.0,0.0,0.0,0.0,0.0,0.0,0.0,0.0,0.0,0.0,0.0,-4.0954,0.0,0.0,0.0,0.0,0.0,0.0,0.0,0.0,0.0,-4.4073,-4.5022,-4.604,-4.74,-4.7859,-4.8053,-4.7947,0.0,0.0,0.0,0.0,0.0,0.0,0.0,-4.5631,-4.5133,-4.5849,-4.6351,-4.5901,-4.5526,-4.5282,-4.5282,0.0,0.0,-4.3582,-4.3678,-4.416,-4.4469,-4.4511,-4.4608,-4.4877,-4.5591,-4.6345,0.0,0.0,0.0,0.0,0.0,0.0,0.0,0.0,-2.9554,-3.0052,0.0,-3.2563,0.0,0.0,0.0,0.0,0.0,-3.4357,0.0,0.0,-4.0477,-4.1592,-4.0864,-4.081,-4.0828,-4.0789,-3.9424,-3.8737,-3.864,-3.7292,0.0,0.0,0.0,0.0,0.0,0.0,-3.8571,-4.0226,-4.2338,-4.3376,-4.3394,-4.3394,-4.334,-4.3214,-4.3196,-4.3196,-4.3142,-4.1736,-4.1013,-4.0997,-3.7515,0.0,0.0,0.0,0.0,0.0,0.0,0.0,0.0,0.0,0.0,0.0,0.0,0.0,0.0,0.0,0.0,0.0,0.0,0.0,0.0,-4.1016,0.0,0.0,0.0,0.0,0.0,0.0,0.0,0.0,0.0,0.0,-4.451,-4.6017,-4.7384,-4.8137,0.0,0.0,0.0,0.0,-4.7715,-4.6195,-4.5833,-4.5283,-4.382,-4.4858,-4.6422,-4.8086,0.0,0.0,-4.8593,-4.767,-4.7191,-4.708,-4.8468,-4.8852,-4.6439,-4.6108,-4.634,-4.7075,-4.7306,-4.7461,-4.8212,-4.9044,-4.9662,-3.1249,0.0,0.0,0.0,0.0,-2.9455,-3.0778,-3.3019,-3.3146,-3.3613,-3.4347,-3.543,0.0,0.0,0.0,0.0,0.0,0.0,-3.8323,-3.9758,-4.1232,-4.2069,-4.2286,-4.2286,-4.2286,-4.2268,-4.1851,-4.1723,-4.1758,-4.1302,-3.9643,-3.6945,0.0,0.0,0.0,0.0,-3.9239,-4.0772,-4.2425,-4.3251,-4.3251,-4.3251,-4.3214,-4.3123,-4.3123,-4.3086,-4.2957,-4.2559,-4.1868,-4.093,-3.9877,0.0,0.0,0.0,0.0,0.0,0.0,0.0,0.0,0.0,0.0,0.0,0.0,0.0,0.0,0.0,0.0,0.0,0.0,0.0,-4.2813,-4.2978,-4.2341,0.0,0.0,0.0,0.0,0.0,0.0,0.0,0.0,0.0,-4.6005,-4.6667,-4.7105,0.0,0.0,-4.6673,-4.619,-4.6329,-4.6735,-4.7465,-4.6557,0.0,0.0,-4.6761,-4.7414,-4.9628,-4.9961,-4.9716,-4.9236,-4.9874,-5.0471,-5.0452,-5.1395,-5.1876,-5.128,-5.1068,-5.1106,-5.1395,-5.1434,-5.1491,-5.1761,-5.2472,-5.3031,-3.6055,-3.4549,-3.2212,-3.1822,-3.2724,-3.2678,-3.3871,-3.587,-3.5797,-3.6079,-3.6684,-3.7517,-3.6911,-3.54,-3.5846,0.0,0.0,0.0,-4.009,-4.1542,-4.2068,-4.2522,-4.2882,-4.2862,-4.2862,-4.29,-4.29,-4.2938,-4.3012,-4.2685,-4.1466,-3.9461,0.0,0.0,-3.8633,-3.9258,-4.018,-4.14,-4.2558,-4.3142,-4.3142,-4.3087,-4.305,-4.3031,-4.2994,-4.2994,-4.29,-4.29,-4.2503,-4.1669,-4.1138,-3.9812,0.0,0.0,0.0,0.0,0.0,0.0,0.0,0.0,0.0,0.0,0.0,-3.6024,0.0,0.0,0.0,0.0,-4.2227,-4.345,-4.4991,-4.4145,0.0,0.0,0.0,0.0,0.0,0.0,0.0,-4.2986,-4.4729,-4.611,-4.676,-4.7197,-4.7559,-4.7923,-4.7535,-4.7089,-4.678,0.0,-4.7475,-4.8208,-4.7417,-4.7111,-4.8193,-4.8155,-4.8634,-5.0407,-5.0604,-5.0452,-5.049,-5.1549,-5.2375,-5.251,-5.3126,-5.3722,-5.3722,-5.3972,-5.4068,-5.378,-5.3722,-5.3818,-5.4107,-5.4626,-5.4972,-3.9325,-3.8966,-3.379,-3.2806,-3.4583,-3.4616,-3.5823,-3.7619,-3.7702,-3.7718,-3.7848,-3.8894,-3.8911,-3.8146,-3.8255,0.0,-4.0509,-4.0601,-4.1413,-4.2765,-4.2824,-4.2882,-4.29,-4.2822,-4.2804,-4.29,-4.2882,-4.2882,-4.2864,-4.225,-4.1923,-4.1741,-4.1197,-4.0555,-3.982,-4.0461,-4.1192,-4.1958,-4.265,-4.2995,-4.3067,-4.2956,-4.2882,-4.29,-4.29,-4.29,-4.2882,-4.2882,-4.2882,-4.2846,-4.1633,-4.0884,-4.063,0.0,0.0,0.0,0.0,0.0,0.0,0.0,0.0,0.0,0.0,0.0,0.0,0.0,0.0,0.0,-4.4204,0.0,-4.6669,-4.4852,0.0,0.0,0.0,-4.2786,-4.3574,-4.3946,-4.4465,-4.529,0.0,0.0,-4.7087,-4.774,-4.8547,-4.9469,-4.9467,-4.9116,-4.8384,-4.8885,-4.9232,-4.8538,-4.8461,-4.8482,-4.8678,-4.9314,-5.0086,-5.076,-5.1471,-5.1933,-5.201,-5.2683,-5.3241,-5.3299,-5.401,-5.4587,-5.4587,-5.5126,-5.5472,-5.4701,-5.4587,-5.4818,-5.5415,-5.5607,-5.5626,-3.8914,-3.887,-3.7541,-3.7517,-3.8405,-3.8405,-3.8723,-3.9158,-3.9158,-3.921,-3.9261,-3.988,-4.0441,-4.0948,-4.0955,-4.1381,-4.2073,-4.2091,-4.2271,-4.2631,-4.2688,-4.267,-4.2688,-4.2631,-4.2649,-4.267,-4.2688,-4.2688,-4.267,-4.249,-4.24,-4.2382,-4.2258,-4.154,-4.0363,-4.0597,-4.1069,-4.1778,-4.1885,-4.2208,-4.2709,-4.2765,-4.2783,-4.2688,-4.2765,-4.2765,-4.267,-4.2688,-4.2688,-4.267,-4.2366,-4.1796,-4.0878,-3.9374,0.0,0.0,0.0,0.0,0.0,0.0,0.0,0.0,0.0,-3.6934,-3.83,0.0,-4.2079,0.0,-4.5774,-4.7199,-4.7832,-4.669,0.0,0.0,-4.4477,-4.425,-4.5096,-4.5688,-4.6252,-4.6896,-4.7623,-4.8262,-4.8663,-4.8952,-4.9433,-5.026,-4.9259,-4.8354,-4.82,-4.8893,-4.9374,-4.9239,-4.9663,-5.0125,-5.0163,-5.1376,-5.2088,-5.1683,-5.2318,-5.2895,-5.2895,-5.3606,-5.4184,-5.4241,-5.4857,-5.5316,-5.5311,-5.5522,-5.5538,-5.5343,-5.5349,-5.5472,-5.5665,-5.5684,-5.5684,-3.8805,-3.8805,-3.8805,-3.9023,-3.9292,-3.9292,-3.9292,-3.9292,-3.9292,-3.9292,-3.9345,-3.9817,-4.0463,-4.1168,-4.1258,-4.1543,-4.199,-4.2151,-4.2351,-4.2548,-4.257,-4.2609,-4.2609,-4.2588,-4.2767,-4.3131,-4.3091,-4.327,-4.367,-4.367,-4.3629,-4.3589,-4.3629,-4.308,-4.1913,-4.1666,-4.174,-4.2098,-4.242,-4.2958,-4.3634,-4.375,-4.3588,-4.3149,-4.2847,-4.2487,-4.2088,-4.169,-4.151,-4.1584,-4.1872,-4.1771,-4.1143,-4.045,-3.925,0.0,0.0,0.0,0.0,0.0,0.0,0.0,0.0,0.0,0.0,0.0,-4.4106,-4.573,-4.7001,-4.7798,-4.804,-4.7161,-4.6517,-4.6456,-4.6059,-4.6097,-4.6885,-4.7452,-4.7903,-4.824,-4.8663,-4.9136,-4.9606,-4.9669,-4.9884,-5.0526,-4.9777,-4.9182,-4.9279,-4.9683,-4.9971,-4.999,-5.0375,-5.0683,-5.0683,-5.2088,-5.2896,-5.2202,-5.2953,-5.378,-5.3799,-5.4472,-5.503,-5.5028,-5.5352,-5.564,-5.5593,-5.5551,-5.5551,-5.5527,-5.5551,-5.5596,-5.5618,-5.5618,-5.5596,-3.9011,-3.9028,-3.9028,-3.9028,-3.9028,-3.9028,-3.8913,-3.8805,-3.8805,-3.8805,-3.8843,-3.9295,-3.9766,-4.0234,-4.0366,-4.0703,-4.1168,-4.1455,-4.1909,-4.2448,-4.2553,-4.2687,-4.2736,-4.2708,-4.3066,-4.3817,-4.3692,-4.4031,-4.4839,-4.4874,-4.4814,-4.4729,-4.4874,-4.4516,-4.3734,-4.3117,-4.2749,-4.2588,-4.3468,-4.424,-4.4881,-4.4809,-4.4432,-4.3732,-4.2943,-4.2189,-4.1525,-4.0748,-4.0408,-4.054,-4.1133,-4.1546,-4.1654,-4.1234,-4.0599,0.0,-3.8666,0.0,0.0,0.0,0.0,0.0,0.0,0.0,0.0,-4.4507,-4.614,-4.7807,-4.775,-4.772,-4.788,-4.7181,-4.6932,-4.7548,-4.7659,-4.7901,-4.8531,-4.8853,-4.9071,-4.9182,-4.9333,-4.9608,-4.9911,-4.9949,-5.0043,-5.0287,-5.032,-5.0306,-5.0526,-5.0567,-5.0644,-5.0683,-5.0683,-5.0721,-5.099,-5.2183,-5.2972,-5.2547,-5.3546,-5.4586,-5.4624,-5.5182,-5.564,-5.5577,-5.5554,-5.5573,-5.5504,-5.548,-5.548,-5.5499,-5.5499,-5.548,-5.5504,-5.5504,-5.5523,-4.0151,-4.0193,-4.0209,-4.0134,-4.0209,-4.0209,-3.9658,-3.8805,-3.8805,-3.8805,-3.8805,-3.8914,-3.9259,-3.9732,-3.98,-4.0019,-4.0508,-4.0955,-4.1505,-4.2172,-4.2527,-4.3049,-4.3648,-4.362,-4.3708,-4.3878,-4.3849,-4.392,-4.4124,-4.4124,-4.4198,-4.4396,-4.4396,-4.444,-4.4392,0.0,0.0,0.0,-4.3763,-4.45,-4.4555,-4.395,-4.3497,-4.3215,-4.2554,0.0,-4.1902,-4.1718,-4.1653,-4.1742,-4.1884,0.0,0.0,0.0,0.0,0.0,0.0,0.0,0.0,0.0,0.0,0.0,-4.3781,-4.3974,-4.3911,-4.4976,-4.6227,-4.7522,-4.74,-4.7533,-4.8345,-4.829,-4.8235,-4.8383,-4.8383,-4.8457,-4.8587,-4.8641,-4.8818,-4.9085,-4.915,-4.9271,-4.9551,-4.9608,-4.9636,-4.9719,-4.9924,-5.0087,-5.0135,-5.0418,-5.0604,-5.0702,-5.072,-5.0931,-5.1507,-5.2444,-5.3363,-5.3763,-5.4607,-5.5244,-5.5301,-5.5397,-5.5551,-5.5527,-5.5527,-5.5504,-5.5432,-5.5413,-5.5408,-5.5415,-5.5409,-5.544,-5.548,-5.5504,-5.5523,-4.0496,0.0,-4.0496,-4.0496,0.0,-4.0496,-4.0209,-3.9642,-3.9642,-3.9626,-3.9642,-3.9642,-3.9797,-4.0061,-4.0117,-4.0413,-4.0896,-4.1223,-4.1831,-4.2653,-4.2832,-4.3266,-4.3875,-4.3875,-4.4067,-4.4418,-4.4436,-4.4676,-4.5027,-4.5045,-4.511,-4.5235,-4.5253,-4.5282,-4.5386,-4.5404,-4.4938,-4.406,-4.4785,-4.5303,-4.5496,-4.5141,-4.466,-4.4054,0.0,0.0,0.0,0.0,0.0,0.0,0.0,0.0,0.0,0.0,0.0,-4.2679,-4.2625,-4.288,-4.3483,-4.3961,-4.4766,-4.6057,-4.6607,-4.653,-4.5782,-4.6623,-4.7457,-4.8012,-4.7905,-4.8016,-4.8477,-4.8495,-4.8458,-4.8439,-4.8439,-4.8458,-4.8458,-4.8458,-4.8569,-4.8731,-4.8748,-4.885,-4.9196,-4.919,-4.9314,-4.9599,-4.9811,-4.9917,-4.9968,-5.0287,-5.0678,-5.1083,-5.0869,-5.1116,-5.2231,-5.3437,-5.4104,-5.4411,-5.4967,-5.5446,-5.5523,-5.5523,-5.5485,-5.5456,-5.5456,-5.5451,-5.5396,-5.5396,-5.5371,-5.5384,-5.5403,-5.5384,-5.544,-5.5446,-5.5446,-4.0809,-4.0809,-4.0792,-4.0732,-4.0688,-4.0688,-4.0688,-4.0671,0.0,0.0,0.0,-4.0377,-4.0377,-4.0437,-4.0556,-4.0818,-4.1246,-4.1494,-4.2109,-4.3048,-4.32,-4.3554,-4.4021,-4.4152,-4.4467,-4.5075,-4.5093,-4.5408,-4.602,-4.6055,-4.6087,-4.6137,-4.6137,-4.6119,-4.6186,-4.6186,-4.6063,-4.5899,-4.5881,-4.6028,-4.6459,-4.6371,-4.5822,-4.4931,-4.423,-4.353,-4.2853,-4.2149,-4.1799,-4.1918,-4.2496,-4.2945,-4.3114,-4.3849,-4.4036,-4.3522,-4.4089,-4.4787,-4.5472,-4.6191,-4.7168,-4.8458,-4.855,-4.8274,-4.7645,-4.8273,-4.8679,-4.8569,-4.8532,-4.8438,-4.8475,-4.8363,-4.8324,-4.8324,-4.8324,-4.8324,-4.8324,-4.8324,-4.8344,-4.8419,-4.8382,-4.8439,-4.8818,-4.88,-4.89,-4.9394,-4.9512,-4.9769,-5.0001,-5.0435,-5.0967,-5.1618,-5.1526,-5.1683,-5.2989,-5.433,-5.5082,-5.4671,-5.5073,-5.5437,-5.5456,-5.5476,-5.5476,-5.5402,-5.5383,-5.5377,-5.5384,-5.5384,-5.5403,-5.5403,-5.5403,-5.5403,-5.5403,-5.5536,-5.5651,-4.2122,-4.1885,-4.1885,-4.1693,-4.1419,-4.1419,-4.1435,-4.1388,-4.048,-4.0212,-4.0496,-3.9891,-3.9783,-4.003,-4.0091,-4.0151,-4.0257,-4.086,-4.165,-4.2434,-4.3217,-4.388,-4.4602,-4.4973,-4.5252,-4.5356,-4.5338,-4.5407,-4.5511,-4.5528,-4.5598,-4.5837,-4.5837,-4.5988,-4.6186,-4.6186,-4.6182,-4.6143,-4.601,-4.6014,-4.607,-4.5376,-4.491,-4.4722,-4.4007,-4.3537,-4.3398,-4.3262,-4.3258,-4.3371,-4.3506,-4.3807,-4.4303,-4.4443,-4.4674,-4.5044,-4.5183,-4.5656,-4.6551,-4.6767,-4.727,-4.8231,-4.8344,-4.8365,-4.8439,-4.8532,-4.8605,-4.8513,-4.8401,-4.8306,-4.8306,-4.8306,-4.8324,-4.8324,-4.8324,-4.8324,-4.8324,-4.8324,-4.8324,-4.8324,-4.8306,-4.8306,-4.842,-4.8402,-4.8421,-4.855,-4.8993,-4.9347,-5.0322,-5.0846,-5.1485,-5.2222,-5.2575,-5.303,-5.3828,-5.4752,-5.5243,-5.5275,-5.5314,-5.5434,-5.5415,-5.5415,-5.5409,-5.5384,-5.5365,-5.5339,-5.5358,-5.5403,-5.5358,-5.5358,-5.5396,-5.5479,-5.5517,-5.5995,-5.6454,-4.198,-4.1851,-4.1851,-4.172,-4.1588,-4.1588,-4.1588,-4.1541,-4.086,-4.0785,-4.1007,-4.0769,-4.0721,-4.0849,-4.0849,-4.0849,-4.0912,-4.1243,-4.1898,-4.2812,-4.3223,-4.394,-4.4818,-4.5069,-4.5194,-4.5318,-4.53,-4.53,-4.53,-4.5318,-4.5353,-4.5389,-4.5424,-4.5598,-4.577,-4.5752,-4.5752,-4.5752,-4.5988,-4.6038,-4.587,-4.5523,-4.5248,-4.5061,-4.4698,-4.4508,-4.4525,-4.4508,-4.4576,-4.4644,-4.4626,-4.4749,-4.4992,-4.5027,-4.5148,-4.5406,-4.5441,-4.5837,-4.6817,-4.7396,-4.7834,-4.8267,-4.8324,-4.8344,-4.842,-4.8457,-4.8437,-4.8401,-4.8324,-4.8324,-4.8324,-4.8324,-4.8324,-4.8324,-4.8324,-4.8324,-4.8324,-4.8324,-4.8324,-4.8324,-4.8324,-4.8324,-4.8324,-4.8324,-4.8402,-4.855,-4.9045,-4.9982,-5.1332,-5.1794,-5.2134,-5.2647,-5.2824,-5.3261,-5.4105,-5.4895,-5.5246,-5.5104,-5.526,-5.5377,-5.5403,-5.5403,-5.5377,-5.5377,-5.5233,-5.5113,-5.5066,-5.5066,-5.5066,-5.5151,-5.5706,-5.595,-5.6167,-5.7027,-5.7734,-4.1522,-4.144,-4.1456,-4.1456,-4.1323,-4.1323,-4.139,-4.1323,-4.1055,-4.1122,-4.1323,-4.1323,-4.139,-4.1456,-4.1456,-4.1456,-4.1538,-4.1588,-4.2077,-4.288,-4.2986,-4.3604,-4.4558,-4.4725,-4.4906,-4.5123,-4.514,-4.5123,-4.5123,-4.5123,-4.514,-4.5032,-4.5069,-4.5194,-4.5318,-4.53,-4.5318,-4.5318,-4.5701,-4.5837,-4.5684,-4.5701,-4.5615,-4.5423,-4.5423,-4.5441,-4.5441,-4.5441,-4.5441,-4.5441,-4.5441,-4.5441,-4.5423,-4.5371,-4.5371,-4.5371,-4.53,-4.5684,-4.6566,-4.7434,-4.8002,-4.8056,-4.8062,-4.8101,-4.821,-4.8229,-4.8286,-4.8324,-4.8324,-4.8324,-4.8324,-4.8324,-4.8324,-4.8324,-4.8324,-4.8324,-4.8324,-4.8324,-4.8324,-4.8324,-4.8324,-4.8324,-4.8324,-4.8324,-4.8512,-4.8975,-4.9805,-5.1009,-5.2139,-5.2491,-5.2772,-5.2955,-5.3019,-5.3376,-5.4183,-5.4774,-5.5004,-5.4735,-5.5009,-5.5113,-5.5132,-5.5132,-5.5132,-5.5057,-5.4874,-5.4716,-5.4685,-5.4685,-5.4685,-5.4773,-5.5473,-5.6359,-5.6892,-5.7767,-5.8664,-4.1406,-4.1205,-4.1122,-4.0935,-4.0662,-4.0578,-4.0662,-4.0593,-4.0593,-4.0593,-4.0662,-4.0593,-4.0799,-4.1138,-4.1138,-4.1138,-4.1205,-4.1456,-4.1638,-4.1819,-4.2206,-4.2802,-4.3486,-4.3881,-4.4412,-4.4906,-4.4978,-4.5049,-4.5049,-4.5032,-4.5032,-4.4995,-4.5049,-4.5032,-4.5032,-4.5032,-4.5032,-4.5049,-4.5086,-4.5194,-4.5423,-4.5423,-4.5406,-4.5423,-4.5423,-4.5441,-4.5371,-4.5441,-4.5423,-4.5441,-4.5371,-4.5388,-4.5371,-4.5283,-4.5247,-4.5194,-4.514,-4.5266,-4.58,-4.6443,-4.7017,-4.7252,-4.7375,-4.7557,-4.7977,-4.8087,-4.8166,-4.8247,-4.8324,-4.8324,-4.8324,-4.8324,-4.8324,-4.8324,-4.8324,-4.8324,-4.8324,-4.8324,-4.8324,-4.8324,-4.8267,-4.8324,-4.8267,-4.8341,-4.8691,-4.9577,-5.0738,-5.1673,-5.2132,-5.2647,-5.3015,-5.3179,-5.346,-5.3802,-5.4206,-5.4465,-5.4572,-5.4411,-5.4623,-5.4735,-5.461,-5.4514,-5.4416,-5.461,-5.4397,-5.4364,-5.433,-5.433,-5.4349,-5.4631,-5.5281,-5.6161,-5.735,-5.8025,-5.8339,-4.0851,-4.073,-4.073,-4.0662,-4.0524,-4.0524,-4.0524,-4.0524,-4.0524,-4.0524,-4.0524,-4.0524,-4.0593,-4.073,-4.073,-4.073,-4.073,-4.0867,-4.1174,-4.1557,-4.1722,-4.2173,-4.2847,-4.3453,-4.3922,-4.4316,-4.4686,-4.4886,-4.4886,-4.4776,-4.4776,-4.4886,-4.4886,-4.494,-4.4995,-4.4995,-4.4995,-4.4995,-4.4995,-4.5032,-4.5157,-4.514,-4.514,-4.514,-4.5157,-4.514,-4.5157,-4.514,-4.5157,-4.5157,-4.514,-4.5157,-4.5157,-4.5086,-4.5086,-4.5069,-4.5302,-4.5477,-4.5716,-4.6205,-4.6711,-4.7176,-4.721,-4.7456,-4.7937,-4.801,-4.805,-4.8111,-4.8172,-4.821,-4.8247,-4.8267,-4.8324,-4.8324,-4.8324,-4.8324,-4.8324,-4.8324,-4.8267,-4.8247,-4.8284,-4.8226,-4.8224,-4.8532,-4.9354,-5.0433,-5.1462,-5.1938,-5.237,-5.2773,-5.2919,-5.298,-5.3148,-5.3333,-5.3623,-5.3981,-5.4071,-5.4144,-5.43,-5.4397,-5.433,-5.4296,-5.4296,-5.4262,-5.4069,-5.3925,-5.3925,-5.3981,-5.4037,-5.4633,-5.6031,-5.7283,-5.8427,-5.8671,-5.8869,-4.0176,-4.0316,-4.0455,-4.0524,-4.0524,-4.0524,-4.0524,-4.0524,-4.0524,-4.0524,-4.0524,-4.0524,-4.0524,-4.0524,-4.0524,-4.0524,-4.0524,-4.0524,-4.0768,-4.1225,-4.1209,-4.1591,-4.2205,-4.2707,-4.3136,-4.3469,-4.3898,-4.4259,-4.4406,-4.457,-4.4626,-4.4737,-4.472,-4.4776,-4.4886,-4.4869,-4.4869,-4.4869,-4.4886,-4.4869,-4.4886,-4.4869,-4.494,-4.4978,-4.4995,-4.4995,-4.4995,-4.4995,-4.4995,-4.4995,-4.4995,-4.4995,-4.4995,-4.4978,-4.494,-4.4923,-4.5249,-4.5442,-4.5425,-4.5768,-4.6176,-4.6639,-4.6823,-4.7125,-4.7601,-4.7829,-4.7911,-4.7911,-4.7974,-4.8072,-4.813,-4.8208,-4.8229,-4.8229,-4.8229,-4.8229,-4.821,-4.8229,-4.819,-4.8169,-4.8166,-4.8367,-4.8634,-4.9382,-5.0362,-5.1274,-5.1766,-5.2076,-5.2641,-5.2806,-5.2806,-5.2806,-5.2806,-5.2912,-5.3103,-5.3481,-5.3695,-5.3695,-5.3833,-5.3961,-5.3944,-5.3907,-5.3851,-5.3547,-5.3526,-5.3524,-5.3481,-5.3536,-5.4245,-5.5266,-5.6484,-5.7747,-5.8312,-5.8657,-5.8694,-3.9235,-3.9824,-4.0331,-4.0524,-4.0524,-4.0524,-4.0524,-4.0524,-4.047,-4.0524,-4.0455,-4.0455,-4.0524,-4.0455,-4.047,-4.0524,-4.0524,-4.0524,-4.0524,-4.0593,-4.0593,-4.0904,-4.1525,-4.1575,-4.1965,-4.252,-4.2707,-4.3015,-4.3571,-4.4236,-4.457,-4.457,-4.457,-4.4553,-4.4553,-4.4626,-4.4626,-4.4626,-4.4643,-4.4626,-4.4626,-4.4643,-4.4737,-4.494,-4.4995,-4.4995,-4.4995,-4.4995,-4.4995,-4.4995,-4.4995,-4.4995,-4.4978,-4.4886,-4.4737,-4.4682,-4.4793,-4.4831,-4.472,-4.4858,-4.5128,-4.5441,-4.5968,-4.6421,-4.6999,-4.7493,-4.7741,-4.7699,-4.7842,-4.7907,-4.801,-4.8032,-4.8032,-4.8032,-4.8032,-4.8014,-4.8017,-4.8053,-4.8014,-4.8068,-4.8214,-4.8794,-4.988,-5.0879,-5.131,-5.1723,-5.2277,-5.2688,-5.2707,-5.2761,-5.2761,-5.2761,-5.2779,-5.2842,-5.2904,-5.317,-5.3235,-5.3175,-5.3263,-5.3367,-5.3091,-5.285,-5.2919,-5.2962,-5.2987,-5.2999,-5.304,-5.3661,-5.4692,-5.5578,-5.6246,-5.718,-5.7976,-5.7766,-5.7831,-3.9681,-4.0246,-4.0385,-4.0524,-4.0524,-4.0524,-4.0524,-4.0524,-4.0401,-4.0401,-4.0331,-4.0261,-4.0207,-4.0207,-4.0207,-4.0331,-4.0455,-4.0524,-4.0524,-4.0524,-4.0524,-4.0593,-4.0783,-4.1142,-4.1475,-4.1771,-4.2125,-4.252,-4.2831,-4.3152,-4.329,-4.335,-4.3722,-4.3898,-4.3972,-4.4367,-4.457,-4.457,-4.457,-4.457,-4.457,-4.457,-4.4626,-4.4737,-4.4737,-4.4737,-4.4737,-4.4737,-4.472,-4.4737,-4.4737,-4.472,-4.4737,-4.4682,-4.4626,-4.4626,-4.4626,-4.4626,-4.4626,-4.4648,-4.4872,-4.5268,-4.5786,-4.6315,-4.6882,-4.7363,-4.7699,-4.7699,-4.7717,-4.7783,-4.7806,-4.7929,-4.7992,-4.7992,-4.7992,-4.7974,-4.7995,-4.8014,-4.8192,-4.8639,-4.9047,-4.9937,-5.1035,-5.15,-5.1601,-5.2109,-5.2454,-5.2581,-5.2618,-5.2618,-5.2618,-5.2618,-5.2599,-5.2618,-5.2654,-5.2868,-5.2962,-5.282,-5.2827,-5.2987,-5.2824,-5.2779,-5.2831,-5.2831,-5.2761,-5.2925,-5.3107,-5.4,-5.5075,-5.6022,-5.6642,-5.7024,-5.7546,-5.7534,-5.7534,-3.9436,-3.9707,-4.0161,-4.0331,-4.0331,-4.0331,-4.0316,-4.0331,-4.0277,-4.0207,-4.0207,-4.0081,-4.0011,-4.0011,-4.0011,-4.0137,-4.0331,-4.0331,-4.0331,-4.0316,-4.0331,-4.0261,-4.0261,-4.0646,-4.0888,-4.0956,-4.1575,-4.1965,-4.2078,-4.2269,-4.2316,-4.2395,-4.3015,-4.3317,-4.3453,-4.4047,-4.4457,-4.4457,-4.4457,-4.4457,-4.4457,-4.444,-4.444,-4.4514,-4.4514,-4.4514,-4.457,-4.457,-4.457,-4.457,-4.457,-4.457,-4.457,-4.457,-4.457,-4.457,-4.457,-4.457,-4.457,-4.457,-4.4703,-4.5035,-4.5528,-4.5996,-4.6406,-4.6863,-4.7169,-4.7214,-4.7214,-4.7214,-4.745,-4.756,-4.7728,-4.7829,-4.7888,-4.7911,-4.7911,-4.8148,-4.8629,-4.9349,-5.0007,-5.1048,-5.2109,-5.191,-5.2037,-5.2462,-5.2498,-5.2498,-5.2498,-5.2498,-5.2498,-5.2498,-5.248,-5.248,-5.2544,-5.269,-5.2761,-5.2635,-5.2617,-5.2717,-5.2735,-5.2735,-5.2717,-5.2717,-5.2781,-5.2999,-5.3545,-5.4418,-5.5364,-5.6364,-5.6891,-5.7224,-5.7437,-5.7455,-5.7455,-3.8292,-3.8188,-3.9379,-3.9925,-3.9925,-3.9996,-3.9996,-3.9996,-3.9996,-3.9996,-3.9996,-3.9996,-3.994,-3.994,-3.994,-4.0011,-3.9996,-3.9996,-4.0011,-4.0066,-4.0081,-3.9996,-3.9996,-4.0066,-4.0121,-4.0121,-4.0699,-4.1008,-4.106,-4.1575,-4.1869,-4.2078,-4.2488,-4.2814,-4.2937,-4.3621,-4.4039,-4.4097,-4.4097,-4.4097,-4.4097,-4.4155,-4.4212,-4.431,-4.4327,-4.4384,-4.457,-4.457,-4.457,-4.457,-4.457,-4.457,-4.457,-4.457,-4.457,-4.457,-4.457,-4.457,-4.457,-4.457,-4.4626,-4.472,-4.5093,-4.539,-4.5545,-4.595,-4.6262,-4.631,-4.631,-4.6406,-4.6863,-4.6999,-4.7196,-4.7597,-4.7741,-4.7741,-4.794,-4.8496,-4.922,-4.9963,-5.0741,-5.1584,-5.2209,-5.2409,-5.2408,-5.2444,-5.2498,-5.2498,-5.2498,-5.2498,-5.2498,-5.2498,-5.2498,-5.2498,-5.2498,-5.2498,-5.2498,-5.248,-5.2508,-5.2572,-5.2572,-5.2572,-5.2572,-5.2572,-5.2572,-5.2808,-5.4041,-5.4894,-5.562,-5.649,-5.6894,-5.7239,-5.7307,-5.7307,-5.7307,-3.7934,-3.8222,-3.8841,-3.9133,-3.922,-3.9753,-4.0011,-4.0011,-3.9839,-3.9768,-3.9768,-3.964,-3.9568,-3.9568,-3.9568,-3.9568,-3.9568,-3.9568,-3.9711,-3.994,-4.0011,-3.9925,-3.9839,-3.9768,-3.9783,-3.9839,-4.0121,-4.0316,-4.0385,-4.0562,-4.0631,-4.0752,-4.1311,-4.1625,-4.1739,-4.2707,-4.3333,-4.341,-4.3831,-4.4097,-4.4097,-4.4097,-4.4097,-4.4138,-4.4155,-4.4229,-4.4286,-4.4474,-4.457,-4.457,-4.457,-4.457,-4.457,-4.457,-4.457,-4.457,-4.457,-4.457,-4.457,-4.457,-4.457,-4.466,-4.5039,-4.5277,-4.5337,-4.5749,-4.6067,-4.6067,-4.6116,-4.631,-4.6753,-4.6908,-4.7107,-4.7657,-4.7717,-4.8013,-4.8611,-4.9683,-5.029,-5.0308,-5.1276,-5.2154,-5.2417,-5.248,-5.2498,-5.2498,-5.2498,-5.2498,-5.2498,-5.2498,-5.2498,-5.2498,-5.2498,-5.2498,-5.2498,-5.2498,-5.2498,-5.2498,-5.2498,-5.2498,-5.2498,-5.2498,-5.2498,-5.2498,-5.2498,-5.3041,-5.4291,-5.516,-5.574,-5.6482,-5.6989,-5.7152,-5.7188,-5.7188,-5.7188,-3.7754,-3.7994,-3.8587,-3.8779,-3.8899,-3.9514,-3.9783,-3.9783,-3.964,-3.9625,-3.9553,-3.9481,-3.9424,-3.9424,-3.9424,-3.9424,-3.9424,-3.9424,-3.9553,-3.9783,-3.9783,-3.9711,-3.9625,-3.9553,-3.9625,-3.9625,-3.9711,-3.9783,-3.9783,-3.9783,-3.9783,-3.991,-4.0493,-4.0805,-4.094,-4.2141,-4.2847,-4.297,-4.3535,-4.3923,-4.3923,-4.3923,-4.3923,-4.3981,-4.4056,-4.4056,-4.4114,-4.4286,-4.44,-4.44,-4.44,-4.4457,-4.444,-4.4497,-4.4497,-4.457,-4.457,-4.457,-4.457,-4.457,-4.457,-4.4677,-4.4902,-4.5014,-4.5086,-4.539,-4.5546,-4.5528,-4.5546,-4.5835,-4.6424,-4.6613,-4.6908,-4.7657,-4.8007,-4.8629,-4.9651,-5.066,-5.122,-5.1248,-5.1891,-5.2389,-5.2498,-5.2498,-5.2498,-5.2498,-5.2498,-5.2498,-5.2498,-5.2498,-5.2498,-5.2498,-5.2498,-5.2498,-5.2498,-5.2498,-5.2498,-5.2498,-5.2498,-5.2498,-5.2498,-5.2498,-5.2498,-5.2498,-5.2498,-5.2896,-5.3983,-5.4671,-5.5323,-5.6156,-5.6971,-5.7152,-5.7188,-5.7188,-5.7188,-3.7754,-3.7531,-3.8465,-3.8871,-3.8909,-3.921,-3.9412,-3.9409,-3.9424,-3.9409,-3.9424,-3.9424,-3.9424,-3.9424,-3.9424,-3.9424,-3.9424,-3.9424,-3.9424,-3.9424,-3.9424,-3.9424,-3.9424,-3.9424,-3.9424,-3.9424,-3.9424,-3.9424,-3.9496,-3.9511,-3.9409,-3.9568,-4.0076,-4.0409,-4.0615,-4.1787,-4.2364,-4.238,-4.3035,-4.3355,-4.3492,-4.3509,-4.3628,-4.3839,-4.3898,-4.3939,-4.3981,-4.4039,-4.4097,-4.4114,-4.4155,-4.4212,-4.4253,-4.431,-4.4384,-4.4514,-4.457,-4.4514,-4.457,-4.4497,-4.4497,-4.453,-4.4547,-4.4587,-4.4626,-4.4665,-4.472,-4.4703,-4.472,-4.5052,-4.5817,-4.6067,-4.6602,-4.7677,-4.8544,-4.9582,-5.0977,-5.1302,-5.1664,-5.218,-5.248,-5.2498,-5.2498,-5.2498,-5.2498,-5.2498,-5.2498,-5.2498,-5.2498,-5.2498,-5.2498,-5.2498,-5.2498,-5.2498,-5.2498,-5.2498,-5.2498,-5.2498,-5.2498,-5.2498,-5.2498,-5.2498,-5.2498,-5.2498,-5.2552,-5.2987,-5.3585,-5.4363,-5.5124,-5.5957,-5.6573,-5.6989,-5.7188,-5.7188,-5.7188,-3.7193,-3.714,-3.7642,-3.7947,-3.8181,-3.8837,-3.9224,-3.9382,-3.9367,-3.9382,-3.9352,-3.9424,-3.9424,-3.9424,-3.9424,-3.9424,-3.9424,-3.9424,-3.9424,-3.9424,-3.9424,-3.9424,-3.9424,-3.9424,-3.9424,-3.9424,-3.9424,-3.9424,-3.9424,-3.9424,-3.9424,-3.9409,-3.9625,-3.9753,-3.9879,-4.0668,-4.1008,-4.1127,-4.1722,-4.238,-4.2772,-4.2834,-4.3174,-4.3628,-4.3628,-4.3687,-4.3747,-4.3747,-4.3864,-4.4097,-4.4097,-4.408,-4.4155,-4.4155,-4.4212,-4.4212,-4.427,-4.4229,-4.427,-4.4219,-4.4202,-4.4212,-4.4246,-4.4205,-4.4212,-4.4212,-4.4286,-4.4327,-4.4367,-4.4669,-4.5372,-4.5563,-4.6505,-4.849,-4.9253,-5.009,-5.114,-5.1846,-5.2271,-5.248,-5.2498,-5.2498,-5.2498,-5.2498,-5.2498,-5.2498,-5.2498,-5.2498,-5.2498,-5.2498,-5.2498,-5.2498,-5.2498,-5.2498,-5.2498,-5.2498,-5.2498,-5.2498,-5.2498,-5.2498,-5.2498,-5.2498,-5.2498,-5.2498,-5.2498,-5.2806,-5.3548,-5.4327,-5.5088,-5.5667,-5.641,-5.6935,-5.7116,-5.7188,-5.7188,-3.7377,-3.7428,-3.7692,-3.7904,-3.8034,-3.8569,-3.8822,-3.8804,-3.9106,-3.9106,-3.9017,-3.9265,-3.9424,-3.9424,-3.9424,-3.9424,-3.9424,-3.9424,-3.9424,-3.9424,-3.9424,-3.9424,-3.9424,-3.9424,-3.9424,-3.9424,-3.9424,-3.9424,-3.9424,-3.9424,-3.9424,-3.9424,-3.9424,-3.9424,-3.9481,-4.0076,-4.0478,-4.06,-4.1127,-4.1722,-4.2126,-4.2126,-4.2317,-4.2772,-4.2974,-4.3235,-4.3568,-4.3628,-4.3687,-4.3864,-4.3864,-4.3923,-4.3998,-4.3998,-4.4056,-4.4097,-4.4097,-4.4097,-4.408,-4.4071,-4.4128,-4.408,-4.4089,-4.4089,-4.4114,-4.4097,-4.4155,-4.4196,-4.4253,-4.4614,-4.5108,-4.5407,-4.6532,-4.8243,-4.9249,-5.0182,-5.1593,-5.2208,-5.2462,-5.2498,-5.2498,-5.2498,-5.2498,-5.2498,-5.2498,-5.2498,-5.2498,-5.2498,-5.2498,-5.2498,-5.2498,-5.2434,-5.2452,-5.2452,-5.2452,-5.2452,-5.2452,-5.2452,-5.2434,-5.2434,-5.2452,-5.2452,-5.2498,-5.2498,-5.2498,-5.2661,-5.3295,-5.3947,-5.4562,-5.5251,-5.6156,-5.6808,-5.7007,-5.7188,-5.7188,-3.7808,-3.7848,-3.8078,-3.8249,-3.8233,-3.8421,-3.8333,-3.8084,-3.8646,-3.8775,-3.8731,-3.9195,-3.9579,-3.9619,-3.9873,-3.9664,-3.9574,-3.9619,-3.9484,-3.9454,-3.9424,-3.9424,-3.9424,-3.9424,-3.9424,-3.9424,-3.9424,-3.9424,-3.9424,-3.9424,-3.9424,-3.9424,-3.9424,-3.9424,-3.9481,-4.0021,-4.0355,-4.0409,-4.0737,-4.1127,-4.1327,-4.1393,-4.1525,-4.1787,-4.2237,-4.2772,-4.3235,-4.3432,-4.3492,-4.3645,-4.3645,-4.3704,-4.3839,-4.3898,-4.3956,-4.3998,-4.3981,-4.3981,-4.4023,-4.3972,-4.4013,-4.3981,-4.4031,-4.4048,-4.3998,-4.3981,-4.4039,-4.4114,-4.4196,-4.4463,-4.4889,-4.5424,-4.6378,-4.7683,-4.8444,-4.9919,-5.1597,-5.2369,-5.2452,-5.2452,-5.2452,-5.2452,-5.2434,-5.2452,-5.2452,-5.234,-5.234,-5.234,-5.234,-5.234,-5.234,-5.2387,-5.2387,-5.2452,-5.2452,-5.2452,-5.2405,-5.2387,-5.234,-5.234,-5.2387,-5.2405,-5.2452,-5.2498,-5.2452,-5.2452,-5.2661,-5.3313,-5.4019,-5.4804,-5.5745,-5.6396,-5.6884,-5.7116,-5.7188,-3.7307,-3.7294,-3.7337,-3.7635,-3.7933,-3.8006,-3.821,-3.8417,-3.8403,-3.8776,-3.9405,-3.961,-4.0074,-4.092,-4.0816,-4.0696,-4.0217,-4.0113,-3.9933,-3.9439,-3.9424,-3.9424,-3.9424,-3.9409,-3.9424,-3.9424,-3.9424,-3.9424,-3.9424,-3.9424,-3.9424,-3.9424,-3.9424,-3.9424,-3.9424,-3.9538,-3.961,-3.9681,-3.9824,-4.0216,-4.0684,-4.0737,-4.094,-4.1393,-4.1656,-4.2126,-4.2648,-4.2834,-4.3035,-4.3432,-4.3645,-4.3628,-4.3704,-4.3704,-4.3704,-4.3747,-4.3747,-4.3747,-4.3747,-4.373,-4.373,-4.3747,-4.3763,-4.3704,-4.3704,-4.3763,-4.3805,-4.3881,-4.4015,-4.4155,-4.4384,-4.497,-4.583,-4.6992,-4.7895,-4.8976,-5.0451,-5.1583,-5.2132,-5.2234,-5.2216,-5.218,-5.2126,-5.218,-5.2198,-5.2198,-5.2198,-5.218,-5.2198,-5.2246,-5.2246,-5.2293,-5.2293,-5.2293,-5.2293,-5.2293,-5.2257,-5.2275,-5.2293,-5.2246,-5.2293,-5.2311,-5.2311,-5.2358,-5.2405,-5.2405,-5.2405,-5.2958,-5.3688,-5.452,-5.5297,-5.5916,-5.6476,-5.6798,-5.7138,-3.7108,-3.7108,-3.7108,-3.7285,-3.7468,-3.7519,-3.7546,-3.7591,-3.7853,-3.8352,-3.9116,-3.9382,-4.0217,-4.1232,-4.1232,-4.1084,-4.0846,-4.0427,-4.007,-3.9712,-3.9473,-3.925,-3.9265,-3.925,-3.9265,-3.9352,-3.9424,-3.9424,-3.9424,-3.9424,-3.9424,-3.9424,-3.9424,-3.9424,-3.9424,-3.9352,-3.9424,-3.9424,-3.9424,-3.961,-3.995,-4.0021,-4.0339,-4.0873,-4.1075,-4.1343,-4.1997,-4.2459,-4.2772,-4.3113,-4.3449,-4.3568,-4.3568,-4.3645,-4.3645,-4.3645,-4.3645,-4.3645,-4.3645,-4.3645,-4.3628,-4.3645,-4.3645,-4.3645,-4.3645,-4.3645,-4.3645,-4.3763,-4.3822,-4.3956,-4.4015,-4.4232,-4.5119,-4.5934,-4.6943,-4.7962,-4.9097,-5.0559,-5.1714,-5.1804,-5.1938,-5.2018,-5.2066,-5.2036,-5.2084,-5.2132,-5.215,-5.2132,-5.2132,-5.215,-5.215,-5.2132,-5.2132,-5.2132,-5.2132,-5.2114,-5.2042,-5.2078,-5.2132,-5.2132,-5.215,-5.215,-5.2168,-5.2198,-5.2246,-5.2246,-5.2336,-5.2888,-5.3249,-5.3832,-5.4571,-5.535,-5.6034,-5.6482,-5.6771,-3.7015,-3.7015,-3.7028,-3.7015,-3.7015,-3.7083,-3.6906,-3.6612,-3.7077,-3.7698,-3.8294,-3.918,-4.0205,-4.1018,-4.1418,-4.1454,-4.1217,-4.0635,-4.0158,-3.9876,-3.9491,-3.9194,-3.9091,-3.9104,-3.909,-3.9265,-3.9265,-3.9265,-3.9265,-3.9337,-3.925,-3.9265,-3.9265,-3.9265,-3.9265,-3.9265,-3.925,-3.925,-3.925,-3.925,-3.9322,-3.9394,-3.9737,-4.0231,-4.0355,-4.0668,-4.126,-4.1803,-4.2269,-4.2443,-4.3113,-4.3355,-4.3492,-4.3568,-4.3645,-4.3645,-4.3645,-4.3645,-4.3645,-4.3645,-4.3645,-4.3645,-4.3645,-4.3645,-4.3645,-4.3645,-4.3645,-4.3628,-4.3747,-4.3822,-4.3839,-4.3905,-4.4178,-4.4826,-4.581,-4.6691,-4.78,-4.949,-5.0418,-5.1226,-5.1452,-5.1654,-5.1871,-5.1987,-5.1987,-5.2036,-5.2036,-5.2054,-5.2036,-5.2036,-5.1987,-5.1987,-5.1938,-5.1938,-5.1938,-5.1938,-5.1866,-5.1915,-5.1987,-5.1987,-5.1987,-5.1987,-5.1956,-5.2054,-5.2084,-5.2102,-5.2102,-5.2396,-5.2744,-5.3181,-5.3792,-5.4583,-5.5356,-5.6129,-5.6435,-3.6546,-3.6546,-3.6546,-3.664,-3.6722,-3.6803,-3.6858,-3.6887,-3.689,-3.7417,-3.8443,-3.9207,-4.0069,-4.1076,-4.2107,-4.2164,-4.1494,-4.0905,-4.0359,-3.9991,-3.9712,-3.9431,-3.9033,-3.89,-3.887,-3.8855,-3.887,-3.887,-3.8929,-3.8855,-3.8943,-3.8943,-3.8943,-3.8943,-3.8943,-3.8943,-3.8929,-3.8943,-3.8929,-3.8929,-3.9017,-3.9104,-3.9322,-3.9681,-3.9681,-4.0005,-4.0478,-4.0805,-4.106,-4.1656,-4.238,-4.271,-4.2912,-4.3295,-4.3509,-4.3645,-4.3645,-4.3645,-4.3645,-4.3645,-4.3645,-4.3645,-4.3645,-4.3645,-4.3645,-4.3645,-4.3645,-4.3645,-4.3628,-4.3645,-4.3628,-4.3704,-4.4036,-4.4566,-4.5009,-4.5668,-4.6865,-4.7997,-4.9271,-5.0392,-5.0858,-5.1123,-5.1331,-5.1485,-5.1554,-5.1554,-5.1622,-5.174,-5.184,-5.184,-5.179,-5.179,-5.174,-5.174,-5.174,-5.174,-5.1772,-5.1754,-5.184,-5.184,-5.179,-5.174,-5.179,-5.1938,-5.2005,-5.2005,-5.2005,-5.2036,-5.2292,-5.2763,-5.3333,-5.3835,-5.4591,-5.538,-5.6008,-3.637,-3.637,-3.637,-3.6452,-3.6534,-3.6534,-3.664,-3.6734,-3.6628,-3.7163,-3.8056,-3.8649,-3.9332,-4.0404,-4.1394,-4.1734,-4.1726,-4.1316,-4.094,-4.0588,-3.9985,-3.9516,-3.9075,-3.884,-3.859,-3.8486,-3.8501,-3.8649,-3.8797,-3.8782,-3.8782,-3.8782,-3.8782,-3.8782,-3.8782,-3.8782,-3.8782,-3.8782,-3.8782,-3.8782,-3.8782,-3.9031,-3.9177,-3.925,-3.9337,-3.9625,-3.9879,-4.0355,-4.06,-4.106,-4.1672,-4.2173,-4.2569,-4.2896,-4.3251,-4.3509,-4.3568,-4.3645,-4.3645,-4.3645,-4.3645,-4.3645,-4.3645,-4.3645,-4.3645,-4.3645,-4.3645,-4.3645,-4.3645,-4.3645,-4.3645,-4.3645,-4.381,-4.4092,-4.4477,-4.5147,-4.6105,-4.6898,-4.8158,-4.9556,-5.0016,-5.0293,-5.0515,-5.0678,-5.0875,-5.107,-5.1193,-5.1367,-5.1521,-5.1521,-5.1452,-5.164,-5.1622,-5.169,-5.169,-5.169,-5.169,-5.169,-5.169,-5.169,-5.169,-5.169,-5.174,-5.1808,-5.1858,-5.1858,-5.1858,-5.1858,-5.2144,-5.2344,-5.2842,-5.3343,-5.3953,-5.4615,-5.5257,-3.637,-3.637,-3.637,-3.637,-3.637,-3.637,-3.6358,-3.637,-3.6465,-3.6815,-3.7533,-3.7952,-3.8469,-3.9258,-4.0159,-4.0958,-4.1673,-4.1343,-4.1178,-4.1054,-4.0368,-3.9755,-3.9273,-3.8952,-3.8527,-3.8277,-3.8277,-3.8352,-3.8575,-3.8634,-3.8649,-3.8649,-3.8634,-3.8634,-3.8634,-3.8634,-3.8634,-3.8649,-3.8708,-3.8708,-3.8797,-3.887,-3.9017,-3.9031,-3.925,-3.9352,-3.9481,-3.9879,-4.0146,-4.0409,-4.094,-4.1525,-4.2126,-4.2443,-4.2834,-4.3312,-4.3492,-4.3568,-4.3645,-4.3645,-4.3645,-4.3645,-4.3645,-4.3645,-4.3645,-4.3645,-4.3645,-4.3645,-4.3645,-4.3645,-4.3645,-4.3645,-4.3645,-4.3744,-4.4175,-4.4754,-4.5467,-4.6283,-4.7091,-4.8213,-4.9027,-4.9571,-4.9861,-5.0107,-5.0349,-5.0422,-5.0605,-5.0642,-5.0804,-5.0929,-5.0999,-5.1349,-5.1521,-5.164,-5.169,-5.169,-5.169,-5.169,-5.169,-5.169,-5.169,-5.169,-5.174,-5.1758,-5.1758,-5.1758,-5.169,-5.169,-5.1883,-5.2115,-5.2419,-5.2796,-5.3437,-5.3883,-5.4366,-3.637,-3.637,-3.637,-3.637,-3.637,-3.637,-3.637,-3.637,-3.637,-3.6452,-3.6722,-3.7441,-3.7887,-3.8328,-3.9033,-3.9913,-4.0476,-4.0732,-4.07,-4.0838,-4.064,-4.0039,-3.9349,-3.916,-3.8699,-3.8304,-3.8202,-3.8202,-3.8352,-3.8352,-3.8277,-3.8352,-3.8352,-3.8277,-3.8352,-3.8337,-3.8263,-3.8277,-3.8277,-3.8352,-3.8501,-3.859,-3.8738,-3.887,-3.9017,-3.9119,-3.9177,-3.9466,-3.9538,-3.9666,-4.0216,-4.0615,-4.094,-4.1997,-4.2522,-4.2851,-4.3174,-4.3645,-4.3568,-4.3645,-4.3645,-4.3645,-4.3645,-4.3645,-4.3645,-4.3645,-4.3645,-4.3645,-4.3645,-4.3645,-4.3645,-4.3645,-4.3645,-4.3661,-4.381,-4.4257,-4.4837,-4.5483,-4.6383,-4.7198,-4.8102,-4.8957,-4.947,-4.9688,-4.9861,-4.9879,-4.9936,-4.9993,-5.0146,-5.0331,-5.046,-5.0822,-5.1404,-5.1612,-5.1503,-5.1554,-5.1708,-5.169,-5.169,-5.169,-5.169,-5.169,-5.169,-5.169,-5.169,-5.169,-5.169,-5.169,-5.169,-5.1815,-5.2047,-5.2422,-5.285,-5.326,-5.3653,-3.5893,-3.637,-3.637,-3.637,-3.637,-3.637,-3.637,-3.637,-3.637,-3.637,-3.6452,-3.6815,-3.7268,-3.7808,-3.8251,-3.8944,-3.9637,-3.9812,-3.9889,-4.0069,-4.0193,-3.9776,-3.9167,-3.9087,-3.8841,-3.8315,-3.8202,-3.8202,-3.8202,-3.8202,-3.8202,-3.8202,-3.8202,-3.8202,-3.8202,-3.8202,-3.8202,-3.8202,-3.8202,-3.8202,-3.8366,-3.8441,-3.8516,-3.8664,-3.8797,-3.887,-3.8943,-3.9017,-3.9031,-3.909,-3.9436,-3.9778,-4.0115,-4.0774,-4.1311,-4.2285,-4.249,-4.2958,-4.3492,-4.3568,-4.3568,-4.3645,-4.3645,-4.3645,-4.3645,-4.3645,-4.3645,-4.3645,-4.3645,-4.3645,-4.3645,-4.3645,-4.3645,-4.3645,-4.3645,-4.4026,-4.4456,-4.4821,-4.5578,-4.6378,-4.7237,-4.8056,-4.8731,-4.8883,-4.905,-4.9308,-4.9368,-4.947,-4.9688,-4.9993,-5.0107,-5.0181,-5.0871,-5.1511,-5.1368,-5.1278,-5.164,-5.1708,-5.169,-5.169,-5.169,-5.169,-5.169,-5.169,-5.169,-5.169,-5.169,-5.169,-5.169,-5.169,-5.1708,-5.2047,-5.2404,-5.2814,-5.3278,-3.5095,-3.5981,-3.6118,-3.6168,-3.6181,-3.6181,-3.6181,-3.6181,-3.6275,-3.6275,-3.637,-3.6452,-3.6815,-3.7268,-3.7546,-3.7978,-3.8854,-3.8854,-3.9033,-3.921,-3.9357,-3.9186,-3.8754,-3.8668,-3.8467,-3.8102,-3.7792,-3.7976,-3.8127,-3.8202,-3.8202,-3.8202,-3.8202,-3.8202,-3.8202,-3.8202,-3.8202,-3.8202,-3.8202,-3.8202,-3.8202,-3.8366,-3.8352,-3.8501,-3.856,-3.8708,-3.8723,-3.8782,-3.8782,-3.8855,-3.8855,-3.9205,-3.955,-3.996,-4.05,-4.1346,-4.1739,-4.2411,-4.3003,-4.3279,-4.3492,-4.3568,-4.3645,-4.3645,-4.3645,-4.3645,-4.3645,-4.3645,-4.3645,-4.3645,-4.3645,-4.3645,-4.3645,-4.3645,-4.3645,-4.4009,-4.434,-4.4638,-4.497,-4.5616,-4.6427,-4.7173,-4.7728,-4.7948,-4.8242,-4.8606,-4.8793,-4.8961,-4.9188,-4.947,-4.9588,-4.9588,-5.0159,-5.0869,-5.1017,-5.1034,-5.1401,-5.1675,-5.1675,-5.169,-5.169,-5.169,-5.169,-5.169,-5.169,-5.169,-5.169,-5.169,-5.169,-5.169,-5.169,-5.169,-5.1958,-5.2368,-5.2814,-3.4354,-3.4908,-3.5399,-3.5704,-3.5716,-3.562,-3.5716,-3.5716,-3.5908,-3.6003,-3.6098,-3.6275,-3.6465,-3.6546,-3.6722,-3.7083,-3.7887,-3.79,-3.8328,-3.8841,-3.9176,-3.8782,-3.8297,-3.7865,-3.7662,-3.7644,-3.731,-3.7414,-3.7962,-3.7962,-3.8127,-3.8202,-3.8202,-3.8202,-3.8202,-3.8202,-3.8202,-3.8202,-3.8202,-3.8202,-3.8202,-3.8202,-3.8277,-3.8277,-3.8427,-3.8501,-3.8516,-3.8649,-3.8708,-3.8708,-3.8708,-3.8708,-3.8987,-3.9406,-3.9874,-4.0347,-4.108,-4.1739,-4.2269,-4.297,-4.3426,-4.3552,-4.3568,-4.3568,-4.3509,-4.3585,-4.3585,-4.3585,-4.3509,-4.3509,-4.3568,-4.3585,-4.3509,-4.3568,-4.3568,-4.3668,-4.4026,-4.4324,-4.4671,-4.5052,-4.5732,-4.6609,-4.7322,-4.7621,-4.7951,-4.8339,-4.8339,-4.845,-4.8497,-4.8731,-4.89,-4.905,-4.9478,-4.9976,-5.048,-5.0733,-5.1105,-5.1405,-5.1543,-5.1643,-5.1708,-5.1708,-5.169,-5.169,-5.169,-5.169,-5.169,-5.169,-5.169,-5.169,-5.169,-5.169,-5.169,-5.1976,-5.235,-3.3368,-3.3902,-3.4411,-3.5027,-3.5633,-3.5633,-3.5633,-3.562,-3.5716,-3.592,-3.6015,-3.6098,-3.6275,-3.6358,-3.637,-3.6546,-3.6896,-3.6896,-3.7268,-3.7625,-3.7912,-3.7881,-3.7515,-3.7276,-3.7274,-3.6948,-3.6438,-3.6517,-3.7246,-3.74,-3.781,-3.8037,-3.8052,-3.8202,-3.8202,-3.8202,-3.8202,-3.8202,-3.8202,-3.8202,-3.8202,-3.8202,-3.8202,-3.8202,-3.8277,-3.8277,-3.8366,-3.8427,-3.8427,-3.8427,-3.8427,-3.8501,-3.8501,-3.8841,-3.9118,-3.9463,-4.0263,-4.0863,-4.182,-4.2599,-4.3202,-4.3279,-4.3279,-4.3323,-4.3372,-4.3471,-4.3471,-4.3377,-4.3295,-4.3279,-4.3295,-4.3295,-4.3295,-4.3432,-4.3509,-4.3509,-4.3624,-4.3982,-4.423,-4.4577,-4.5355,-4.6231,-4.6893,-4.7505,-4.7753,-4.8066,-4.8001,-4.8001,-4.8049,-4.8098,-4.8258,-4.8366,-4.872,-4.8846,-4.9289,-5.0028,-5.0736,-5.1085,-5.1299,-5.1455,-5.1487,-5.1708,-5.169,-5.169,-5.169,-5.169,-5.169,-5.169,-5.169,-5.169,-5.169,-5.169,-5.169,-5.169,-5.1958,-3.2563,-3.308,-3.3428,-3.4171,-3.5051,-3.5259,-3.5332,-3.5416,-3.5416,-3.5608,-3.5908,-3.592,-3.6003,-3.6086,-3.6181,-3.6181,-3.6168,-3.6168,-3.6181,-3.6452,-3.6845,-3.6816,-3.656,-3.6332,-3.6188,-3.5942,-3.5655,-3.5722,-3.6517,-3.6517,-3.6752,-3.7232,-3.7734,-3.7886,-3.8202,-3.8202,-3.8202,-3.8202,-3.8202,-3.8202,-3.8202,-3.8202,-3.8202,-3.8202,-3.8202,-3.8202,-3.8202,-3.8277,-3.8277,-3.8277,-3.8277,-3.8202,-3.8202,-3.8277,-3.8486,-3.8826,-3.9305,-3.9929,-4.0946,-4.2348,-4.3019,-4.3157,-4.3113,-4.3096,-4.3146,-4.3321,-4.3272,-4.319,-4.3047,-4.2953,-4.3064,-4.3157,-4.3157,-4.3295,-4.3312,-4.3312,-4.3372,-4.357,-4.3795,-4.4059,-4.4966,-4.5906,-4.637,-4.7029,-4.7622,-4.7803,-4.7803,-4.7737,-4.7803,-4.7787,-4.7787,-4.7885,-4.7963,-4.7942,-4.8015,-4.8545,-4.9213,-5.0163,-5.0462,-5.0999,-5.1193,-5.1418,-5.164,-5.169,-5.169,-5.169,-5.169,-5.169,-5.169,-5.169,-5.169,-5.169,-5.169,-5.169,-5.169,-3.2022,-3.2491,-3.2563,-3.3152,-3.403,-3.4595,-3.4787,-3.486,-3.5114,-3.532,-3.562,-3.562,-3.562,-3.5716,-3.5716,-3.5716,-3.5716,-3.5716,-3.5716,-3.5908,-3.5949,-3.5593,-3.5201,-3.4992,-3.4968,-3.4826,-3.4588,-3.4677,-3.5534,-3.5534,-3.5615,-3.6015,-3.6596,-3.7323,-3.8127,-3.8202,-3.8202,-3.8202,-3.8202,-3.8202,-3.8202,-3.8202,-3.8202,-3.8202,-3.8202,-3.8202,-3.8202,-3.8202,-3.8202,-3.8202,-3.8202,-3.8202,-3.8202,-3.8202,-3.8277,-3.8337,-3.8899,-3.932,-3.9591,-4.1772,-4.2615,-4.2818,-4.274,-4.2863,-4.3035,-4.3129,-4.3084,-4.2974,-4.2843,-4.2827,-4.2953,-4.3162,-4.315,-4.3309,-4.3359,-4.3567,-4.3678,-4.376,-4.4072,-4.4381,-4.4894,-4.5503,-4.5914,-4.652,-4.7292,-4.7588,-4.7521,-4.7537,-4.7537,-4.762,-4.7604,-4.7555,-4.7572,-4.7556,-4.7489,-4.7204,-4.7658,-4.8779,-4.9654,-5.0167,-5.0731,-5.107,-5.1297,-5.1538,-5.1538,-5.1418,-5.1538,-5.169,-5.164,-5.1589,-5.169,-5.169,-5.169,-5.169,-5.169,-3.1781,-3.1973,-3.2346,-3.2707,-3.3128,-3.3945,-3.4306,-3.4366,-3.4752,-3.5126,-3.532,-3.532,-3.5428,-3.5524,-3.562,-3.5524,-3.562,-3.5633,-3.5633,-3.5571,-3.5371,-3.5125,-3.4669,-3.4107,-3.3819,-3.3595,-3.3431,-3.3628,-3.4319,-3.4402,-3.4815,-3.5224,-3.5615,-3.666,-3.7796,-3.8202,-3.8202,-3.8202,-3.8202,-3.8202,-3.8202,-3.8202,-3.8202,-3.8202,-3.8202,-3.8202,-3.8202,-3.8202,-3.8202,-3.8202,-3.8202,-3.8202,-3.8202,-3.8202,-3.8202,-3.8202,-3.8546,-3.8826,-3.9379,-4.0646,-4.1453,-4.1787,-4.214,-4.2361,-4.2678,-4.2743,-4.2759,-4.2805,-4.2724,-4.2678,-4.2726,-4.3246,-4.352,-4.3842,-4.4052,-4.4519,-4.4713,-4.4749,-4.4865,-4.5126,-4.5552,-4.616,-4.6634,-4.66,-4.7106,-4.7386,-4.7386,-4.7403,-4.747,-4.7486,-4.7486,-4.7403,-4.7404,-4.7272,-4.7159,-4.6996,-4.7225,-4.8308,-4.8921,-4.9317,-4.9838,-5.0495,-5.0857,-5.1035,-5.1088,-5.1088,-5.1211,-5.1315,-5.1436,-5.1454,-5.1487,-5.164,-5.169,-5.169,-5.169,-3.1383,-3.1697,-3.2058,-3.2214,-3.2382,-3.3332,-3.3861,-3.4114,-3.4583,-3.4932,-3.5017,-3.503,-3.5126,-3.532,-3.532,-3.532,-3.5307,-3.5112,-3.5039,-3.4966,-3.4585,-3.423,-3.3814,-3.3502,-3.315,-3.2803,-3.2634,-3.2797,-3.3275,-3.3275,-3.3771,-3.4319,-3.4719,-3.5534,-3.6674,-3.7246,-3.7644,-3.7734,-3.7886,-3.8202,-3.8202,-3.8202,-3.8202,-3.8202,-3.8202,-3.8202,-3.8202,-3.8202,-3.8202,-3.8202,-3.8202,-3.8202,-3.8202,-3.8202,-3.8202,-3.8202,-3.8277,-3.8472,-3.8943,-3.9222,-4.0036,-4.0622,-4.111,-4.1709,-4.2173,-4.2476,-4.2571,-4.2634,-4.2571,-4.2634,-4.2731,-4.333,-4.3815,-4.4122,-4.4561,-4.495,-4.5096,-4.5097,-4.5098,-4.5457,-4.5816,-4.6567,-4.7155,-4.7036,-4.6997,-4.7098,-4.7183,-4.7251,-4.7335,-4.7335,-4.7335,-4.7267,-4.7183,-4.7134,-4.7085,-4.6987,-4.729,-4.7968,-4.8308,-4.8572,-4.9188,-4.9855,-5.0159,-5.053,-5.0749,-5.0874,-5.0874,-5.0999,-5.1105,-5.1158,-5.1211,-5.1367,-5.164,-5.164,-5.164,-3.0734,-3.1572,-3.1673,-3.1697,-3.1865,-3.2827,-3.3525,-3.403,-3.4523,-3.4715,-3.4727,-3.4643,-3.4679,-3.4691,-3.4715,-3.4655,-3.4667,-3.4281,-3.4173,-3.3968,-3.3768,-3.3252,-3.3017,-3.2918,-3.2589,-3.2296,-3.2213,-3.2288,-3.2388,-3.245,-3.2945,-3.3433,-3.359,-3.4236,-3.5047,-3.5869,-3.6517,-3.7014,-3.7491,-3.781,-3.7976,-3.8127,-3.8052,-3.8052,-3.8127,-3.8142,-3.8142,-3.8217,-3.8202,-3.8202,-3.8202,-3.8202,-3.8202,-3.8202,-3.8202,-3.8202,-3.8202,-3.8263,-3.8337,-3.8545,-3.8738,-3.9535,-4.0562,-4.1138,-4.1638,-4.2013,-4.2222,-4.2429,-4.2429,-4.2571,-4.2668,-4.3314,-4.3881,-4.4318,-4.4772,-4.5,-4.5114,-4.5146,-4.516,-4.5403,-4.581,-4.6329,-4.6867,-4.6945,-4.6961,-4.6961,-4.703,-4.703,-4.7098,-4.703,-4.703,-4.703,-4.6961,-4.6961,-4.6929,-4.6896,-4.705,-4.7554,-4.777,-4.808,-4.8635,-4.9205,-4.9563,-4.9988,-5.0474,-5.0657,-5.0564,-5.0675,-5.0766,-5.0874,-5.0928,-5.1088,-5.1297,-5.1418,-5.147,-2.9784,-3.0158,-3.0859,-3.1229,-3.1347,-3.2043,-3.2823,-3.3501,-3.3681,-3.3741,-3.3729,-3.3741,-3.3837,-3.3741,-3.3741,-3.3765,-3.3705,-3.3597,-3.3537,-3.3296,-3.3051,-3.2786,-3.2509,-3.2297,-3.2019,-3.191,-3.1849,-3.1937,-3.1937,-3.1937,-3.1925,-3.2251,-3.2599,-3.2846,-3.3335,-3.4069,-3.5142,-3.6122,-3.6688,-3.7183,-3.7596,-3.7749,-3.7763,-3.7839,-3.7915,-3.7991,-3.7991,-3.8142,-3.8127,-3.8202,-3.8202,-3.8202,-3.8202,-3.8202,-3.8202,-3.8202,-3.8202,-3.8202,-3.8202,-3.8202,-3.8337,-3.8694,-3.9508,-4.0115,-4.0706,-4.1229,-4.1722,-4.1997,-4.2253,-4.2333,-4.2813,-4.3427,-4.3913,-4.4334,-4.4949,-4.5565,-4.5713,-4.5859,-4.5853,-4.595,-4.6342,-4.6407,-4.6844,-4.6876,-4.6892,-4.6876,-4.6876,-4.6876,-4.6876,-4.6876,-4.6876,-4.6876,-4.6876,-4.6876,-4.6876,-4.6929,-4.6945,-4.703,-4.7321,-4.7655,-4.8113,-4.8606,-4.9023,-4.9521,-5.008,-5.0246,-5.0206,-5.0302,-5.0509,-5.062,-5.0657,-5.0874,-5.1017,-5.1088,-5.1193,-2.8473,-2.8947,-2.992,-3.0589,-3.1031,-3.147,-3.1996,-3.242,-3.3011,-3.3284,-3.3284,-3.332,-3.3284,-3.3332,-3.3344,-3.3344,-3.332,-3.3092,-3.2971,-3.2839,-3.2442,-3.2226,-3.1985,-3.1865,-3.1821,-3.1661,-3.1661,-3.1761,-3.1661,-3.1661,-3.1749,-3.1749,-3.1849,-3.1849,-3.2176,-3.276,-3.3661,-3.465,-3.5561,-3.6229,-3.6716,-3.7134,-3.7289,-3.7534,-3.7687,-3.7777,-3.7777,-3.7991,-3.8066,-3.8142,-3.8142,-3.8202,-3.8202,-3.8202,-3.8202,-3.8202,-3.8202,-3.8202,-3.8202,-3.8202,-3.8202,-3.8352,-3.862,-3.8957,-3.9586,-4.0155,-4.0899,-4.1478,-4.182,-4.2238,-4.2896,-4.3541,-4.3929,-4.4334,-4.5322,-4.6273,-4.6552,-4.6714,-4.6763,-4.6795,-4.6828,-4.6811,-4.6876,-4.6876,-4.6876,-4.6876,-4.6876,-4.6876,-4.6876,-4.6876,-4.6876,-4.6876,-4.6876,-4.6876,-4.6844,-4.6747,-4.6714,-4.6867,-4.7354,-4.7621,-4.7737,-4.8272,-4.9016,-4.9445,-4.9842,-4.9918,-5.0017,-5.0092,-5.0263,-5.0359,-5.0415,-5.0453,-5.0602,-5.082,-5.082,-2.6989,-2.8017,-2.9028,-3.0091,-3.0871,-3.0996,-3.1031,-3.118,-3.2408,-3.3035,-3.2999,-3.3023,-3.2951,-3.2739,-3.2819,-3.2855,-3.2723,-3.2575,-3.243,-3.2418,-3.2034,-3.1805,-3.1781,-3.1661,-3.1661,-3.1661,-3.1661,-3.1661,-3.1661,-3.1661,-3.1661,-3.1661,-3.1761,-3.1749,-3.1837,-3.1925,-3.2575,-3.3152,-3.4069,-3.4897,-3.5803,-3.6294,-3.6624,-3.7197,-3.7457,-3.7625,-3.7625,-3.7701,-3.7853,-3.7929,-3.7991,-3.8127,-3.8127,-3.8142,-3.8142,-3.8127,-3.8142,-3.8142,-3.8127,-3.8202,-3.8202,-3.8202,-3.8202,-3.8412,-3.8898,-3.9455,-4.0255,-4.0863,-4.1213,-4.1755,-4.2365,-4.3283,-4.3864,-4.4237,-4.4933,-4.5575,-4.5826,-4.6168,-4.6613,-4.6763,-4.6876,-4.6876,-4.6876,-4.6876,-4.6876,-4.6876,-4.6876,-4.6876,-4.6763,-4.6763,-4.673,-4.673,-4.6601,-4.652,-4.6488,-4.6407,-4.6423,-4.6656,-4.6943,-4.7061,-4.6914,-4.7864,-4.9112,-4.934,-4.9505,-4.978,-4.9924,-4.9999,-5.0074,-5.0109,-5.0109,-5.0051,-5.0206,-5.0453,-5.0509,-2.7189,-2.7558,-2.9257,-3.0295,-3.0668,-3.0679,-3.0781,-3.0996,-3.1298,-3.1577,-3.1541,-3.1565,-3.1589,-3.1762,-3.1841,-3.1931,-3.1824,-3.1938,-3.1901,-3.1913,-3.1709,-3.1584,-3.1673,-3.1584,-3.1673,-3.1661,-3.1661,-3.1661,-3.1661,-3.1661,-3.1661,-3.1661,-3.1661,-3.1661,-3.1661,-3.1661,-3.1913,-3.2239,-3.2575,-3.3577,-3.4555,-3.548,-3.607,-3.648,-3.6744,-3.7303,-3.7457,-3.7534,-3.761,-3.7687,-3.7701,-3.7763,-3.7777,-3.7777,-3.7763,-3.7763,-3.7915,-3.7929,-3.7991,-3.8052,-3.8127,-3.8127,-3.8202,-3.8202,-3.8457,-3.9028,-3.9571,-4.0109,-4.0675,-4.1295,-4.1979,-4.2912,-4.3702,-4.4059,-4.4447,-4.4731,-4.5074,-4.5644,-4.627,-4.6666,-4.688,-4.6844,-4.6828,-4.6876,-4.6876,-4.6876,-4.6876,-4.6811,-4.6536,-4.6439,-4.6342,-4.6293,-4.6115,-4.6034,-4.6002,-4.584,-4.5659,-4.5548,-4.5651,-4.5849,-4.6092,-4.7155,-4.8192,-4.8764,-4.9097,-4.9269,-4.9528,-4.989,-4.9924,-4.9838,-4.9855,-4.9786,-4.9942,-5.0206,-5.0206,-2.5858,-2.6051,-2.7579,-2.8806,-2.9646,-2.9738,-3.0114,-3.0601,-3.0601,-3.0691,-3.0691,-3.0883,-3.0984,-3.0984,-3.1151,-3.1139,-3.1229,-3.133,-3.1377,-3.1431,-3.1407,-3.133,-3.1407,-3.1407,-3.133,-3.1419,-3.1496,-3.1572,-3.1673,-3.1661,-3.1661,-3.1673,-3.1673,-3.1661,-3.1661,-3.1661,-3.1661,-3.1749,-3.1661,-3.2326,-3.3395,-3.4319,-3.5332,-3.5749,-3.6494,-3.7056,-3.7226,-3.738,-3.7457,-3.7534,-3.7534,-3.761,-3.761,-3.7625,-3.761,-3.761,-3.7701,-3.7792,-3.7777,-3.7839,-3.7991,-3.7976,-3.7976,-3.7915,-3.7901,-3.8413,-3.8913,-3.9433,-4.0278,-4.0961,-4.1656,-4.2526,-4.2944,-4.3314,-4.3864,-4.4316,-4.4702,-4.5188,-4.5956,-4.6762,-4.6776,-4.6523,-4.6604,-4.6913,-4.6896,-4.6747,-4.6763,-4.6407,-4.618,-4.584,-4.5824,-4.571,-4.5419,-4.5354,-4.5338,-4.5029,-4.4704,-4.456,-4.4496,-4.529,-4.6009,-4.6599,-4.7254,-4.7734,-4.8186,-4.8459,-4.8769,-4.9108,-4.9373,-4.9252,-4.9373,-4.9528,-4.97,-4.9821,-4.9804,-2.4529,-2.4726,-2.5586,-2.6924,-2.8341,-2.8527,-2.9002,-2.9738,-2.9932,-3.0023,-3.0034,-3.0601,-3.0883,-3.0894,-3.0984,-3.0984,-3.0984,-3.1062,-3.1062,-3.1074,-3.1074,-3.1163,-3.1074,-3.1074,-3.1074,-3.1163,-3.1241,-3.1407,-3.1496,-3.1496,-3.1496,-3.1673,-3.1661,-3.1661,-3.1661,-3.1661,-3.1661,-3.1661,-3.1661,-3.1661,-3.2413,-3.3224,-3.4319,-3.5318,-3.6229,-3.6744,-3.69,-3.7056,-3.7226,-3.7303,-3.738,-3.7457,-3.7457,-3.7457,-3.7457,-3.7457,-3.7534,-3.7548,-3.7625,-3.761,-3.761,-3.761,-3.761,-3.761,-3.761,-3.781,-3.8323,-3.8811,-3.9718,-4.0416,-4.1111,-4.1819,-4.219,-4.2605,-4.3202,-4.3881,-4.4285,-4.4642,-4.5489,-4.6422,-4.6305,-4.6056,-4.6183,-4.6523,-4.6588,-4.6471,-4.6277,-4.5937,-4.5548,-4.5111,-4.4852,-4.4674,-4.4431,-4.4447,-4.4593,-4.4252,-4.3848,-4.3735,-4.375,-4.4887,-4.569,-4.5715,-4.6024,-4.6639,-4.7056,-4.7403,-4.7743,-4.8053,-4.8299,-4.854,-4.8683,-4.8803,-4.8993,-4.9131,-4.9373,-2.5877,-2.6617,-2.6819,-2.7105,-2.7484,-2.7484,-2.7568,-2.7851,-2.8713,-2.9002,-2.9187,-2.9943,-3.0318,-3.0318,-3.0578,-3.0668,-3.0679,-3.0781,-3.0984,-3.0984,-3.0894,-3.0984,-3.0984,-3.0793,-3.0984,-3.0984,-3.0972,-3.1062,-3.1241,-3.1241,-3.1229,-3.1395,-3.1407,-3.1484,-3.1673,-3.1661,-3.1661,-3.1661,-3.1661,-3.1661,-3.1913,-3.2562,-3.3066,-3.4069,-3.5074,-3.5655,-3.6163,-3.6665,-3.6978,-3.7056,-3.7134,-3.7134,-3.7148,-3.7226,-3.7226,-3.7226,-3.7303,-3.738,-3.738,-3.7457,-3.7457,-3.7548,-3.7548,-3.7534,-3.7534,-3.7534,-3.781,-3.7947,-3.8649,-3.9145,-3.9829,-4.0878,-4.1444,-4.1948,-4.2445,-4.3138,-4.3719,-4.3929,-4.4398,-4.4935,-4.5179,-4.4998,-4.4998,-4.5273,-4.5451,-4.537,-4.5289,-4.4998,-4.4917,-4.4431,-4.3929,-4.3751,-4.3541,-4.3605,-4.3767,-4.3443,-4.3056,-4.2894,-4.2958,-4.3771,-4.4268,-4.4306,-4.4658,-4.5479,-4.6038,-4.6402,-4.6742,-4.7034,-4.7485,-4.7782,-4.7889,-4.7993,-4.8217,-4.8424,-4.8648]}]]